     2              OBSERVATION DATA    GPS                 RINEX VERSION / TYPE
teqc 2000Feb29 Daniel Johnson 20010928 19:02:28UTC          PGM / RUN BY / DATE
                                                            COMMENT
L2: 1 -> 1; 5 -> 5; 60 -> 9                                 COMMENT
L2: 1 -> 1; 5 -> 5; 60 -> 9                                 COMMENT
L2: 1 -> 1; 5 -> 5; 60 -> 9                                 COMMENT
L2: 1 -> 1; 5 -> 5; 60 -> 9                                 COMMENT
L2: 1 -> 1; 5 -> 5; 60 -> 9                                 COMMENT
L2: 1 -> 1; 5 -> 5; 60 -> 9                                 COMMENT
L2: 1 -> 1; 5 -> 5; 60 -> 9                                 COMMENT
L2: 1 -> 1; 5 -> 5; 60 -> 9                                 COMMENT
L2: 1 -> 1; 5 -> 5; 60 -> 9                                 COMMENT
L2: 1 -> 1; 5 -> 5; 60 -> 9                                 COMMENT
L2: 1 -> 1; 5 -> 5; 60 -> 9                                 COMMENT
L2: 1 -> 1; 5 -> 5; 60 -> 9                                 COMMENT
L2: 1 -> 1; 5 -> 5; 60 -> 9                                 COMMENT
L2: 1 -> 1; 5 -> 5; 60 -> 9                                 COMMENT
Original Marker Name: BAMA                                  COMMENT
Campaign Name: CWU ECSZ 2001                                COMMENT
4-Character Station Name: BAMA                              COMMENT
6-Character Antenna Code: DMRCHT                            COMMENT
Vertical Measurement Point: BPA                             COMMENT
Vertical Offset to Rinex Ref. Point: 0.0000                 COMMENT
Radial Measurement Point: RRP                               COMMENT
Radial Offset to Rinex Ref. Point: 0.0000                   COMMENT
Antenna Height from Field Measurement: 0.0814 m             COMMENT
Additional Antenna Identification Info.:                    COMMENT
Turborogue and Ashtech Choke Ring                           COMMENT
Original XYZ: -2416658.8132 -4522301.6112 3782898.5211      COMMENT
New XYZ position is based on association with SCEC monument COMMENT
E1G0A8N0+0011. Position of that monument is believed to be  COMMENT
valid to within 1 m horizontally; vertical accuracy         COMMENT
should be no worse than 3-times this value.                 COMMENT
                                                            COMMENT
Revised Rinex header created by UCSD GPS archive for        COMMENT
GSAC on 09-Nov-2004 (2004:314) 22:57:32 GMT                 COMMENT
For assistance contact dagnew@ucsd.edu                      COMMENT
or anderson@python.ucsd.edu                                 COMMENT
                                                            COMMENT
3190 S                                                      MARKER NAME
BAMA                                                        MARKER NUMBER
DJ CENTRAL WASHINGTON UNIVERSITY                            OBSERVER / AGENCY
24360 TRIMBLE 4700 NP 7.19; SP 3.04                         REC # / TYPE / VERS
8192 DORNE-MARGOL. TYPE T                                   ANT # / TYPE
 -2416660.0000 -4522300.0000  3782897.0000                  APPROX POSITION XYZ
        0.0814        0.0000        0.0000                  ANTENNA: DELTA H/E/N
     1     1     0                                          WAVELENGTH FACT L1/2
     9    L1    L2    C1    P2    P1    D1    D2    S1    S2# / TYPES OF OBSERV
    30                                                      INTERVAL
  2001     7     2     0     0   30.000000                  TIME OF FIRST OBS
  2001     7     2     1    47   30.000000                  TIME OF LAST OBS
                                                            END OF HEADER
 01  7  2  0  0 30.0000000  0  8G14G20G30G25G11G21G 1G29
  10540765.26256   8332354.60856  22615202.0704   22615207.5084
     -3705.6724      -2887.5374         14.5004         13.2504
  -6920872.28056  -4963224.96356  22519845.7974   22519851.6804
      1494.5474       1164.5824         14.2504         13.0004
    852850.05655    783499.03955  24441315.9924   24441322.7424
     -1065.5784       -830.3214          7.5004          7.2504
  -8638138.66158  -6630881.64957  20638178.6564   20638183.5204
     -1192.1254       -928.9294         31.5004         29.7504
  -6826351.47957  -5217453.22956  21276533.5314   21276538.9574
     -1458.3124      -1136.3474         26.0004         22.0004
  20374992.42855   1532589.09155  23220066.5784   23220073.9774
     -3832.2814      -2986.1934          9.7504          8.7504
  -2276855.42955  -1685427.09855  23772287.4694   23772296.2274
      1175.0474        915.6214          9.5004          9.7504
   4704069.40857   3777376.26856  21583893.8834   21583898.9574
     -3066.4224      -2389.4204         21.5004         19.7504
 01  7  2  0  1  0.0000000  0  8G14G20G30G25G11G21G 1G29
  10651956.30346   8418996.91746  22636362.1724   22636367.1294
     -3707.4224      -2888.9004         15.5004         13.5004
  -6965667.93646  -4998130.60746  22511321.2814   22511327.3524
      1491.4694       1162.1834         14.2504         12.7504
    885055.91444    808594.47545  24447443.7734   24447451.5594
     -1081.8754       -843.0194          6.7504          6.7504
  -8602126.68148  -6602820.36447  20645031.3674   20645036.3014
     -1209.0314       -942.1024         31.0004         29.7504
  -6782330.17747  -5183150.93446  21284910.4454   21284915.7194
     -1476.8124      -1150.7634         26.0004         22.0004
  20490080.45245   1622267.94345  23241966.4534   23241976.0784
     -3840.6094      -2992.6834          9.5004          9.0004
  -2312043.96045  -1712846.60445  23765591.1174   23765600.9534
      1170.4694        912.0544          9.2504          9.7504
   4796107.97747   3849094.60746  21601408.2034   21601413.2074
     -3069.8594      -2392.0984         21.2504         19.5004
 01  7  2  0  1 30.0000000  0  8G14G20G30G25G11G21G 1G29
  10763229.33146   8505703.12246  22657536.0704   22657541.3794
     -3710.9064      -2891.6154         14.7504         13.0004
  -7010340.22146  -5032940.14146  22502820.3674   22502826.0394
      1486.5784       1158.3734         14.5004         13.0004
    917783.09345    834096.22145  24453672.4454   24453678.1994
     -1100.0784       -857.2044          7.7504          7.2504
  -8565577.88948  -6574340.78247  20651986.3674   20651991.2194
     -1227.6724       -956.6274         31.0004         29.7504
  -6737723.94047  -5148392.84946  21293398.6094   21293404.0004
     -1497.0624      -1166.5424         26.0004         22.0004
  20605447.24645   1712164.02645  23263921.0004   23263927.9304
     -3850.6414      -3000.4994          9.5004          8.7504
  -2347065.48245  -1740136.00645  23758926.5084   23758935.2424
      1164.1564        907.1354          9.0004          9.2504
   4888278.85947   3920916.04046  21618947.6254   21618953.2854
     -3074.9844      -2396.0924         21.2504         19.7504
 01  7  2  0  2  0.0000000  0  8G14G20G30G25G11G21G 1G29
  10874596.63546   8592482.78946  22678728.3524   22678733.8364
     -3713.8594      -2893.9164         14.5004         12.7504
  -7054874.48646  -5067642.12446  22494346.2424   22494352.2194
      1482.0784       1154.8664         15.0004         13.2504
    951045.68145    860015.09345  24460001.6414   24460007.5704
     -1117.7504       -870.9744          7.7504          7.0004
  -8528479.84448  -6545433.21547  20659045.8594   20659050.7814
     -1245.8124       -970.7634         31.2504         29.7504
  -6692520.02647  -5113169.04546  21302000.8754   21302006.1484
     -1516.8124      -1181.9324         26.0004         22.2504
  20721105.35045   1802287.06545  23285930.4384   23285938.2464
     -3860.1874      -3007.9384          9.7504          8.2504
  -2381906.50645  -1767284.73845  23752296.4614   23752303.8364
      1158.2814        902.5574          9.2504          9.5004
   4980594.36747   3992850.16946  21636514.7974   21636520.0474
     -3079.6564      -2399.7324         20.7504         19.5004
 01  7  2  0  2 30.0000000  0  8G14G20G30G25G11G21G 1G29
  10986058.07746   8679335.82746  22699938.6804   22699943.7894
     -3716.7814      -2896.1934         14.7504         13.0004
  -7099267.92146  -5102234.36746  22485898.4224   22485904.3524
      1477.5944       1151.3724         15.2504         13.0004
    984845.47944    886352.59745  24466432.8754   24466439.6604
     -1135.4694       -884.7814          6.7504          6.5004
  -8490832.03848  -6516097.25347  20666210.1564   20666215.0084
     -1263.9224       -984.8744         31.0004         29.7504
  -6646718.02547  -5077479.19746  21310716.8054   21310722.0434
     -1536.5314      -1197.2974         26.0004         21.7504
  20837055.56745   1892637.77545  23307995.2814   23308002.5864
     -3869.7034      -3015.3534         10.0004          9.0004
  -2416566.21545  -1794292.21545  23745700.6174   23745708.4734
      1152.4844        898.0404          9.0004          9.5004
   5073054.59747   4064897.07646  21654109.5084   21654114.8284
     -3084.2504      -2403.3124         21.0004         19.2504
 01  7  2  0  3  0.0000000  0  8G14G20G30G25G11G21G 1G29
  11097612.92446   8766261.63946  22721167.1954   22721172.0234
     -3720.4844      -2899.0794         14.7504         12.7504
  -7143518.95046  -5136715.63746  22477477.7504   22477483.4694
      1472.2034       1147.1714         15.7504         13.5004
   1019183.18144    913109.23545  24472967.9614   24472976.3324
     -1154.0004       -899.2214          7.2504          7.2504
  -8452634.83248  -6486333.19747  20673478.8364   20673483.7234
     -1282.8284       -999.6064         31.2504         29.7504
  -6600318.51247  -5041323.74746  21319546.1884   21319551.3094
     -1557.0624      -1213.2954         25.7504         22.0004
  20953296.80545   1983215.24345  23330114.8204   23330122.5354
     -3880.0004      -3023.3774          9.7504          8.2504
  -2451044.66145  -1821158.42845  23739139.6484   23739149.1214
      1145.8284        892.8534          9.2504          9.0004
   5165658.70047   4137056.08746  21671731.5084   21671737.2734
     -3089.6254      -2407.5004         20.5004         19.2504
 01  7  2  0  3 30.0000000  0  8G14G20G30G25G11G21G 1G29
  11209274.83946   8853270.87146  22742416.3364   22742422.2194
     -3722.8284      -2900.9054         14.7504         12.7504
  -7187611.27446  -5171073.24546  22469087.2504   22469093.2504
      1468.1094       1143.9814         16.0004         13.2504
   1054074.44044    940297.25145  24479607.9454   24479616.5164
     -1171.2504       -912.6624          7.2504          7.0004
  -8413874.13148  -6456130.04547  20680854.6254   20680859.5944
     -1300.3754      -1013.2794         30.7504         29.7504
  -6553307.13247  -5004691.52446  21328492.2734   21328497.4884
     -1576.2194      -1228.2224         26.0004         22.0004
  21069843.65345   2074030.81945  23352293.4844   23352304.0944
     -3888.9534      -3030.3534          9.7504          8.0004
  -2485327.13545  -1847871.95145  23732616.0164   23732623.2504
      1140.5164        888.7134          9.0004          9.2504
   5258420.48147   4209337.97246  21689383.4454   21689389.1294
     -3093.6564      -2410.6414         20.5004         19.0004
 01  7  2  0  4  0.0000000  0  8G14G20G30G25G11G21G 1G29
  11321009.91846   8940337.13046  22763678.1564   22763683.5004
     -3726.4064      -2903.6934         14.5004         13.0004
  -7231576.47646  -5205331.79946  22460720.6024   22460726.6024
      1462.6724       1139.7444         16.2504         13.5004
   1089486.99344    967891.43845  24486346.5164   24486352.9614
     -1189.8284       -927.1394          7.2504          6.5004
  -8374583.44448  -6425513.91847  20688331.5634   20688336.3554
     -1319.2194      -1027.9634         31.2504         29.7504
  -6505717.61547  -4967608.80346  21337548.4144   21337553.8164
     -1596.6564      -1244.1484         26.2504         22.0004
  21186662.23145   2165058.17245  23374522.4774   23374531.2814
     -3899.1724      -3038.3164          9.0004          8.0004
  -2519446.74745  -1874458.61745  23726122.4304   23726130.2854
      1133.9064        883.5634          8.5004          9.0004
   5351305.59547   4281715.94846  21707058.8204   21707064.3984
     -3098.9064      -2414.7324         20.2504         18.7504
 01  7  2  0  4 30.0000000  0  8G14G20G30G25G11G21G 1G29
  11432816.04946   9027458.72746  22784954.5234   22784960.0784
     -3728.1564      -2905.0574         14.2504         12.2504
  -7275414.09746  -5239490.96246  22452378.5234   22452384.4304
      1459.0004       1136.8834         16.0004         13.5004
   1125420.60944    995891.68445  24493184.0784   24493193.9844
     -1206.6094       -940.2154          7.0004          6.5004
  -8334764.70148  -6394486.32447  20695908.8674   20695913.8014
     -1336.2034      -1041.1974         31.0004         29.7504
  -6457551.65447  -4930076.90346  21346713.8204   21346719.3874
     -1615.2504      -1258.6364         26.0004         22.0004
  21303750.30445   2256295.45945  23396803.9534   23396810.5864
     -3907.5314      -3044.8304          9.5004          7.7504
  -2553404.41945  -1900919.02445  23719661.5634   23719669.1134
      1129.1094        879.8254          9.2504          9.2504
   5444312.45047   4354188.80246  21724757.5234   21724762.9964
     -3102.3594      -2417.4234         20.5004         19.0004
 01  7  2  0  5  0.0000000  0  8G14G20G30G25G11G21G 1G29
  11544695.92446   9114637.79746  22806244.5784   22806249.7234
     -3730.9064      -2907.2004         14.5004         12.5004
  -7319118.68646  -5273546.42746  22444061.7034   22444067.4924
      1454.2344       1133.1704         15.7504         13.7504
   1161879.66744   1024301.28545  24500122.1334   24500128.9534
     -1224.4224       -954.0954          6.7504          6.7504
  -8294414.69348  -6363044.75847  20703587.1484   20703591.9414
     -1354.2034      -1055.2234         31.2504         30.0004
  -6408806.14347  -4892093.40546  21355990.0314   21355995.3164
     -1634.8594      -1273.9164         26.2504         22.2504
  21421111.45145   2347745.59245  23419137.6884   23419145.7774
     -3916.9374      -3052.1594          9.2504          8.7504
  -2587196.82045  -1927250.67645  23713230.1884   23713237.9024
      1123.2974        875.2964          8.7504          9.0004
   5537443.80747   4426758.66746  21742479.9694   21742485.2894
     -3106.8124      -2420.8934         20.5004         19.0004
 01  7  2  0  5 30.0000000  0  8G14G20G30G25G11G21G 1G29
  11656672.43346   9201892.17546  22827553.0234   22827557.7234
     -3734.6724      -2910.1344         14.7504         12.5004
  -7362664.67146  -5307478.30746  22435775.5004   22435781.2774
      1448.3444       1128.5804         16.2504         13.5004
   1198888.87044   1053139.64745  24507164.2034   24507170.5554
     -1243.3284       -968.8274          6.7504          7.0004
  -8253510.49248  -6331171.35147  20711370.9454   20711375.8674
     -1373.2344      -1070.0534         31.0004         29.7504
  -6359457.82847  -4853640.18546  21365380.5864   21365385.8714
     -1655.5164      -1290.0124         26.0004         22.0004
  21538768.81945   2439426.52645  23441526.6954   23441535.5354
     -3927.3594      -3060.2804          8.7504          8.0004
  -2620800.12345  -1953435.00545  23706836.2664   23706844.8014
      1116.4224        869.9394          9.0004          9.2504
   5630722.61347   4499443.42046  21760230.2194   21760235.8324
     -3112.2664      -2425.1424         20.2504         19.0004
 01  7  2  0  6  0.0000000  0  8G14G20G30G25G11G21G 1G29
  11768752.18346   9289226.99045  22848881.0394   22848887.1684
     -3737.1254      -2912.0454         14.0004         11.7504
  -7406043.27846  -5341279.77946  22427520.8284   22427526.5474
      1443.7194       1124.9764         16.0004         13.5004
   1236456.15244   1082412.84345  24514313.6094   24514321.6764
     -1260.9694       -982.5734          6.7504          7.0004
  -8212045.12848  -6298860.67347  20719261.3914   20719266.2074
     -1390.9534      -1083.8604         31.2504         30.0004
  -6309499.99647  -4814712.02946  21374887.3914   21374892.9344
     -1674.8284      -1305.0614         26.0004         22.0004
  21656729.19445   2531343.57045  23463974.2504   23463983.4304
     -3936.4534      -3067.3664          8.7504          7.7504
  -2654206.72745  -1979466.00045  23700478.7274   23700486.6764
      1110.8594        865.6054          9.0004          9.5004
   5724155.25147   4572248.05146  21778009.7274   21778015.7384
     -3116.4064      -2428.3694         20.2504         18.7504
 01  7  2  0  6 30.0000000  0  8G14G20G30G25G11G21G 1G29
  11880885.33146   9376603.41746  22870219.9384   22870225.4804
     -3739.3754      -2913.7994         14.7504         12.2504
  -7449301.40646  -5374987.35046  22419288.8444   22419295.1484
      1439.1724       1121.4334         16.0004         13.7504
   1274533.53245   1112083.54245  24521559.6334   24521565.9384
     -1278.5004       -996.2344          7.5004          7.0004
  -8170068.22748  -6266151.39647  20727249.4844   20727254.3014
     -1408.4694      -1097.5084         31.2504         30.0004
  -6258982.22547  -4775347.54546  21384500.5944   21384505.8444
     -1693.9844      -1319.9884         26.2504         22.0004
  21774943.12445   2623458.22845  23486469.5084   23486477.6914
     -3945.4064      -3074.3434          9.0004          8.5004
  -2687465.67445  -2005381.95645  23694150.3054   23694158.5944
      1105.4384        861.3804          9.2504          9.0004
   5817692.12947   4645133.90746  21795809.4774   21795814.8444
     -3120.3594      -2431.4494         20.2504         18.7504
 01  7  2  0  7  0.0000000  0  8G14G20G30G25G11G21G 1G29
  11993096.20546   9464040.40246  22891572.2974   22891578.2854
     -3741.4374      -2915.4064         13.2504         12.0004
  -7492412.35546  -5408580.25346  22411084.9064   22411090.7894
      1434.7664       1117.9994         15.7504         13.5004
   1313147.08145   1142171.97545  24528907.4694   24528915.3594
     -1295.8594      -1009.7614          7.5004          6.0004
  -8127555.15948  -6233024.31747  20735339.3594   20735344.1994
     -1425.8284      -1111.0354         31.0004         29.7504
  -6207879.71547  -4735527.42646  21394225.0864   21394230.3134
     -1712.9374      -1334.7564         26.0004         21.7504
  21893435.28645   2715789.58545  23509017.7974   23509025.3834
     -3954.1564      -3081.1614          8.7504          7.7504
  -2720551.82545  -2031163.29645  23687853.6174   23687861.6724
      1100.1884        857.2894          9.2504          9.0004
   5911357.57247   4718119.94246  21813633.4774   21813638.6094
     -3124.1254      -2434.3834         20.2504         18.5004
 01  7  2  0  7 30.0000000  0  8G14G20G30G25G11G21G 1G29
  12105389.01146   9551541.24246  22912941.2734   22912946.4884
     -3744.2974      -2917.6344         14.5004         12.2504
  -7535369.24046  -5442053.10546  22402910.5314   22402916.0634
      1429.4694       1113.8724         16.2504         14.5004
   1352302.18245   1172682.53945  24536358.3364   24536367.7734
     -1314.0474      -1023.9334          7.5004          7.2504
  -8084501.42048  -6199475.95447  20743532.2114   20743536.9454
     -1443.9694      -1125.1704         31.2504         29.7504
  -6156188.13347  -4695248.28746  21404061.5704   21404066.7274
     -1732.7034      -1350.1584         26.2504         21.7504
  22012209.71745   2808340.98745  23531620.4534   23531629.4104
     -3963.6874      -3088.5884          9.0004          8.5004
  -2753460.09745  -2056806.01645  23681591.6094   23681599.1134
      1094.1254        852.5654          9.2504          9.5004
   6005155.76946   4791209.42246  21831482.5004   21831487.8094
     -3128.6564      -2437.9144         19.7504         18.5004
 01  7  2  0  8  0.0000000  0  8G14G20G30G25G11G21G 1G29
  12217767.54046   9639108.87346  22934325.8674   22934331.2704
     -3746.6254      -2919.4484         14.2504         12.2504
  -7578165.66746  -5475400.91346  22394766.5784   22394772.1914
      1424.5784       1110.0614         16.5004         14.2504
   1392004.37743   1203619.27045  24543912.2814   24543917.5314
     -1331.8124      -1037.7764          6.0004          6.2504
  -8040903.21548  -6165503.32047  20751828.7894   20751833.4064
     -1461.6094      -1138.9164         31.2504         29.7504
  -6103903.62447  -4654507.12746  21414010.9694   21414016.4064
     -1751.9844      -1365.1834         26.0004         21.7504
  22131271.07145   2901115.89145  23554276.8754   23554283.0044
     -3972.7664      -3095.6624          8.7504          7.0004
  -2786185.77445  -2082306.43945  23675364.4064   23675372.5784
      1088.5314        848.2064          9.5004          9.2504
   6099090.80246   4864405.52246  21849357.7664   21849363.2734
     -3132.7194      -2441.0804         19.7504         18.2504
 01  7  2  0  8 30.0000000  0  8G14G20G30G25G11G21G 1G29
  12330216.23546   9726731.17446  22955723.9064   22955729.6024
     -3749.4844      -2921.6764         13.5004         12.0004
  -7620814.68746  -5508633.87646  22386650.6954   22386656.5664
      1419.1254       1105.8124         17.0004         14.7504
   1432239.54944   1234971.36545  24551570.1024   24551576.2074
     -1350.1094      -1052.0334          7.0004          6.2504
  -7996776.00048  -6131118.47347  20760225.8444   20760230.6484
     -1479.7664      -1153.0644         30.7504         29.7504
  -6051041.73947  -4613316.07346  21424070.3914   21424075.8164
     -1771.7194      -1380.5604         25.7504         21.5004
  22250603.85645   2994102.30445  23576985.3204   23576992.5784
     -3982.3124      -3103.1014          9.0004          8.7504
  -2818743.62045  -2107676.13045  23669167.7504   23669174.4884
      1082.4224        843.4464          9.2504          9.2504
   6193146.92547   4937695.98346  21867256.5004   21867261.8324
     -3137.2664      -2444.6234         20.0004         18.5004
 01  7  2  0  9  0.0000000  0  8G14G20G30G25G11G21G 1G29
  12442722.33046   9814398.22246  22977133.5704   22977139.9104
     -3751.4064      -2923.1744         14.0004         12.0004
  -7663326.28146  -5541759.75046  22378561.3134   22378566.6214
      1414.4844       1102.1964         17.5004         15.0004
   1472996.42845   1266729.98245  24559325.8914   24559334.2734
     -1367.5474      -1065.6214          7.5004          7.0004
  -7952132.61448  -6096331.41847  20768721.1484   20768726.0124
     -1496.9694      -1166.4694         31.2504         30.0004
  -5997614.91947  -4571684.80246  21434237.4774   21434242.8204
     -1790.5624      -1395.2444         26.2504         21.7504
  22370195.25545   3087290.34645  23599742.3284   23599751.0864
     -3990.9534      -3109.8344          8.5004          8.2504
  -2851145.54845  -2132924.29445  23663002.1954   23663010.5084
      1077.2034        839.3794          9.5004          9.5004
   6287311.26846   5011070.75346  21885174.7734   21885180.3164
     -3140.8754      -2447.4354         19.7504         18.2504
 01  7  2  0  9 30.0000000  0  9G14G20G30G25G11G21G 1G29G22
  12555297.54646   9902119.10445  22998556.0164   22998560.6564
     -3753.9374      -2925.1464         14.2504         11.7504
  -7705686.55346  -5574767.70846  22370500.2274   22370506.0744
      1409.1884       1098.0684         17.5004         14.7504
   1514288.17744   1298905.40845  24567183.3834   24567193.8404
     -1385.5784      -1079.6714          6.7504          6.5004
  -7906961.11148  -6061132.83847  20777317.1644   20777322.0514
     -1514.7974      -1180.3614         31.2504         29.7504
  -5943611.68147  -4529604.38046  21444513.6564   21444518.8594
     -1809.9844      -1410.3774         26.2504         22.0004
  22490057.17345   3180689.02645  23622551.8524   23622559.5784
     -4000.1564      -3117.0054          9.0004          8.0004
  -2883379.06745  -2158041.25045  23656868.2584   23656876.1134
      1071.3754        834.8384          9.5004          9.7504
   6381596.06647   5084539.39946  21903116.8834   21903122.1214
     -3145.0944      -2450.7224         20.0004         18.0004
    -21635.80753                  24947623.3204
      1967.6414                          6.0004
 01  7  2  0 10  0.0000000  0  9G14G20G30G25G11G21G 1G29G22
  12667940.22646   9989892.56145  23019991.1024   23019996.5864
     -3755.3284      -2926.2304         13.7504         11.7504
  -7747894.47046  -5607656.92246  22362468.1254   22362473.9024
      1404.9064       1094.7324         17.5004         14.7504
   1556114.41344   1331497.25545  24575142.9224   24575149.1214
     -1402.5784      -1092.9184          6.7504          6.0004
  -7861263.19948  -6025524.07547  20786013.0554   20786017.8714
     -1531.5004      -1193.3774         31.0004         29.7504
  -5889033.58547  -4487076.01346  21454899.4384   21454904.9804
     -1828.3124      -1424.6594         26.2504         21.7504
  22610187.85945   3274297.25945  23645413.2664   23645419.9104
     -4008.2814      -3123.3364          9.0004          8.0004
  -2915445.17345  -2183027.72445  23650766.4694   23650774.5234
      1066.6094        831.1244          9.7504          9.2504
   6475999.30946   5158100.33146  21921081.4774   21921086.9144
     -3148.2194      -2453.1574         19.7504         18.2504
    -80736.27043                  24936376.0394
      1972.6254                          5.7504
 01  7  2  0 10 30.0000000  0  9G14G20G30G25G11G21G 1G29G22
  12780657.10946  10077723.86145  23041440.1174   23041445.5314
     -3759.0474      -2929.1274         13.2504         11.5004
  -7789940.64246  -5640420.13646  22354466.9924   22354473.0274
      1398.2344       1089.5334         17.5004         14.5004
   1598483.21343   1364511.93045  24583203.8054   24583211.4494
     -1421.9374      -1108.0034          6.0004          6.2504
  -7815031.85148  -5989499.64347  20794810.5004   20794815.1764
     -1550.5164      -1208.1944         31.2504         29.7504
  -5833873.90047  -4444094.45746  21465395.9844   21465401.3984
     -1848.9374      -1440.7314         26.0004         21.7504
  22730594.21745   3368120.24345  23668324.9774   23668334.9884
     -4018.7194      -3131.4694          8.5004          7.7504
  -2947336.23945  -2207877.81745  23644696.9224   23644704.0864
      1059.5314        825.6094          9.7504          9.7504
   6570527.82146   5231758.88846  21939069.3754   21939075.0594
     -3153.5944      -2457.3464         19.5004         18.2504
   -139952.71843                  24925107.5164
      1975.1884                          5.5004
 01  7  2  0 11  0.0000000  0  9G14G20G30G25G11G21G 1G29G22
  12893459.43046  10165621.68945  23062906.1024   23062911.8794
     -3760.6724      -2930.3944         13.2504         11.7504
  -7831811.12246  -5673046.42446  22346498.9144   22346504.3054
      1393.5634       1085.8934         17.0004         14.5004
   1641407.34444   1397959.28745  24591373.4774   24591381.5904
     -1439.2504      -1121.4944          6.5004          6.2504
  -7768255.74348  -5953050.72847  20803711.6094   20803716.5434
     -1567.4534      -1221.3924         31.2504         29.7504
  -5778121.19847  -4400650.81846  21476005.4614   21476010.8284
     -1867.4694      -1455.1704         26.0004         22.0004
  22851287.83445   3462167.05345  23691292.2114   23691301.8714
     -4027.0944      -3137.9954          9.0004          7.5004
  -2979040.13445  -2232582.07245  23638664.3134   23638671.1724
      1054.5004        821.6884         10.0004          9.2504
   6665193.05146   5305523.96346  21957083.7034   21957089.3404
     -3156.9694      -2459.9764         19.7504         18.0004
   -199270.29943    -38523.53855  24913820.3674   24913836.4614
      1979.7344       1542.6504          6.0004          6.2504
 01  7  2  0 11 30.0000000  0  9G14G20G30G25G11G21G 1G29G22
  13006327.62746  10253570.86945  23084383.9454   23084389.4304
     -3763.1724      -2932.3424         13.2504         11.2504
  -7873523.22246  -5705549.31746  22338561.9844   22338568.0784
      1387.9224       1081.4984         17.5004         14.5004
   1684868.33344   1431824.98445  24599643.2734   24599651.3284
     -1457.4844      -1135.7024          6.7504          6.7504
  -7720954.87348  -5916192.90947  20812712.7504   20812717.6844
     -1585.2504      -1235.2604         30.7504         29.7504
  -5721795.49647  -4356760.67746  21486724.0234   21486729.1454
     -1886.8754      -1470.2924         26.5004         21.7504
  22972249.45545   3556422.74345  23714310.3834   23714320.5004
     -4036.3284      -3145.1914          8.2504          7.5004
  -3010575.98445  -2257155.37745  23632663.4454   23632670.7384
      1048.5784        817.0744         10.0004          9.2504
   6759975.35346   5379380.27646  21975120.3364   21975125.8324
     -3161.1724      -2463.2514         19.5004         18.0004
   -258705.65544    -84836.58845  24902510.2274   24902522.3834
      1983.2974       1545.4264          6.2504          6.5004
 01  7  2  0 12  0.0000000  0  9G14G20G30G25G11G21G 1G29G22
  13119265.40946  10341574.30045  23105875.2114   23105881.3284
     -3765.3594      -2934.0464         13.0004         11.5004
  -7915070.70446  -5737923.92646  22330655.3444   22330661.0984
      1382.5474       1077.3094         17.2504         15.0004
   1728871.23945   1466112.95045  24608017.4224   24608022.7774
     -1475.4224      -1149.6794          7.5004          6.2504
  -7673125.67448  -5878923.40047  20821814.3364   20821819.1644
     -1602.7194      -1248.8724         30.7504         29.5004
  -5664893.12247  -4312421.18346  21497551.9304   21497557.1094
     -1905.9694      -1485.1704         26.2504         22.0004
  23093482.57145   3650889.93645  23737380.5864   23737388.3244
     -4045.2344      -3152.1314          8.2504          8.0004
  -3041939.22345  -2281594.15945  23626695.5944   23626703.2154
      1042.9534        812.6914         10.5004          9.5004
   6854878.51946   5453330.75346  21993180.0634   21993185.6414
     -3165.0474      -2466.2704         19.5004         17.5004
   -318252.15544   -131236.19945  24891178.6334   24891191.8324
      1987.1094       1548.3974          7.0004          7.0004
 01  7  2  0 12 30.0000000  0  9G14G20G30G25G11G21G 1G29G22
  13232249.27546  10429613.59645  23127376.4694   23127382.0004
     -3767.3594      -2935.6054         13.7504         11.2504
  -7956474.28246  -5770186.39946  22322776.8594   22322782.7774
      1377.2504       1073.1824         17.5004         15.2504
   1773393.86545   1500805.89845  24616490.1094   24616498.1994
     -1493.2194      -1163.5474          7.5004          7.0004
  -7624791.17748  -5841260.15647  20831011.9384   20831016.7894
     -1620.0314      -1262.3624         30.7504         29.7504
  -5607437.55347  -4267650.63346  21508485.4694   21508490.8244
     -1924.8594      -1499.8904         26.2504         22.0004
  23214963.60645   3745550.32645  23760497.9694   23760505.2034
     -4053.9694      -3158.9374          8.7504          8.0004
  -3073152.48745  -2305916.07745  23620755.4454   23620764.2034
      1037.4694        808.4174         10.2504          9.2504
   6949879.04946   5527357.11046  22011257.4064   22011263.2304
     -3168.7814      -2469.1804         18.7504         17.7504
   -377929.60744   -177737.88045  24879821.5704   24879831.5354
      1990.9224       1551.3684          6.7504          6.5004
 01  7  2  0 13  0.0000000  0  9G14G20G30G25G11G21G 1G29G22
  13345292.19846  10517698.92745  23148887.0704   23148892.5084
     -3769.0624      -2936.9324         13.0004         11.2504
  -7997718.37446  -5802324.59946  22314927.8674   22314933.4924
      1372.1414       1069.2004         18.0004         15.0004
   1818450.09044   1535914.71745  24625062.8834   24625070.1414
     -1510.7664      -1177.2204          6.7504          6.0004
  -7575938.78448  -5803193.35447  20840308.4064   20840313.3164
     -1637.0314      -1275.6094         30.7504         29.5004
  -5549415.99947  -4222439.05546  21519526.7584   21519532.1604
     -1943.4694      -1514.3914         26.2504         22.0004
  23336706.03145   3840414.41345  23783663.8364   23783673.8594
     -4062.4064      -3165.5114          7.7504          7.7504
  -3104202.18745  -2330110.53745  23614846.4534   23614854.2274
      1032.2814        804.3754         10.2504          9.7504
   7044989.96746   5601469.47246  22029356.7664   22029362.2504
     -3172.1874      -2471.8344         19.2504         17.5004
   -437721.06244   -224328.52045  24868442.9774   24868453.5164
      1994.9224       1554.4854          6.2504          6.2504
 01  7  2  0 13 30.0000000  0  9G14G20G30G25G11G21G 1G29G22
  13458382.57446  10605821.24645  23170407.6254   23170412.7464
     -3770.7974      -2938.2834         13.0004         11.7504
  -8038811.98446  -5834345.54846  22307108.5164   22307114.0594
      1366.9224       1065.1344         18.7504         15.5004
   1864029.77744   1571431.26445  24633735.5314   24633743.3284
     -1528.3914      -1190.9544          6.5004          6.7504
  -7526580.43548  -5764732.29747  20849700.9694   20849705.8914
     -1654.0474      -1288.8684         30.7504         29.7504
  -5490840.27747  -4176795.65546  21530673.3364   21530678.5984
     -1962.0944      -1528.9044         26.2504         21.7504
  23458697.87045   3935472.80245  23806878.8134   23806888.3794
     -4070.8754      -3172.1104          7.7504          7.5004
  -3135099.18945  -2354186.03945  23608966.9144   23608973.5124
      1027.0314        800.2844         10.5004          9.2504
   7140199.65546   5675658.80546  22047474.5394   22047480.3524
     -3175.6254      -2474.5134         18.7504         17.2504
   -497634.90843   -271014.38745  24857041.7034   24857052.8634
      1998.8134       1557.5164          6.0004          6.0004
 01  7  2  0 14  0.0000000  0  9G14G20G30G25G11G21G 1G29G22
  13571535.66246  10693992.41745  23191940.7814   23191945.8094
     -3772.2814      -2939.4404         13.5004         11.7504
  -8079737.25246  -5866235.33146  22299319.9844   22299325.6094
      1361.8594       1061.1894         18.0004         16.0004
   1910149.18145   1607368.50345  24642513.1884   24642519.9734
     -1545.7814      -1204.5054          7.5004          6.2504
  -7476700.85848  -5725865.09647  20859192.7974   20859197.8364
     -1670.8124      -1301.9324         31.0004         29.5004
  -5431695.42647  -4130708.78546  21541928.1724   21541933.7034
     -1980.4534      -1543.2104         26.0004         21.5004
  23580954.25645   4030737.44345  23830143.5634   23830154.8874
     -4079.1094      -3178.5274          7.5004          6.5004
  -3165827.69245  -2378130.25245  23603119.7734   23603126.4774
      1021.9844        796.3514         10.7504          9.5004
   7235523.51946   5749937.09946  22065614.0944   22065619.9654
     -3178.8284      -2477.0094         18.7504         17.5004
   -557652.76344   -317781.36645  24845621.1484   24845630.1414
      2002.8284       1560.6454          6.5004          6.5004
 01  7  2  0 14 30.0000000  0  9G14G20G30G25G11G21G 1G29G22
  13684748.80346  10782210.39245  23213484.2814   23213490.1764
     -3774.3444      -2941.0474         13.2504         11.5004
  -8120494.63546  -5897994.27646  22291564.1884   22291570.2114
      1356.1884       1056.7694         18.5004         15.7504
   1956806.84544   1643725.16745  24651391.2894   24651400.5514
     -1563.8284      -1218.5674          7.0004          7.2504
  -7426303.05548  -5686594.07847  20868783.1564   20868787.9614
     -1688.1254      -1315.4224         30.7504         29.7504
  -5371984.47347  -4084180.79346  21553290.8284   21553296.2074
     -1999.3754      -1557.9554         26.2504         21.5004
  23703472.81545   4126206.20045  23853458.8754   23853469.7424
     -4087.8754      -3185.3574          8.2504          7.5004
  -3196389.56045  -2401944.59645  23597303.6484   23597311.9614
      1016.3754        791.9814         10.7504          9.7504
   7330958.87546   5824302.27546  22083774.4064   22083779.9734
     -3182.6254      -2479.9684         18.7504         17.5004
   -617774.26644   -364629.06445  24834180.1484   24834193.8054
      2006.1724       1563.2514          6.7504          6.0004
 01  7  2  0 15  0.0000000  0  9G14G20G30G25G11G21G 1G29G22
  13798021.05746  10870474.43345  23235038.9064   23235043.7584
     -3776.2194      -2942.5084         12.7504         11.5004
  -8161082.48046  -5929621.10846  22283841.0004   22283846.7664
      1350.5784       1052.3994         18.7504         16.0004
   2004002.81444   1680501.19445  24660373.4454   24660382.5434
     -1581.6724      -1232.4724          7.0004          6.2504
  -7375388.39748  -5646920.31747  20878471.9614   20878476.8484
     -1705.2664      -1328.7784         30.7504         29.5004
  -5311708.60747  -4037212.60746  21564761.0234   21564766.2624
     -2018.1094      -1572.5534         26.2504         21.5004
  23826252.20345   4221878.32445  23876822.2894   23876833.0634
     -4096.4844      -3192.0664          8.0004          7.2504
  -3226785.17845  -2425629.42245  23591519.5944   23591526.7344
      1010.9224        787.7314         10.7504         10.0004
   7426504.65146   5898753.49346  22101956.7894   22101962.4494
     -3186.2034      -2482.7564         19.0004         17.0004
   -677996.54344   -411555.33145  24822719.9064   24822733.5634
      2009.5634       1565.8934          6.7504          6.2504
 01  7  2  0 15 30.0000000  0  9G14G20G30G25G11G21G 1G29G22
  13911342.45146  10958776.76145  23256603.2504   23256607.5514
     -3777.9064      -2943.8234         12.7504         11.0004
  -8201507.93146  -5961121.41946  22276148.1484   22276154.2774
      1345.0634       1048.1014         18.7504         16.0004
   2051728.32745   1717689.91945  24669455.6484   24669460.5354
     -1599.3914      -1246.2784          7.5004          7.0004
  -7323966.46648  -5606851.27947  20888257.0944   20888261.9924
     -1722.2344      -1342.0014         30.7504         29.7504
  -5250877.98647  -3989812.14746  21576336.7894   21576342.2384
     -2036.6564      -1587.0054         26.0004         21.7504
  23949282.79345   4317746.15745  23900234.8834   23900243.3364
     -4104.9224      -3198.6404          8.0004          7.7504
  -3257023.57145  -2449191.71445  23585765.1804   23585773.1414
      1005.6094        783.5924         10.7504         10.0004
   7522151.11046   5973283.16746  22120158.0164   22120163.7584
     -3189.6094      -2485.4104         19.0004         17.2504
   -738325.73343   -458564.95445  24811239.4534   24811248.4804
      2013.0004       1568.5714          6.0004          5.2504
 01  7  2  0 16  0.0000000  0  9G14G20G30G25G11G21G 1G29G22
  14024720.52846  11047123.25245  23278178.4384   23278184.0514
     -3780.2034      -2945.6134         12.7504         11.2504
  -8241760.81246  -5992487.24346  22268487.7584   22268493.3594
      1338.8754       1043.2794         18.0004         15.7504
   2099991.85245   1755297.83945  24678638.9224   24678645.0274
     -1617.7504      -1260.5844          8.0004          7.2504
  -7272030.19248  -5566381.46147  20898140.3914   20898145.1024
     -1739.7664      -1355.6624         31.2504         29.7504
  -5189485.30547  -3941973.72346  21588019.2424   21588024.5514
     -2055.7814      -1601.9074         26.0004         21.7504
  24072572.38845   4413815.85045  23923696.1414   23923703.0124
     -4113.9694      -3205.6904          8.2504          6.5004
  -3287096.65845  -2472625.20845  23580042.7584   23580050.9184
       999.6884        778.9774         11.0004         10.0004
   7617905.92146   6047897.26746  22138379.0784   22138384.7034
     -3193.6254      -2488.5394         18.2504         17.2504
   -798751.00543   -505649.40245  24799740.6804   24799754.4774
      2015.7664       1570.7264          5.5004          6.7504
 01  7  2  0 16 30.0000000  0  9G14G20G30G25G11G21G 1G29G22
  14138156.74646  11135515.06945  23299764.3444   23299770.3324
     -3781.7344      -2946.8064         12.0004         11.0004
  -8281837.46446  -6023715.77046  22260861.4224   22260866.9884
      1333.3594       1038.9814         18.2504         15.5004
   2148795.90244   1793326.99345  24687925.8674   24687932.7384
     -1635.3754      -1274.3184          7.2504          7.0004
  -7219578.95348  -5525510.36547  20908121.4454   20908126.2974
     -1756.5004      -1368.7014         30.7504         29.5004
  -5127529.77947  -3893696.71746  21599809.1094   21599814.7934
     -2074.1254      -1616.2014         26.0004         21.0004
  24196121.59245   4510087.75745  23947207.8914   23947217.2584
     -4122.1874      -3212.0944          8.5004          7.0004
  -3317002.51045  -2495928.39545  23574351.8594   23574358.0824
       994.5164        774.9474         10.7504          9.7504
   7713770.29346   6122596.73646  22156621.6884   22156627.1484
     -3196.8754      -2491.0714         18.5004         17.5004
   -859268.11343   -552805.43645  24788224.3834   24788234.5824
      2019.1724       1573.3814          6.0004          6.2504
 01  7  2  0 17  0.0000000  0  9G14G20G30G25G11G21G 1G29G22
  14251646.91545  11223948.91245  23321360.4614   23321365.7234
     -3783.4064      -2948.1094         11.7504         11.0004
  -8321739.10246  -6054807.91446  22253268.3524   22253274.1294
      1327.6094       1034.5014         18.2504         15.5004
   2198137.17844   1831774.68345  24697315.1884   24697323.3244
     -1653.1874      -1288.1984          7.0004          7.0004
  -7166616.83748  -5484241.18847  20918199.7344   20918204.4694
     -1773.4224      -1381.8874         30.5004         29.7504
  -5065015.91247  -3844984.64146  21611705.1334   21611710.7234
     -2092.6094      -1630.6054         26.0004         21.5004
  24319926.37244   4606558.85745  23970764.5784   23970773.3244
     -4130.5784      -3218.6324          6.7504          7.2504
  -3346744.53045  -2519103.89945  23568691.7424   23568698.3984
       989.1564        770.7714         10.7504         10.0004
   7809740.38646   6197378.59746  22174884.3674   22174890.2504
     -3200.2664      -2493.7134         18.5004         17.2504
   -919877.56443   -600033.37745  24776691.0944   24776698.3984
      2022.2974       1575.8164          6.0004          5.5004
 01  7  2  0 17 30.0000000  0  9G14G20G30G25G11G21G 1G29G22
  14365185.25146  11312420.27545  23342967.2734   23342973.1804
     -3785.3594      -2949.6314         12.5004         11.2504
  -8361469.27246  -6085766.44346  22245707.9844   22245713.6214
      1321.5004       1029.7404         18.5004         16.0004
   2248010.76644   1870637.25445  24706805.9304   24706815.3444
     -1671.2664      -1302.2854          6.5004          6.5004
  -7113150.05848  -5442578.76547  20928374.3134   20928379.0474
     -1790.5784      -1395.2564         31.0004         29.5004
  -5001949.85647  -3795842.29046  21623706.2034   21623711.6174
     -2111.3594      -1645.2154         26.0004         21.5004
  24443980.71745   4703224.42345  23994373.6024   23994380.7894
     -4139.2504      -3225.3904          7.5004          6.7504
  -3376327.88145  -2542155.78345  23563062.4224   23563069.4104
       983.5004        766.3644         10.7504         10.2504
   7905810.21746   6272238.16446  22193165.5474   22193171.3014
     -3203.9224      -2496.5624         18.2504         16.7504
   -980581.40743   -647334.84545  24765139.2274   24765149.5904
      2025.0474       1577.9594          5.5004          5.7504
 01  7  2  0 18  0.0000000  0  9G14G20G30G25G11G21G 1G29G22
  14478761.44745  11400921.15145  23364579.5704   23364585.9104
     -3787.1094      -2950.9944         11.5004         10.7504
  -8401035.71346  -6116597.39546  22238178.8754   22238184.8284
      1315.5004       1025.0654         19.2504         16.0004
   2298407.14244   1909907.17145  24716396.9844   24716406.2114
     -1689.2344      -1316.2874          6.7504          6.2504
  -7059189.29948  -5400531.42347  20938642.7114   20938647.4924
     -1807.5314      -1408.4664         31.0004         29.5004
  -4938342.59047  -3746278.21546  21635810.3834   21635815.7624
     -2129.8754      -1659.6434         26.0004         21.2504
  24568274.65943   4800076.67345  24018024.1954   24018036.4224
     -4147.7194      -3231.9894          5.7504          6.5004
  -3405762.29045  -2565091.59945  23557460.6254   23557467.8014
       978.0474        762.1144         10.7504         10.5004
   8001969.47846   6347167.43446  22211464.4064   22211469.9614
     -3207.3914      -2499.2654         18.7504         17.0004
  -1041386.47543   -694715.24945  24753569.4064   24753579.6294
      2027.8594       1580.1504          5.7504          5.7504
 01  7  2  0 18 30.0000000  0  9G14G20G30G25G11G21G 1G29G22
  14592394.07245  11489466.00545  23386203.2584   23386209.0824
     -3787.4064      -2951.2264         11.7504         10.5004
  -8440417.06647  -6147284.13746  22230685.0784   22230690.8204
      1310.8914       1021.4734         20.0004         16.2504
   2349345.87244   1949599.59345  24726089.2424   24726093.3674
     -1705.7194      -1329.1314          6.5004          7.0004
  -7004716.57448  -5358085.14347  20949008.6094   20949013.4494
     -1823.0004      -1420.5194         31.0004         29.5004
  -4874175.97747  -3696278.29146  21648020.6334   21648026.0594
     -2146.9224      -1672.9264         25.7504         21.2504
  24692826.53045   4897129.86745  24041727.5944   24041737.7464
     -4154.7344      -3237.4554          8.0004          7.7504
  -3435028.51345  -2587896.35445  23551891.6174   23551899.2034
       974.0314        758.9854         10.5004         10.0004
   8098236.92446   6422180.99246  22229783.2974   22229788.5594
     -3209.4224      -2500.8484         18.5004         16.7504
  -1102271.00744   -742157.58845  24741982.5634   24741993.9694
      2032.0784       1583.4384          6.2504          6.5004
 01  7  2  0 19  0.0000000  0  9G14G20G30G25G11G21G 1G29G22
  14706057.26845  11578034.66545  23407832.5784   23407838.6374
     -3789.3754      -2952.7604         11.5004         10.2504
  -8479636.63146  -6177844.79346  22223221.7194   22223227.2974
      1304.5004       1016.4944         19.2504         16.5004
   2400802.11844   1989695.43545  24735881.0314   24735886.0004
     -1723.9374      -1343.3284          6.7504          6.5004
  -6949758.29848  -5315260.51547  20959466.5864   20959471.6254
     -1840.1414      -1433.8764         30.5004         29.2504
  -4809476.56747  -3645863.20046  21660332.6954   21660338.2034
     -2165.6094      -1687.4884         26.0004         21.2504
  24817609.87045   4994363.49445  24065473.4384   24065483.5204
     -4163.4224      -3244.2254          7.7504          7.0004
  -3464151.95145  -2610589.88845  23546349.7974   23546356.4414
       968.2974        754.5174         10.0004         10.5004
   8194586.57646   6497258.61446  22248117.9454   22248123.2894
     -3213.0944      -2503.7094         18.2504         16.7504
  -1163257.93243   -789679.76045  24730376.7424   24730384.4454
      2034.4384       1585.2764          5.7504          6.5004
 01  7  2  0 19 30.0000000  0  9G14G20G30G25G11G21G 1G29G22
  14819756.52145  11666631.42645  23429468.3364   23429474.2664
     -3790.2664      -2953.4544         11.0004         10.7504
  -8518686.43246  -6208273.17946  22215790.6564   22215796.4454
      1299.1094       1012.2934         19.5004         16.7504
   2452781.89543   2030199.12145  24745771.1094   24745776.9344
     -1741.0944      -1356.6964          5.0004          5.5004
  -6894308.44548  -5272052.84347  20970018.5164   20970023.2854
     -1856.2034      -1446.3924         31.0004         29.2504
  -4744239.38347  -3595029.05746  21672747.1094   21672752.3714
     -2183.2194      -1701.2094         26.0004         21.2504
  24942630.36145   5091781.93345  24089263.1334   24089270.0514
     -4171.0004      -3250.1304          7.5004          6.5004
  -3493126.47745  -2633167.35845  23540836.1334   23540843.2854
       963.6254        750.8774         10.2504         10.7504
   8291024.07246   6572404.68146  22266469.6414   22266475.1844
     -3215.7504      -2505.7794         18.2504         16.5004
  -1224337.79443   -837274.24945  24718752.9924   24718766.7194
      2037.8134       1587.9064          5.2504          6.0004
 01  7  2  0 20  0.0000000  0  9G14G20G30G25G11G21G 1G29G22
  14933529.66045  11755285.74845  23451119.8054   23451125.6994
     -3793.9534      -2956.3274         11.2504          9.7504
  -8557525.84546  -6238537.62146  22208399.5164   22208405.5274
      1290.8284       1005.8404         19.2504         16.7504
   2505324.19644   2071141.17145  24755771.4144   24755779.3634
     -1761.0784      -1372.2694          6.7504          6.5004
  -6838330.09048  -5228433.35047  20980670.6724   20980675.4534
     -1875.0314      -1461.0634         30.7504         29.0004
  -4678426.72547  -3543746.50446  21685270.7584   21685276.5594
     -2203.6254      -1717.1104         26.0004         21.2504
  25067925.55744   5189414.39045  24113105.6644   24113114.1294
     -4181.3594      -3258.2024          7.2504          7.2504
  -3521913.55345  -2655598.77145  23535357.5474   23535364.7584
       956.1414        745.0454          9.7504         10.5004
   8387587.50646   6647648.87146  22284845.0004   22284850.2734
     -3221.1724      -2510.0044         18.0004         16.5004
  -1285468.77644   -884908.61145  24707120.6094   24707131.2194
      2038.2344       1588.2354          7.0004          6.7504
 01  7  2  0 20 30.0000000  0  9G14G20G30G25G11G21G 1G29G22
  15047361.80145  11843986.04945  23472780.6564   23472785.8134
     -3794.6254      -2956.8514         11.5004         10.2504
  -8596167.58046  -6268648.03446  22201046.4694   22201052.3054
      1285.5004       1001.6884         19.2504         16.7504
   2558414.57644   2112510.29545  24765873.7734   24765881.8404
     -1778.0624      -1385.5034          6.5004          6.5004
  -6781838.91648  -5184414.25347  20991420.7974   20991425.6254
     -1890.8124      -1473.3604         30.7504         29.2504
  -4612054.70147  -3492028.07746  21697901.0704   21697906.5904
     -2220.9534      -1730.6134         26.0004         21.2504
  25193480.03544   5287248.86245  24136998.8594   24137007.7584
     -4188.6874      -3263.9124          7.2504          7.7504
  -3550527.91445  -2677895.59545  23529912.7734   23529921.1094
       951.7034        741.5874          9.7504         10.2504
   8484261.64746   6722979.35246  22303241.0634   22303246.8164
     -3223.5474      -2511.8554         17.7504         16.2504
  -1346662.80545   -932592.17945  24695476.4774   24695485.1764
      2041.6094       1590.8644          7.7504          7.2504
 01  7  2  0 21  0.0010000  0  9G14G20G30G25G11G21G 1G29G22
  15161241.44145  11932723.37945  23494451.6224   23494457.1534
     -3796.5004      -2958.3124         11.0004         10.0004
  -8634625.44446  -6298615.15446  22193728.4194   22193734.0324
      1278.8594        996.5144         19.5004         17.0004
   2612040.25843   2154296.46645  24776077.4504   24776081.9744
     -1796.2974      -1399.7124          6.0004          5.7504
  -6724848.70948  -5140006.30547  21002265.4744   21002270.2434
     -1907.8124      -1486.6074         30.5004         29.2504
  -4545136.83147  -3439884.31946  21710634.9974   21710640.3884
     -2239.4844      -1745.0534         26.0004         21.5004
  25319282.69543   5385276.75245  24160937.8174   24160947.5484
     -4197.2664      -3270.5974          5.7504          6.5004
  -3578985.03645  -2700069.87645  23524497.7714   23524504.0284
       945.9694        737.1194          9.5004         10.2504
   8581034.49646   6798386.72746  22321656.8964   22321662.4624
     -3227.1564      -2514.6674         18.0004         16.0004
  -1407934.23944   -980335.99045  24683816.2864   24683828.3374
      2043.6254       1592.4354          6.5004          6.5004
 01  7  2  0 21 30.0010000  0  9G14G20G30G25G11G21G 1G29G22
  15275157.01945  12021488.70045  23516129.3024   23516135.4074
     -3797.8594      -2959.3714         11.5004         10.0004
  -8672898.35546  -6328438.16346  22186445.0214   22186450.9504
      1272.6724        991.6924         19.5004         17.0004
   2666194.27343   2196494.39845  24786382.3024   24786391.1534
     -1814.0004      -1413.5064          5.5004          6.7504
  -6667367.59348  -5095215.82747  21013203.7554   21013208.5364
     -1924.2504      -1499.4164         30.5004         29.2504
  -4477682.22547  -3387322.32046  21723471.3334   21723476.8414
     -2257.4694      -1759.0674         26.0004         21.2504
  25445321.35344   5483488.48345  24184922.7394   24184931.0404
     -4205.2814      -3276.8434          7.0004          7.0004
  -3607286.37045  -2722122.78545  23519111.2084   23519118.4314
       940.7974        733.0884          9.0004          9.7504
   8677895.76946   6873863.00346  22340088.9584   22340094.1734
     -3230.2504      -2517.0784         17.7504         16.0004
  -1469279.37343  -1028137.14445  24672142.0834   24672148.7634
      2046.0634       1594.3344          6.0004          6.0004
 01  7  2  0 22  0.0010000  0  9G14G20G30G25G11G21G 1G29G22
  15389125.11245  12110294.94245  23537816.3964   23537822.2674
     -3799.1094      -2960.3454         10.7504         10.2504
  -8710972.17946  -6358106.03846  22179199.6304   22179205.4894
      1266.4844        986.8714         19.5004         17.0004
   2720891.85343   2239115.84945  24796791.0834   24796802.5014
     -1831.6254      -1427.2404          5.7504          6.7504
  -6609381.59948  -5050031.94147  21024238.2944   21024243.2044
     -1940.5784      -1512.1394         30.7504         29.2504
  -4409676.66847  -3334331.01046  21736412.3414   21736418.0714
     -2275.3124      -1772.9714         26.0004         21.2504
  25571612.16644   5581896.71245  24208954.7634   24208968.6184
     -4213.1564      -3282.9794          6.5004          7.0004
  -3635419.75345  -2744044.83145  23513757.9034   23513764.9854
       935.6884        729.1074          8.7504         10.0004
   8774861.36546   6949420.58146  22358541.1144   22358546.5874
     -3233.2194      -2519.3914         18.0004         16.0004
  -1530683.67844  -1075984.54645  24660457.5364   24660466.6464
      2048.4534       1596.1974          7.2504          6.5004
 01  7  2  0 22 30.0010000  0  9G14G20G30G25G11G21G 1G29G22
  15503111.89945  12199115.74945  23559507.5754   23559513.1774
     -3799.7974      -2960.8814         11.5004         10.2504
  -8748878.19646  -6387643.14946  22171986.0834   22171991.6854
      1260.8134        982.4514         19.7504         17.2504
   2776099.94145   2282135.11045  24807299.3964   24807305.4424
     -1848.6724      -1440.5244          7.7504          7.2504
  -6550925.27448  -5004481.55847  21035361.9354   21035366.6814
     -1956.2974      -1524.3874         30.2504         29.0004
  -4341154.62447  -3280937.25446  21749451.6064   21749457.1264
     -2292.5784      -1786.4254         25.5004         21.0004
  25698120.68445   5680474.61745  24233029.5444   24233037.8564
     -4220.5164      -3288.7134          8.0004          8.0004
  -3663418.20745  -2765861.70845  23508429.7864   23508436.3024
       931.1254        725.5524          8.7504          9.5004
   8871897.70646   7025033.26746  22377006.0444   22377011.5754
     -3235.6414      -2521.2784         17.0004         15.7504
  -1592177.16545  -1123901.38945  24648755.4744   24648764.4074
      2051.3134       1598.4254          7.7504          7.5004
 01  7  2  0 23  0.0010000  0  9G14G20G30G25G11G21G 1G29G22
  15617127.41745  12287958.94545  23581204.1614   23581209.9854
     -3801.2034      -2961.9764         11.2504         10.2504
  -8786604.08447  -6417039.90746  22164807.1614   22164813.1384
      1254.2974        977.3744         20.0004         17.2504
   2831828.78944   2325560.15845  24817902.4974   24817911.3134
     -1866.5164      -1454.4284          6.5004          7.0004
  -6491989.17048  -4958557.32247  21046577.2474   21046582.1224
     -1972.7344      -1537.1964         30.5004         29.0004
  -4272107.03947  -3227133.97646  21762590.9894   21762596.7784
     -2310.5314      -1800.4144         25.5004         21.0004
  25824857.26344   5779230.21945  24257146.1614   24257154.1694
     -4228.5474      -3294.9724          7.0004          6.7504
  -3691271.58045  -2787565.57145  23503129.2474   23503136.1774
       925.8284        721.4254          8.2504         10.2504
   8969014.44746   7100708.61046  22395487.0054   22395492.9464
     -3238.7504      -2523.7014         17.5004         15.7504
  -1653747.06645  -1171877.79345  24637039.1924   24637049.3104
      2053.3914       1600.0454          7.5004          8.2504
 01  7  2  0 23 30.0010000  0  9G14G20G30G25G11G21G 1G29G22
  15731198.86645  12376845.71445  23602911.3564   23602917.5214
     -3804.2034      -2964.3144         11.5004         10.0004
  -8824119.61447  -6446272.75246  22157668.3104   22157674.2514
      1246.1094        970.9944         20.5004         17.7504
   2888106.71044   2369413.03545  24828611.5754   24828617.4584
     -1885.9694      -1469.5864          6.5004          6.0004
  -6432546.16248  -4912238.10547  21057889.0284   21057893.8564
     -1990.7344      -1551.2224         30.7504         29.0004
  -4202507.37847  -3172900.51246  21775835.3884   21775840.8494
     -2330.0624      -1815.6334         25.5004         21.2504
  25951848.50545   5878184.22645  24281312.9034   24281324.1694
     -4238.1874      -3302.4844          7.5004          6.7504
  -3718951.82745  -2809134.50445  23497862.4584   23497869.2674
       918.8914        716.0194          8.7504          9.7504
   9066239.25746   7176468.17746  22413988.0364   22413993.8964
     -3243.5314      -2527.4274         16.7504         15.7504
  -1715362.90743  -1219889.96945  24625314.0134   24625326.4274
      2053.7034       1600.2884          6.0004          7.0004
 01  7  2  0 24  0.0010000  0  9G14G20G30G25G11G21G 1G29G22
  15845330.52245  12465779.39945  23624629.7714   23624636.7124
     -3804.0474      -2964.1924         10.7504          9.5004
  -8861418.34947  -6475336.66146  22150570.7864   22150576.6224
      1240.9844        967.0014         21.0004         17.7504
   2944937.99145   2413697.11945  24839428.1144   24839435.8064
     -1902.2814      -1482.2974          8.0004          7.0004
  -6372593.28648  -4865521.57747  21069297.5054   21069302.3564
     -2005.5784      -1562.7884         30.7504         29.0004
  -4132352.17547  -3118234.15546  21789185.6224   21789191.2594
     -2346.4224      -1828.3814         25.2504         20.7504
  26079098.78744   5977340.14745  24305528.2634   24305540.5244
     -4244.6564      -3307.5244          6.7504          6.2504
  -3746454.34845  -2830564.93945  23492628.4354   23492636.3254
       915.1254        713.0844          8.7504          9.5004
   9163576.36346   7252315.23446  22432511.4744   22432517.2634
     -3245.0944      -2528.6444         17.5004         15.7504
  -1777016.72542  -1267931.64645  24613579.6384   24613592.9894
      2057.0474       1602.8944          4.5004          6.2504
 01  7  2  0 24 30.0010000  0  9G14G20G30G25G11G21G 1G29G22
  15959518.87345  12554757.25445  23646359.8024   23646366.4464
     -3807.3754      -2966.7864         11.5004          9.7504
  -8898500.98747  -6504232.17946  22143514.3494   22143519.8334
      1232.3134        960.2444         20.7504         17.5004
   3002319.87344   2458410.28745  24850346.3334   24850353.2984
     -1922.0784      -1497.7234          6.5004          6.0004
  -6312134.83948  -4818411.10547  21080802.1534   21080807.0524
     -2023.8594      -1577.0334         30.5004         29.0004
  -4061645.70547  -3063138.24846  21802640.4034   21802645.7124
     -2366.2194      -1843.8074         25.5004         21.0004
  26206603.99645   6076694.69545  24329791.9354   24329803.6574
     -4254.5624      -3315.2444          7.5004          6.5004
  -3773782.10245  -2851859.19845  23487427.9194   23487434.3994
       907.8594        707.4234          9.0004         10.0004
   9261022.19646   7328247.01746  22451054.3724   22451059.9384
     -3250.1564      -2532.5894         17.2504         15.7504
  -1838707.90345  -1316002.59345  24601841.0054   24601849.5874
      2056.7974       1602.6994          7.5004          6.7504
 01  7  2  0 25  0.0010000  0  9G14G20G30G25G11G21G 1G29G22
  16073778.96745  12643791.04945  23668101.2784   23668107.4894
     -3809.7974      -2968.6734         10.0004          9.5004
  -8935350.04947  -6532945.70046  22136501.7394   22136507.2124
      1224.4384        954.1074         20.5004         17.7504
   3060268.00544   2503564.68945  24861373.4114   24861382.8844
     -1940.9844      -1512.4554          6.7504          7.2504
  -6251156.18548  -4770895.27347  21092406.1464   21092411.0094
     -2041.2344      -1590.5724         30.5004         29.0004
  -3990373.94947  -3007601.84946  21816203.0604   21816209.0364
     -2385.0784      -1858.5024         25.5004         20.5004
  26334378.75343   6176259.24445  24354104.8884   24354114.9814
     -4263.5784      -3322.2694          5.7504          6.2504
  -3800919.55345  -2873005.18645  23482263.9894   23482271.1184
       901.4534        702.4314          9.0004          9.7504
   9358591.88846   7404275.29646  22469621.9354   22469627.3724
     -3254.3284      -2535.8404         17.5004         15.7504
  -1900418.14945  -1364088.38645  24590099.3334   24590110.1654
      2057.3444       1603.1254          8.7504          7.0004
 01  7  2  0 25 30.0010000  0  9G14G20G30G25G11G21G 1G29G22
  16188087.19145  12732862.31645  23689854.9584   23689860.7124
     -3810.0164      -2968.8434         10.7504          9.0004
  -8971986.30247  -6561493.37746  22129530.4974   22129536.3684
      1218.6884        949.6274         20.5004         17.7504
   3118759.16345   2549142.20545  24872505.6304   24872514.0364
     -1957.7034      -1525.4834          7.5004          6.5004
  -6189681.34548  -4722992.81047  21104104.4194   21104109.3174
     -2056.3594      -1602.3584         30.2504         28.7504
  -3918561.47447  -2951644.11846  21829868.4274   21829873.7594
     -2401.6874      -1871.4454         25.5004         21.0004
  26462398.87444   6276014.99245  24378467.1064   24378476.7674
     -4270.3594      -3327.5534          6.5004          6.5004
  -3827889.82445  -2894020.89445  23477131.3564   23477137.1814
       897.2664        699.1684          9.2504          9.5004
   9456261.88046   7480381.74146  22488206.9894   22488212.6964
     -3256.2664      -2537.3504         16.5004         15.2504
  -1962168.11143  -1412205.12145  24578347.7474   24578357.9814
      2060.0164       1605.2074          6.0004          6.5004
 01  7  2  0 26  0.0010000  0  9G14G20G30G25G11G21G 1G29G22
  16302376.68145  12821918.99545  23711602.2634   23711608.9194
     -3810.1414      -2968.9414         10.0004          9.7504
  -9008474.45747  -6589925.66046  22122586.4894   22122592.3374
      1212.9844        945.1834         20.2504         17.7504
   3177726.62844   2595090.83645  24883725.2864   24883732.2514
     -1974.3124      -1538.4254          6.5004          6.5004
  -6127778.35748  -4674756.72147  21115884.1534   21115888.9234
     -2071.3444      -1614.0344         30.5004         28.7504
  -3846276.33247  -2895318.06846  21843624.0994   21843629.8644
     -2418.1724      -1884.2904         25.5004         20.7504
  26590597.10244   6375909.56445  24402863.5214   24402870.3924
     -4277.0314      -3332.7524          7.0004          6.2504
  -3854759.50545  -2914958.19445  23472018.2944   23472025.9274
       893.1884        695.9904          9.5004         10.0004
   9553965.19246   7556514.14546  22506799.2394   22506805.3104
     -3258.1254      -2538.7994         16.2504         15.0004
  -2024021.49243  -1460402.29345  24566577.4974   24566588.2244
      2062.6884       1607.2894          5.2504          6.2504
 01  7  2  0 26 30.0010000  0  9G14G20G30G25G11G21G 1G29G22
  16416695.21045  12910998.28345  23733357.5444   23733363.7434
     -3811.5164      -2970.0124         10.7504          9.5004
  -9044764.24247  -6618203.37946  22115681.0364   22115686.9424
      1205.9224        939.6794         20.7504         18.0004
   3237218.45044   2641448.02945  24895046.7314   24895054.5524
     -1992.2344      -1552.3904          7.2504          6.5004
  -6065400.45648  -4626150.56847  21127754.3884   21127759.1104
     -2087.5784      -1626.6844         30.2504         29.0004
  -3773471.51847  -2838587.08446  21857478.3254   21857484.1264
     -2435.8914      -1898.0974         25.2504         20.7504
  26719021.06044   6475979.95145  24427300.8564   24427315.6494
     -4284.9534      -3338.9254          6.7504          6.7504
  -3881480.58845  -2935779.75545  23466933.7164   23466941.9704
       887.7974        691.7904         10.0004         10.0004
   9651749.49746   7632709.66446  22525407.4504   22525412.8644
     -3261.2344      -2541.2224         17.0004         15.2504
  -2085926.55645  -1508639.81545  24554797.3804   24554806.7124
      2063.9064       1608.2394          7.7504          7.2504
 01  7  2  0 27  0.0010000  0  9G14G20G30G25G11G21G 1G29G22
  16531079.73045  13000128.98545  23755123.7244   23755130.1574
     -3812.5784      -2970.8404         10.7504          9.5004
  -9080815.82147  -6646295.47346  22108820.5834   22108826.3494
      1199.0784        934.3474         21.2504         18.2504
   3297272.32644   2688243.25845  24906474.3564   24906482.7864
     -2009.8284      -1566.1004          6.7504          7.2504
  -6002511.04048  -4577145.82847  21139721.7944   21139726.6104
     -2103.4844      -1639.0794         30.2504         28.7504
  -3700110.96147  -2781423.05646  21871438.3494   21871444.1144
     -2453.2504      -1911.6234         25.2504         20.7504
  26847706.87544   6576254.42645  24451789.9424   24451799.4744
     -4292.5314      -3344.8304          7.2504          6.7504
  -3908015.37145  -2956456.12645  23461884.1384   23461890.6064
       882.7344        687.8454         10.5004         10.2504
   9749652.01146   7708997.30646  22544037.6304   22544043.1964
     -3264.0314      -2543.4014         16.5004         15.0004
  -2147842.38745  -1556885.80345  24543014.6924   24543024.1654
      2065.3594       1609.3714          8.2504          6.7504
 01  7  2  0 27 30.0010000  0  9G14G20G30G25G11G21G 1G29G22
  16645489.72145  13089279.57245  23776895.4814   23776900.1104
     -3815.3594      -2973.0074         11.0004         10.0004
  -9116667.41247  -6674231.74046  22101998.0754   22102003.9934
      1190.4224        927.6014         21.5004         18.5004
   3357847.67344   2735444.80545  24918001.3414   24918010.9194
     -2029.1564      -1581.1614          6.2504          6.7504
  -5939151.53148  -4527774.78547  21151778.5834   21151783.4704
     -2121.0784      -1652.7884         30.2504         29.0004
  -3626236.38647  -2723858.49246  21885496.4274   21885502.2514
     -2472.3124      -1926.4774         25.5004         21.0004
  26976613.69944   6676701.11845  24476319.3104   24476332.0404
     -4301.8444      -3352.0864          6.5004          6.7504
  -3934404.08845  -2977018.66045  23456862.7474   23456870.4154
       875.9384        682.5494         10.7504         10.2504
   9847632.09546   7785345.38946  22562682.2394   22562688.2164
     -3268.5784      -2546.9444         16.0004         15.0004
  -2209806.59243  -1605169.52445  24531222.5604   24531236.8374
      2064.9844       1609.0794          5.5004          6.5004
 01  7  2  0 28  0.0010000  0  9G14G20G30G25G11G21G 1G29G22
  16759950.49145  13178469.69145  23798676.8884   23798682.7124
     -3816.2344      -2973.6894         10.7504          9.7504
  -9152290.92647  -6701990.28446  22095218.8804   22095224.5174
      1183.6254        922.3054         21.2504         18.5004
   3418970.57444   2783073.02645  24929632.2864   24929640.9744
     -2046.5784      -1594.7364          6.2504          6.2504
  -5875297.42648  -4478018.34347  21163929.7084   21163934.6304
     -2136.7194      -1664.9764         30.2504         28.7504
  -3551823.34647  -2665874.33846  21899656.5914   21899662.0874
     -2489.4064      -1939.7974         25.5004         20.7504
  27105766.49844   6777339.55445  24500896.1464   24500908.6884
     -4309.2034      -3357.8214          6.5004          7.0004
  -3960620.74645  -2997447.17445  23451873.5754   23451879.9154
       871.0164        678.7134         11.2504         10.5004
   9945715.21046   7861773.74146  22581347.2164   22581352.8174
     -3271.1724      -2548.9654         16.2504         14.7504
  -2271790.74843  -1653468.59245  24519427.4744   24519438.6344
      2066.4224       1610.1994          5.5004          6.2504
 01  7  2  0 28 30.0010000  0  9G14G20G30G25G11G21G 1G29G22
  16874456.84445  13267695.36545  23820466.9974   23820472.5054
     -3817.1874      -2974.4324         11.0004          9.5004
  -9187689.24147  -6729573.34346  22088483.3564   22088488.8064
      1176.6094        916.8384         21.7504         18.7504
   3480635.73343   2831123.67845  24941365.9034   24941372.0094
     -2064.0944      -1608.3854          6.0004          5.7504
  -5810954.82148  -4427881.25047  21176173.8724   21176178.7004
     -2152.4374      -1677.2244         30.5004         28.7504
  -3476878.30147  -2607475.64546  21913918.3174   21913924.0954
     -2506.5944      -1953.1904         25.0004         20.5004
  27235159.29743   6878164.83445  24525519.8254   24525530.1774
     -4316.6414      -3363.6164          6.0004          6.0004
  -3986670.18445  -3017745.35945  23446916.6384   23446923.1534
       865.9694        674.7814         11.7504         10.2504
  10043896.25446   7938278.40346  22600030.4584   22600036.1304
     -3273.8914      -2551.0844         15.7504         14.7504
  -2333796.17245  -1701784.31445  24507629.0214   24507639.9114
      2067.6254       1611.1364          7.7504          8.0004
 01  7  2  0 29  0.0010000  0  9G14G20G30G25G11G21G 1G29G22
  16988983.73845  13356937.06345  23842258.5914   23842266.2594
     -3818.1094      -2975.1504          8.7504          9.2504
  -9222884.88347  -6756998.48846  22081785.5524   22081791.0244
      1169.5784        911.3604         21.7504         19.2504
   3542818.12243   2879577.53545  24953199.3414   24953209.2714
     -2081.6094      -1622.0334          6.0004          6.5004
  -5746149.50748  -4377383.61247  21188505.7004   21188510.5284
     -2168.0944      -1689.4244         30.2504         28.7504
  -3401427.45847  -2548682.81746  21928276.2944   21928282.1064
     -2523.6414      -1966.4734         25.0004         20.5004
  27364766.82644   6979157.50645  24550183.3334   24550193.9074
     -4324.0474      -3369.3874          6.2504          5.7504
  -4012577.38146  -3037932.71245  23441986.7784   23441992.9894
       860.9844        670.8974         12.2504         10.5004
  10142149.99546   8014839.71246  22618727.4424   22618732.8684
     -3276.5314      -2553.1414         16.0004         14.7504
  -2395844.27745  -1750133.28945  24495821.0754   24495831.2514
      2068.7344       1612.0014          7.5004          8.0004
 01  7  2  0 29 30.0010000  0  9G14G20G30G25G11G21G 1G29G22
  17103528.02645  13446192.25345  23864057.0994   23864063.0174
     -3818.9844      -2975.8324         10.0004          9.0004
  -9257878.29247  -6784266.04846  22075126.8884   22075132.4314
      1162.4844        905.8324         22.0004         19.0004
   3605515.14243   2928432.33545  24965129.4424   24965137.8134
     -2099.0314      -1635.6094          5.7504          6.5004
  -5680885.67448  -4326528.68047  21200925.0444   21200929.8374
     -2183.6564      -1701.5504         30.5004         28.5004
  -3325475.13247  -2489499.23046  21942729.4114   21942735.3994
     -2540.6564      -1979.7324         25.0004         20.5004
  27494585.75743   7080314.98445  24574886.6614   24574896.8844
     -4331.3914      -3375.1104          6.0004          6.0004
  -4038345.07846  -3058011.36145  23437083.0444   23437089.3134
       856.0314        667.0374         12.5004         10.5004
  10240473.27546   8091455.21746  22637438.4194   22637444.1034
     -3279.1564      -2555.1874         16.2504         14.7504
  -2457934.65243  -1798515.26245  24484005.6064   24484015.5014
      2069.8134       1612.8414          6.0004          6.2504
 01  7  2  0 30  0.0010000  0  9G14G20G30G25G11G21G 1G29G22
  17218115.20345  13535480.85945  23885863.1534   23885867.5714
     -3819.7194      -2976.4044         10.5004          9.2504
  -9292641.34147  -6811354.10346  22068511.1464   22068516.9464
      1155.4844        900.3774         21.2504         18.7504
   3668752.31344   2977707.95445  24977164.2784   24977174.5244
     -2116.3444      -1649.0994          6.5004          6.2504
  -5615138.85748  -4275297.40047  21213436.3644   21213441.2634
     -2199.0314      -1713.5314         30.5004         28.5004
  -3248996.87847  -2429905.83346  21957282.9744   21957288.6814
     -2557.4534      -1992.8214         25.2504         20.5004
  27624640.47044   7181656.09345  24599636.4504   24599644.6924
     -4338.5164      -3380.6624          7.2504          6.7504
  -4063947.21346  -3077960.97945  23432210.8414   23432216.6884
       851.2034        663.2754         13.0004         10.7504
  10338891.77946   8168144.91046  22656166.3174   22656171.9194
     -3281.6254      -2557.1104         16.0004         14.5004
  -2520038.86943  -1846907.92245  24472186.9894   24472198.0094
      2070.9064       1613.6934          6.0004          5.5004
 01  7  2  0 30 30.0010000  0  9G14G20G30G25G11G21G 1G29G22
  17332752.24445  13624808.39445  23907677.2394   23907684.0014
     -3823.0164      -2978.9734          9.7504          9.2504
  -9327164.59447  -6838255.29346  22061941.8254   22061947.5914
      1145.7974        892.8294         21.7504         18.7504
   3732536.93244   3027410.24645  24989302.7554   24989308.7904
     -2136.2344      -1664.5984          7.0004          6.7504
  -5548902.80548  -4223684.89747  21226040.6774   21226045.5524
     -2216.9694      -1727.5084         30.5004         28.7504
  -3171986.77147  -2369897.99446  21971937.5524   21971943.2594
     -2576.8124      -2007.9064         25.0004         20.5004
  27754938.05144   7283186.57845  24624430.7864   24624442.5914
     -4348.2344      -3388.2354          6.5004          5.7504
  -4089376.08346  -3097775.59745  23427371.8884   23427378.2984
       843.7974        657.5044         13.0004         11.0004
  10437412.70446   8244914.42546  22674914.5054   22674919.9664
     -3286.6874      -2561.0554         16.2504         15.0004
  -2582146.35245  -1895303.13245  24460369.0284   24460378.4314
      2069.3284       1612.4634          8.2504          8.0004
 01  7  2  0 31  0.0010000  0  9G14G20G30G25G11G21G 1G29G22
  17447439.70245  13714175.15845  23929501.0524   23929506.8294
     -3823.0004      -2978.9614          9.7504          8.5004
  -9361445.08247  -6864967.32946  22055418.3724   22055424.1144
      1139.3914        887.8374         21.7504         19.0004
   3796869.32344   3077539.34645  25001543.8494   25001551.8334
     -2152.7664      -1677.4804          6.7504          6.2504
  -5482177.94748  -4171691.50847  21238737.9814   21238742.7164
     -2231.5164      -1738.8434         30.5004         28.7504
  -3094445.71947  -2309476.44646  21986692.7084   21986698.4504
     -2592.7664      -2020.3374         24.5004         20.0004
  27885477.79944   7384905.60045  24649272.1614   24649280.0174
     -4354.5784      -3393.1784          6.5004          5.7504
  -4114631.26546  -3117454.88245  23422565.7784   23422573.6464
       839.7194        654.3264         13.0004         11.2504
  10536036.26046   8321763.89846  22693682.1774   22693688.3174
     -3288.3754      -2562.3704         15.7504         14.5004
  -2644252.78845  -1943697.55145  24448550.2944   24448562.9894
      2070.9224       1613.7054          8.0004          8.5004
 01  7  2  0 31 30.0010000  0  9G14G20G30G25G11G21G 1G29G22
  17562152.09045  13803561.39345  23951331.3024   23951337.6184
     -3823.7344      -2979.5334         10.5004          9.5004
  -9395505.84647  -6891508.14346  22048936.8644   22048942.7594
      1132.1094        882.1634         22.2504         19.2504
   3861724.25244   3128075.64945  25013887.1064   25013897.0834
     -2170.0944      -1690.9824          7.0004          5.7504
  -5414991.10048  -4119338.12247  21251523.1064   21251527.8994
     -2246.8124      -1750.7634         30.2504         28.2504
  -3016400.59547  -2248662.10446  22001544.4894   22001550.2314
     -2609.4534      -2033.3404         24.0004         20.0004
  28016233.73645   7486793.18145  24674154.9424   24674162.5634
     -4361.7034      -3398.7304          7.5004          7.2504
  -4139737.96746  -3137018.48945  23417788.3254   23417794.0564
       834.8594        650.5404         13.0004         10.5004
  10634737.02746   8398673.54346  22712464.1224   22712469.9814
     -3290.8914      -2564.3304         15.2504         14.2504
  -2706380.16044  -1992108.18945  24436726.6464   24436736.2714
      2071.6564       1614.2784          6.5004          7.2504
 01  7  2  0 32  0.0010000  0  9G14G20G30G25G11G21G 1G29G22
  17676895.92745  13892972.14645  23973166.2164   23973171.9464
     -3825.1724      -2980.6534         10.2504          9.0004
  -9429337.60147  -6917870.51946  22042498.6924   22042503.9194
      1124.0314        875.8694         22.2504         19.5004
   3927107.91844   3179023.91045  25026327.0674   25026334.3964
     -2188.1254      -1705.0324          6.5004          6.5004
  -5347336.51148  -4066620.26347  21264397.5994   21264402.4154
     -2262.7814      -1763.2064         30.5004         28.5004
  -2937846.07747  -2187450.84146  22016492.9974   22016498.6344
     -2626.8124      -2046.8674         24.5004         20.2504
  28147212.15444   7588854.09245  24699078.8884   24699088.8534
     -4369.4844      -3404.7934          6.5004          6.5004
  -4164689.35246  -3156461.02945  23413040.3804   23413048.2944
       829.2664        646.1814         13.0004         10.0004
  10733521.46746   8475648.38146  22731261.4194   22731267.1144
     -3294.0944      -2566.8264         15.0004         14.5004
  -2768518.55343  -2040527.51245  24424901.8644   24424910.3764
      2071.5784       1614.2174          6.0004          6.2504
 01  7  2  0 32 30.0010000  0  9G14G20G30G25G11G21G 1G29G22
  17791677.12845  13982411.95445  23995007.7634   23995013.9854
     -3827.2034      -2982.2364          9.7504          9.0004
  -9462931.63647  -6944047.64946  22036105.7474   22036111.5014
      1115.2974        869.0634         22.2504         19.5004
   3993027.01044   3230389.45145  25038872.5674   25038878.7674
     -2206.7344      -1719.5334          6.5004          6.2504
  -5279209.13348  -4013534.00347  21277361.7864   21277366.7314
     -2279.3124      -1776.0884         30.2504         28.2504
  -2858777.17047  -2125838.74746  22031539.0054   22031544.8994
     -2644.7034      -2060.8084         24.2504         20.0004
  28278418.28944   7691092.44945  24724046.8104   24724058.8964
     -4377.8444      -3411.3074          6.7504          6.7504
  -4189478.82846  -3175777.40645  23408322.6534   23408329.1104
       823.0944        641.3724         12.7504         10.5004
  10832396.13646   8552693.53746  22750076.9114   22750082.4074
     -3297.8594      -2569.7614         14.7504         13.7504
  -2830658.74044  -2088948.30845  24413077.8724   24413086.3024
      2070.7974       1613.6084          7.2504          7.0004
 01  7  2  0 33  0.0010000  0  9G14G20G30G25G11G21G 1G29G22
  17906485.20845  14071872.77445  24016854.7314   24016862.6344
     -3827.3124      -2982.3214          9.2504          8.5004
  -9496296.44447  -6970046.15946  22029756.6614   22029762.5324
      1108.3914        863.6814         22.7504         19.7504
   4059470.33844   3282163.41645  25051515.6614   25051522.5054
     -2223.4534      -1732.5614          6.5004          7.0004
  -5210620.28448  -3960088.15047  21290413.6144   21290418.4074
     -2293.8914      -1787.4474         30.5004         28.5004
  -2779206.19347  -2063835.44046  22046680.9354   22046686.6304
     -2660.6564      -2073.2394         23.7504         20.0004
  28409840.73544   7793499.38145  24749056.2004   24749068.3214
     -4384.2664      -3416.3114          6.7504          6.0004
  -4214116.73746  -3194975.69645  23403634.5444   23403640.5444
       818.8134        638.0364         12.5004          9.7504
  10931349.96546   8629800.36846  22768907.0914   22768912.7984
     -3299.6874      -2571.1854         14.7504         14.0004
  -2892807.90745  -2137375.92145  24401251.3494   24401262.3684
      2071.8284       1614.4124          7.5004          8.0004
 01  7  2  0 33 30.0010000  0  9G14G20G30G25G11G21G 1G29G22
  18021318.05645  14161352.80345  24038707.4034   24038713.3334
     -3828.1724      -2982.9914          9.7504          9.2504
  -9529431.30247  -6995865.49446  22023451.4504   22023456.5134
      1100.6414        857.6424         23.2504         20.0004
   4126435.96644   3334344.38745  25064259.2244   25064264.0874
     -2240.8914      -1746.1494          6.2504          6.2504
  -5141573.59748  -3906285.54147  21303552.8174   21303557.8104
     -2309.1874      -1799.3674         30.0004         28.2504
  -2699136.49347  -2001443.52046  22061918.1464   22061923.9584
     -2677.2814      -2086.1934         23.7504         19.7504
  28541477.09343   7896072.90645  24774104.5364   24774111.7004
     -4391.4224      -3421.8874          5.7504          6.0004
  -4238604.94846  -3214057.31645  23398974.4034   23398980.4974
       813.7814        634.1154         12.5004         10.0004
  11030380.99546   8706967.36046  22787753.2004   22787758.8604
     -3302.3124      -2573.2314         15.7504         14.2504
  -2954964.03644  -2185809.04745  24389422.8104   24389432.3414
      2071.9694       1614.5214          7.2504          7.5004
 01  7  2  0 34  0.0010000  0  9G14G20G30G25G11G21G 1G29G22
  18136202.38845  14250872.98445  24060569.9034   24060575.2824
     -3829.6254      -2984.1234         10.5004          8.5004
  -9562307.08447  -7021482.94846  22017195.5524   22017201.0604
      1092.2194        851.0804         23.2504         20.0004
   4193950.50944   3386953.06845  25077106.7004   25077114.8024
     -2258.9224      -1760.1994          6.5004          6.5004
  -5072043.19948  -3852106.01547  21316784.0284   21316788.7634
     -2325.0164      -1811.7004         30.2504         28.5004
  -2618542.76647  -1938643.26146  22077254.5444   22077260.0994
     -2694.4694      -2099.5864         24.0004         19.7504
  28673353.17544   7998833.37645  24799200.3334   24799210.0284
     -4399.1414      -3427.9024          6.5004          6.2504
  -4262916.29145  -3233001.13745  23394347.9664   23394354.5874
       808.1254        629.7084         11.7504         10.2504
  11129516.01946   8784215.37146  22806617.5444   22806623.3804
     -3305.5164      -2575.7264         15.2504         14.0004
  -3017097.16044  -2234224.23145  24377598.9114   24377608.1734
      2071.3914       1614.0714          7.2504          7.5004
 01  7  2  0 34 30.0010000  0  9G14G20G30G25G11G21G 1G29G22
  18251131.86745  14340428.35545  24082439.0754   24082444.5604
     -3831.7034      -2985.7434          9.5004          8.5004
  -9594927.54047  -7046901.44646  22010987.8964   22010993.4854
      1083.0944        843.9694         22.7504         20.0004
   4262007.39444   3439984.33845  25090057.7554   25090065.0134
     -2277.5624      -1774.7244          6.7504          6.2504
  -5002036.74448  -3797555.53947  21330105.9114   21330110.5994
     -2341.4374      -1824.4974         30.5004         28.5004
  -2537432.57947  -1875440.56746  22092689.2394   22092695.0524
     -2712.2344      -2113.4294         23.7504         19.7504
  28805461.74844   8101774.91845  24824339.9814   24824349.9704
     -4407.4534      -3434.3794          6.5004          6.2504
  -4287056.80445  -3251811.83945  23389754.0834   23389760.7984
       801.8754        624.8384         11.7504         10.5004
  11228748.74046   8861539.52746  22825501.0524   22825506.8884
     -3309.3594      -2578.7224         15.5004         14.0004
  -3079210.18545  -2282623.81245  24365778.7784   24365785.0604
      2070.1094       1613.0724          7.7504          6.5004
 01  7  2  0 35  0.0010000  0  9G14G20G30G25G11G21G 1G29G22
  18366093.93645  14430009.11145  24104316.0604   24104321.5564
     -3832.8444      -2986.6314          9.5004          9.5004
  -9627302.91047  -7072128.96646  22004826.9424   22004832.8134
      1074.8284        837.5284         23.0004         20.0004
   4330593.75644   3493428.26745  25103109.6144   25103116.3764
     -2295.2814      -1788.5314          6.7504          6.2504
  -4931567.76248  -3742644.65347  21343515.7394   21343520.4854
     -2356.8914      -1836.5384         30.7504         28.2504
  -2455820.07247  -1811846.45046  22108219.5444   22108225.6384
     -2729.0004      -2126.4944         23.7504         19.5004
  28937789.46543   8204887.28845  24849520.6614   24849535.6534
     -4414.7974      -3440.1014          6.0004          6.2504
  -4311038.97245  -3270499.15245  23385190.1304   23385196.8334
       796.5474        620.6864         11.5004         10.5004
  11328066.48046   8938929.92746  22844400.2394   22844406.1104
     -3312.2344      -2580.9624         15.0004         14.0004
  -3141312.86745  -2331015.27445  24353961.4194   24353971.4784
      2069.6254       1612.6954          8.0004          7.2504
 01  7  2  0 35 30.0010000  0  9G14G20G30G25G11G21G 1G29G22
  18481120.63245  14519640.21345  24126204.6614   24126210.2864
     -3834.7974      -2988.1534          9.2504          8.7504
  -9659398.50047  -7097138.47046  21998719.3104   21998725.0754
      1065.6724        830.3944         23.0004         20.0004
   4399741.80443   3547309.86345  25116267.0994   25116277.5564
     -2313.7814      -1802.9464          5.5004          5.5004
  -4860605.50748  -3687349.38947  21357019.3104   21357024.0674
     -2373.1094      -1849.1764         30.2504         28.2504
  -2373674.75547  -1747837.17246  22123851.3494   22123856.9384
     -2746.5314      -2140.1544         23.7504         19.5004
  29070367.82744   8308194.84045  24874749.6534   24874757.3684
     -4422.9374      -3446.4454          6.2504          6.0004
  -4334830.37845  -3289037.83145  23380662.7244   23380669.5674
       790.3754        615.8774         11.2504         10.2504
  11427501.15946   9016411.44746  22863322.3724   22863327.9744
     -3315.9224      -2583.8354         14.7504         14.0004
  -3203369.06143  -2379370.50945  24342151.2634   24342161.3334
      2068.2664       1611.6364          5.5004          6.7504
 01  7  2  0 36  0.0010000  0  9G14G20G30G25G11G21G 1G29G22
  18596120.11945  14609250.14245  24148088.7554   24148094.8494
     -3834.0944      -2987.6064          9.5004          8.7504
  -9691303.33747  -7121999.33446  21992648.3724   21992654.0214
      1059.0474        825.2314         23.5004         20.2504
   4469359.80344   3601557.54645  25129515.7714   25129525.5604
     -2329.6414      -1815.3044          6.2504          6.2504
  -4789243.01748  -3631742.26347  21370599.2164   21370604.1144
     -2386.6564      -1859.7324         30.2504         28.2504
  -2291089.86747  -1683485.35046  22139566.6304   22139572.5014
     -2761.3914      -2151.7334         23.7504         19.7504
  29203104.58744   8411625.92945  24900008.4114   24900015.0094
     -4428.4534      -3450.7434          6.5004          6.2504
  -4358522.26045  -3307498.91945  23376154.5524   23376161.4704
       786.8134        613.1014         11.2504         10.5004
  11526961.51246   9093912.96846  22882248.8884   22882254.6884
     -3317.0004      -2584.6754         14.7504         13.7504
  -3265466.63545  -2427758.01345  24330335.9274   24330344.3924
      2069.3284       1612.4634          9.2504          8.0004
 01  7  2  0 36 30.0010000  0  9G14G20G30G25G11G21G 1G29G22
  18711161.59245  14698892.75445  24169981.3024   24169986.2824
     -3834.8284      -2988.1784          9.7504          9.0004
  -9722946.06247  -7146655.96146  21986626.7084   21986631.9814
      1050.9534        818.9254         23.5004         20.5004
   4539516.32443   3656224.91245  25142865.6304   25142871.7714
     -2346.9224      -1828.7704          6.0004          5.5004
  -4717411.86948  -3575769.95247  21384268.0364   21384272.7594
     -2401.5624      -1871.3474         30.0004         28.0004
  -2207997.88847  -1618738.41246  22155378.8104   22155384.6344
     -2777.5784      -2164.3474         23.5004         19.2504
  29336068.45144   8515233.97245  24925311.4034   24925320.2204
     -4435.3124      -3456.0884          6.5004          6.7504
  -4382045.48145  -3325828.63945  23371677.8334   23371684.1854
       781.8754        609.2534         11.0004         11.0004
  11626516.50946   9171488.24546  22901193.7554   22901199.2744
     -3319.4844      -2586.6114         15.2504         13.7504
  -3327533.14045  -2476121.32545  24318524.3804   24318533.4424
      2068.9224       1612.1474          7.7504          7.7504
 01  7  2  0 37  0.0010000  0  9G14G20G30G25G11G21G 1G29G22
  18826225.78245  14788553.12345  24191877.2004   24191883.2354
     -3835.9064      -2989.0184          9.5004          9.0004
  -9754343.38747  -7171121.36446  21980652.0134   21980657.6854
      1042.3754        812.2404         23.7504         20.5004
   4610191.64044   3711296.52445  25156314.9034   25156322.5134
     -2364.5624      -1842.5164          6.5004          5.5004
  -4645133.13148  -3519448.86147  21398022.4114   21398027.3104
     -2416.8124      -1883.2314         30.0004         28.0004
  -2124419.64747  -1553612.55946  22171282.9354   22171288.5604
     -2794.1094      -2177.2284         23.2504         19.7504
  29469238.54043   8619002.74645  24950653.4894   24950662.5994
     -4442.5004      -3461.6884          5.5004          6.0004
  -4405419.15445  -3344041.80745  23367229.8564   23367236.5014
       776.5474        605.1014         11.0004         10.7504
  11726146.58746   9249122.03146  22920152.7944   22920157.9974
     -3322.3124      -2588.8154         14.7504         13.7504
  -3389585.18645  -2524473.31645  24306715.6924   24306723.6424
      2068.0314       1611.4534          7.7504          7.5004
 01  7  2  0 37 30.0010000  0  9G14G20G30G25G11G21G 1G29G22
  18941310.08245  14878229.13345  24213776.4894   24213782.3374
     -3836.4064      -2989.4074          9.2504          7.7504
  -9785495.07747  -7195395.37346  21974724.0914   21974729.5524
      1034.3444        805.9824         23.7504         21.0004
   4681382.95045   3766770.31945  25169863.1464   25169869.3214
     -2381.5944      -1855.7874          7.5004          5.7504
  -4572410.09348  -3462781.57247  21411860.9894   21411865.8644
     -2431.4064      -1894.6024         30.0004         27.7504
  -2040358.93747  -1488110.75846  22187279.3334   22187285.0054
     -2809.9694      -2189.5864         23.2504         19.2504
  29602611.70244   8722929.59645  24976034.0524   24976047.1924
     -4449.0784      -3466.8144          6.7504          6.7504
  -4428645.53045  -3362140.22045  23362810.4194   23362817.4074
       771.8284        601.4254         11.2504         11.0004
  11825849.45046   9326812.53346  22939125.9894   22939131.7204
     -3324.5474      -2590.5564         14.7504         13.0004
  -3451621.35144  -2572813.00845  24294910.7634   24294920.1654
      2067.6564       1611.1614          7.2504          8.0004
 01  7  2  0 38  0.0010000  0  9G14G20G30G25G11G21G 1G29G22
  19056403.98445  14967912.64145  24235678.5994   24235684.6814
     -3836.7504      -2989.6754         10.0004          8.0004
  -9816409.50247  -7219484.50146  21968841.1064   21968846.5564
      1026.3594        799.7614         24.2504         21.0004
   4753079.63443   3822637.75545  25183506.1694   25183512.8604
     -2398.4064      -1868.8884          6.0004          6.0004
  -4499254.65848  -3405777.34547  21425781.9894   21425786.9814
     -2445.8444      -1905.8524         30.0004         28.0004
  -1955828.06147  -1422242.58246  22203365.1144   22203370.8804
     -2825.6414      -2201.7984         23.5004         19.2504
  29736176.89743   8827006.23845  25001449.6534   25001462.5714
     -4455.5004      -3471.8184          5.5004          6.0004
  -4451735.01945  -3380131.97145  23358416.5054   23358423.6924
       767.2344        597.8454         11.7504         11.7504
  11925614.60546   9404551.57146  22958110.6854   22958116.1574
     -3326.6724      -2592.2124         14.7504         13.5004
  -3513648.39345  -2621145.48545  24283106.4114   24283118.0054
      2067.2504       1610.8444          7.5004          7.5004
 01  7  2  0 38 30.0010000  0  9G14G20G30G25G11G21G 1G29G22
  19171538.05845  15057627.38945  24257587.6464   24257591.4894
     -3838.7664      -2991.2464          9.7504          8.7504
  -9847053.37847  -7243362.80146  21963009.6614   21963015.0634
      1016.6414        792.1884         23.7504         21.2504
   4825312.02143   3878922.72345  25197251.2084   25197258.9464
     -2416.9694      -1883.3524          5.7504          5.7504
  -4425637.50648  -3348413.33747  21439790.9354   21439795.7394
     -2461.8754      -1918.3444         30.0004         27.7504
  -1870798.23047  -1355985.61546  22219546.0284   22219552.0054
     -2842.9224      -2215.2644         23.5004         19.2504
  29869964.46943   8931256.07545  25026910.7944   25026924.6614
     -4463.5624      -3478.1014          6.0004          6.5004
  -4474656.55446  -3397992.81845  23354054.3964   23354061.4074
       760.9534        592.9504         12.2504         11.7504
  12025472.68746   9482363.01246  22977113.2554   22977118.8564
     -3330.4374      -2595.1464         15.0004         13.2504
  -3575632.07045  -2669444.33245  24271311.7164   24271321.4114
      2065.0634       1609.1404          7.7504          7.5004
 01  7  2  0 39  0.0010000  0  9G14G20G30G25G11G21G 1G29G22
  19286714.75045  15147375.37345  24279504.5674   24279509.9584
     -3839.4844      -2991.8064          9.0004          8.5004
  -9877421.88947  -7267026.54146  21957230.9354   21957236.3724
      1008.1094        785.5404         24.2504         21.2504
   4898082.14043   3935626.64645  25211099.1064   25211106.5054
     -2434.1874      -1896.7694          6.0004          6.0004
  -4351557.20748  -3290688.43847  21453888.0754   21453892.8804
     -2476.6094      -1929.8254         30.0004         27.7504
  -1785268.26447  -1289338.93446  22235821.8254   22235827.7084
     -2858.8594      -2227.6834         23.5004         19.0004
  30003975.48044   9035680.04845  25052410.4584   25052421.1494
     -4470.2974      -3483.3484          7.0004          7.0004
  -4497407.37246  -3415720.66846  23349724.9274   23349731.6184
       755.9534        589.0544         12.2504         12.0004
  12125426.32546   9560248.92746  22996132.9744   22996137.8724
     -3332.9224      -2597.0824         14.2504         13.2504
  -3637566.78645  -2717704.92345  24259525.9274   24259534.5794
      2064.0944       1608.3854          8.2504          9.0004
 01  7  2  0 39 30.0010000  0  9G14G20G30G25G11G21G 1G29G22
  19401944.76445  15237164.91245  24301432.4504   24301438.7784
     -3841.6874      -2993.5234          9.0004          8.7504
  -9907501.85747  -7290465.43746  21951506.7554   21951512.0054
       998.0314        777.6874         24.2504         21.2504
   4971400.17642   3992757.62245  25225050.1144   25225057.0564
     -2452.8594      -1911.3194          4.7504          4.7504
  -4277004.66748  -3232595.55447  21468074.8494   21468079.8174
     -2492.7194      -1942.3784         29.7504         27.7504
  -1699229.55047  -1222295.83046  22252194.2474   22252200.2354
     -2876.2194      -2241.2094         23.0004         19.0004
  30138219.56343   9140285.69045  25077955.9814   25077966.0524
     -4478.4694      -3489.7164          6.0004          6.2504
  -4519976.71646  -3433307.10046  23345430.6144   23345437.2824
       749.5004        584.0264         13.2504         12.2504
  12225485.84646   9638217.34646  23015174.0674   23015179.9854
     -3336.8754      -2600.1624         14.5004         13.2504
  -3699438.74744  -2765916.65145  24247751.0284   24247760.8174
      2061.5164       1606.3764          6.5004          7.5004
 01  7  2  0 40  0.0010000  0  9G14G20G30G25G11G21G 1G29G22
  19517200.30145  15326974.38745  24323364.7474   24323372.1104
     -3841.4694      -2993.3524          8.5004          7.7504
  -9937318.55947  -7313699.19646  21945832.8414   21945838.2314
       990.2814        771.6484         24.7504         21.5004
   5045237.80043   4050293.35845  25239102.0604   25239114.6614
     -2469.0944      -1923.9694          5.7504          5.7504
  -4202009.22248  -3174157.55547  21482345.9744   21482350.8724
     -2506.4064      -1953.0444         30.0004         27.7504
  -1612711.38747  -1154879.13546  22268658.3724   22268664.2084
     -2891.1094      -2252.8124         23.2504         19.2504
  30272668.04143   9245050.50645  25103541.5054   25103551.2944
     -4484.2034      -3494.1844          5.2504          5.0004
  -4542392.39346  -3450773.79046  23341164.4424   23341171.0284
       745.4224        580.8484         13.5004         12.7504
  12325623.45446   9716246.61046  23034229.8644   23034235.1264
     -3338.4064      -2601.3564         14.7504         13.5004
  -3761272.06945  -2814098.23045  24235985.2784   24235994.9974
      2061.2194       1606.1444          8.7504          8.2504
 01  7  2  0 40 30.0010000  0  9G14G20G30G25G11G21G 1G29G22
  19632457.54145  15416785.14445  24345298.6694   24345303.9314
     -3842.3284      -2994.0224          9.5004          8.5004
  -9966893.24547  -7336744.36746  21940204.6064   21940210.0794
       981.3594        764.6964         24.5004         21.5004
   5119570.68743   4108215.02845  25253245.7554   25253251.8964
     -2486.3914      -1937.4474          5.2504          6.0004
  -4126595.83048  -3115393.87547  21496696.7784   21496701.6184
     -2521.1414      -1964.5254         30.0004         27.5004
  -1525739.23747  -1087108.66646  22285208.4034   22285214.3804
     -2907.0164      -2265.2074         23.5004         19.0004
  30407296.23644   9349955.35645  25129160.5054   25129170.1424
     -4491.0164      -3499.4934          6.7504          6.2504
  -4564677.63946  -3468138.84446  23336923.7084   23336930.4234
       740.2664        576.8304         14.0004         12.7504
  12425815.42246   9794318.21346  23053296.5284   23053301.7554
     -3341.0314      -2603.4014         15.0004         13.5004
  -3823086.42845  -2862265.07545  24224221.9354   24224232.4854
      2059.7034       1604.9634          8.2504          7.0004
 01  7  2  0 41  0.0010000  0  8G14G20G30G25G11G 1G29G22
  19747739.92945  15506615.47545  24367234.3724   24367240.1034
     -3843.1414      -2994.6554          8.2504          8.2504
  -9996199.88547  -7359580.68246  21934627.7164   21934633.1184
       972.4384        757.7444         24.5004         21.5004
   5194422.07843   4166540.72345  25267490.9974   25267498.0564
     -2503.6724      -1950.9134          5.7504          6.5004
  -4050741.97348  -3056286.98047  21511131.2784   21511136.1884
     -2535.7344      -1975.8974         29.7504         27.5004
  -1438291.45247  -1018967.59446  22301849.5054   22301855.4234
     -2922.7974      -2277.5044         23.5004         19.0004
  -4586808.90746  -3485383.94246  23332712.4354   23332718.3994
       735.1724        572.8614         14.7504         13.2504
  12526085.45246   9872450.67346  23072375.8414   23072382.0994
     -3343.5944      -2605.3984         14.0004         13.2504
  -3884854.97045  -2910396.30645  24212468.2864   24212477.8064
      2058.1884       1603.7824          8.7504          8.5004
 01  7  2  0 41 30.0020000  0  8G14G20G30G25G11G 1G29G22
  19863060.37345  15596475.48545  24389179.8144   24389187.4714
     -3844.9844      -2996.0924          8.5004          8.2504
 -10025227.93847  -7382199.90646  21929103.8224   21929109.2834
       962.3754        749.9034         24.5004         21.7504
   5269803.00843   4225279.08145  25281834.5644   25281839.6624
     -2521.9224      -1965.1344          5.2504          5.7504
  -3974437.63348  -2996829.05947  21525651.4864   21525656.5724
     -2551.3594      -1988.0724         29.5004         27.5004
  -1350357.76047   -950447.88846  22318582.3544   22318588.4004
     -2939.5784      -2290.5804         22.7504         18.5004
  -4608777.77946  -3502502.46346  23328532.0104   23328538.3964
       729.0314        568.0764         15.0004         13.2504
  12626445.72746   9950653.44646  23091474.2134   23091479.8734
     -3347.1874      -2608.1984         14.0004         13.0004
  -3946567.92245  -2958484.10945  24200723.6824   24200735.3934
      2055.5164       1601.7004          7.7504          7.7504
 01  7  2  0 42  0.0020000  0  8G14G20G30G25G11G 1G29G22
  19978387.24545  15686340.54545  24411125.7524   24411132.5144
     -3844.5944      -2995.7874          8.5004          8.5004
 -10053996.94647  -7404617.28846  21923629.4394   21923635.0764
       954.4534        743.7304         24.7504         21.7504
   5345683.85043   4284406.97245  25296274.7834   25296280.7604
     -2537.9064      -1977.5894          5.2504          5.2504
  -3897713.17948  -2937043.78447  21540251.5334   21540256.3734
     -2564.6874      -1998.4584         29.7504         27.2504
  -1261969.64647   -881574.08046  22335402.2754   22335408.1464
     -2954.0474      -2301.8554         23.0004         18.5004
  -4630606.40646  -3519511.71846  23324378.1584   23324384.4514
       725.1254        565.0324         15.5004         13.0004
  12726865.99046  10028902.94746  23110583.6744   23110590.0724
     -3348.5784      -2609.2824         14.2504         12.7504
  -4008241.49745  -3006541.24345  24188987.1664   24188996.8144
      2054.9224       1601.2384          7.7504          8.0004
 01  7  2  0 42 30.0020000  0  8G14G20G30G25G11G 1G29G22
  20093751.12845  15776234.36245  24433080.0574   24433084.8504
     -3846.0624      -2996.9324          9.5004          8.5004
 -10082478.79447  -7426810.91046  21918209.6114   21918214.8384
       944.5784        736.0354         24.7504         22.0004
   5422093.22044   4343946.76245  25310815.2364   25310823.2684
     -2555.7814      -1991.5184          6.2504          5.7504
  -3820541.20348  -2876909.78447  21554936.7754   21554941.5924
     -2579.8444      -2010.2684         29.5004         27.2504
  -1173099.36347   -812324.55746  22352313.8144   22352319.6624
     -2970.3444      -2314.5544         22.7504         18.5004
  -4652268.88146  -3536391.51646  23320255.4324   23320261.9824
       719.3134        560.5034         15.2504         13.0004
  12827375.90946  10107222.32846  23129710.2604   23129715.7564
     -3351.8284      -2611.8144         13.7504         12.5004
  -4069847.01945  -3054545.39945  24177264.9794   24177273.5144
      2052.3444       1599.2294          9.0004          8.2504
 01  7  2  0 43  0.0020000  0  8G14G20G30G25G11G 1G29G22
  20209142.88945  15866149.96145  24455036.7684   24455042.9324
     -3846.9224      -2997.6014          8.0004          7.5004
 -10110680.05947  -7448785.89346  21912843.0414   21912848.7254
       935.2974        728.8034         25.0004         22.0004
   5499021.51443   4403890.88445  25325453.7834   25325462.0024
     -2572.9694      -2004.9114          6.0004          5.0004
  -3742931.69648  -2816434.85047  21569705.7134   21569710.5184
     -2594.2974      -2021.5304         29.5004         27.2504
  -1083757.91747   -742707.88146  22369315.1194   22369320.6504
     -2985.9374      -2326.7054         23.2504         18.5004
  -4673774.01446  -3553148.70846  23316163.6274   23316170.1894
       714.1564        556.4854         16.0004         13.5004
  12927966.74846  10185604.76046  23148852.0334   23148857.8694
     -3354.4064      -2613.8234         13.7504         12.7504
  -4131389.84445  -3102500.68445  24165553.1974   24165564.4284
      2050.2974       1597.6344          7.7504          8.2504
 01  7  2  0 43 30.0020000  0  8G14G20G30G25G11G 1G29G22
  20324556.55945  15956082.64245  24476999.2444   24477005.6194
     -3848.0624      -2998.4904          7.7504          8.0004
 -10138604.18747  -7470544.92546  21907528.9084   21907534.2994
       925.5944        721.2424         25.2504         22.0004
   5576462.31043   4464234.19045  25340190.1434   25340203.8114
     -2590.4694      -2018.5474          5.5004          4.7504
  -3664892.23648  -2755624.89047  21584555.8304   21584560.5764
     -2609.0474      -2033.0244         29.5004         27.2504
   -993953.14547   -672730.17546  22386404.2294   22386409.9244
     -3001.7664      -2339.0384         23.5004         19.2504
  -4695127.41046  -3569787.65146  23312099.8854   23312106.1074
       708.6884        552.2244         15.7504         13.2504
  13028632.41346  10264045.50946  23168008.1504   23168013.9284
     -3357.3594      -2616.1244         14.0004         12.2504
  -4192872.90245  -3150409.37945  24153854.0254   24153861.5534
      2047.8444       1595.7224          8.7504          8.0004
 01  7  2  0 44  0.0020000  0  8G14G20G30G25G11G 1G29G22
  20439987.03345  16046028.37045  24498966.2134   24498970.4794
     -3848.1094      -2998.5274          8.7504          7.7504
 -10166253.68047  -7492089.96146  21902267.6504   21902272.9244
       916.8914        714.4604         25.5004         22.2504
   5654409.54844   4524972.26943  25355023.4554   25355028.5414
     -2606.8284      -2031.2954          6.2504          3.2504
  -3586428.90248  -2694484.63847  21599486.9554   21599491.9364
     -2622.6564      -2043.6284         29.5004         27.2504
   -903691.77247   -602396.67746  22403580.4864   22403586.4164
     -3016.4534      -2350.4834         23.0004         18.5004
  -4716334.01846  -3586312.21046  23308064.6434   23308070.9714
       704.2814        548.7914         15.7504         12.7504
  13129367.88346  10342540.63946  23187177.5884   23187183.5294
     -3359.1564      -2617.5244         14.0004         12.7504
  -4254298.10045  -3198273.02745  24142163.5254   24142172.4244
      2046.3444       1594.5544          7.7504          8.5004
 01  7  2  0 44 30.0020000  0  8G14G20G30G25G11G 1G29G22
  20555450.55845  16135999.84645  24520937.7914   24520945.0374
     -3849.0624      -2999.2694          8.5004          8.0004
 -10193609.92547  -7513406.48546  21897061.8614   21897067.1004
       907.2344        706.9364         25.5004         22.5004
   5732879.01943   4586117.31445  25369955.6044   25369957.8424
     -2624.1094      -2044.7614          5.5004          5.7504
  -3507527.35248  -2633002.92247  21614501.4714   21614506.3934
     -2637.0784      -2054.8664         29.2504         27.0004
   -812959.61047   -531696.33446  22420846.2294   22420852.2644
     -3031.9694      -2362.5734         22.7504         18.0004
  -4737377.73146  -3602709.86346  23304059.9714   23304066.1584
       699.0164        544.6884         15.5004         13.0004
  13230189.32346  10421102.74046  23206362.9714   23206368.9714
     -3361.8914      -2619.6554         13.5004         13.0004
  -4315645.35345  -3246075.88045  24130490.0804   24130497.1624
      2043.8284       1592.5934          8.7504          8.5004
 01  7  2  0 45  0.0020000  0  8G14G20G30G25G11G 1G29G22
  20670918.62645  16225974.91445  24542911.1744   24542915.4514
     -3850.3914      -3000.3044          9.2504          8.0004
 -10220699.10547  -7534514.91046  21891906.8304   21891912.1864
       897.1094        699.0464         25.2504         22.5004
   5811841.37243   4647646.40243  25384980.6354   25384984.2794
     -2641.6564      -2058.4334          5.0004          3.2504
  -3428217.61948  -2571203.13947  21629593.7834   21629598.7054
     -2651.8124      -2066.3474         29.5004         27.0004
   -721787.08547   -460652.85146  22438195.9944   22438202.0534
     -3047.7814      -2374.8944         23.0004         18.2504
  -4758287.01046  -3619002.74946  23300080.8614   23300086.9204
       693.3444        540.2684         15.0004         12.0004
  13331068.16946  10499709.61046  23225559.7754   23225565.4004
     -3364.9694      -2622.0544         13.5004         12.2504
  -4376939.48045  -3293837.35245  24118826.5964   24118835.9394
      2040.8284       1590.2564          9.2504          8.7504
 01  7  2  0 45 30.0020000  0  8G14G20G30G25G11G 1G29G22
  20786450.02145  16315999.32745  24564896.5574   24564901.5374
     -3851.8754      -3001.4614          9.2504          7.7504
 -10247459.78647  -7555367.36346  21886814.3384   21886820.0804
       886.7504        690.9744         25.0004         22.5004
   5891354.72543   4709604.58445  25400112.0724   25400121.4044
     -2659.4224      -2072.2774          5.0004          5.5004
  -3348442.33148  -2509040.58747  21644774.5334   21644779.4204
     -2666.6874      -2077.9384         29.5004         27.0004
   -630117.33547   -389221.92746  22455640.4004   22455646.0964
     -3063.6874      -2387.2894         23.2504         18.2504
  -4779002.57546  -3635144.68546  23296138.9944   23296145.2994
       687.5164        535.7264         14.5004         12.2504
  13432063.34746  10578407.11146  23244778.2444   23244783.3654
     -3368.2034      -2624.5744         13.5004         12.5004
  -4438118.08545  -3341508.84945  24107183.7214   24107192.3734
      2037.5784       1587.7234          7.7504          8.5004
 01  7  2  0 46  0.0020000  0  8G14G20G30G25G11G 1G29G22
  20902020.67545  16406054.30745  24586887.4634   24586893.7094
     -3851.9374      -3001.5104          7.7504          7.5004
 -10273913.74947  -7575980.81346  21881780.4004   21881786.0024
       877.7194        683.9374         25.2504         22.7504
   5971394.18341                  25415342.0804
     -2675.7034                          3.5004
  -3268227.14048  -2446535.25347  21660038.8144   21660043.9004
     -2680.0944      -2088.3854         29.0004         26.7504
   -537976.40147   -317423.83446  22473173.9004   22473179.9004
     -3078.1414      -2398.5514         22.7504         18.0004
  -4799548.49746  -3651154.45445  23292228.7524   23292235.1864
       683.1094        532.2934         14.0004         11.5004
  13533150.69146  10657176.42546  23264014.4004   23264020.6704
     -3370.0314      -2625.9984         13.0004         12.5004
  -4499202.34645  -3389106.79345  24095560.3694   24095567.4394
      2035.5944       1586.1774          9.0004          8.7504
 01  7  2  0 46 30.0020000  0  8G14G20G30G25G11G 1G29G22
  21017564.56445  16496088.46945  24608876.1894   24608882.2134
     -3851.7664      -3001.3764          9.0004          7.7504
 -10300124.30347  -7596404.58946  21876792.5964   21876798.1624
       868.8444        677.0214         25.2504         22.5004
   6051893.01043                  25430662.0574
     -2691.7344                          6.0004
  -3187639.19048  -2383739.45747  21675374.0724   21675378.9364
     -2693.2194      -2098.6124         29.2504         27.0004
   -445432.25847   -245311.55246  22490784.3384   22490790.5494
     -3092.2504      -2409.5454         22.7504         18.2504
  -4819990.45246  -3667083.16345  23288338.8464   23288346.3144
       678.9064        529.0184         13.7504         11.7504
  13634264.45746  10735966.30546  23283256.0724   23283261.1824
     -3371.6414      -2627.2524         13.2504         12.5004
  -4560254.64845  -3436679.90145  24083941.8464   24083950.3114
      2033.7504       1584.7404          9.0004          8.5004
 01  7  2  0 47  0.0020000  0  8G14G20G30G25G11G 1G29G22
  21133146.59545  16586152.30245  24630869.8854   24630877.0724
     -3852.9224      -3002.2774          8.2504          8.5004
 -10326024.14847  -7616586.25346  21871864.2294   21871869.5724
       858.5634        669.0104         26.0004         23.0004
   6132915.21644                  25446079.1894
     -2709.0004                          6.5004
  -3106615.04748  -2320603.77047  21690792.6504   21690797.5964
     -2707.6094      -2109.8254         29.0004         26.7504
   -352421.91747   -172836.00946  22508483.7834   22508489.7134
     -3107.6564      -2421.5504         22.7504         17.7504
  -4840263.58046  -3682880.35045  23284481.1114   23284487.1004
       673.4064        524.7324         13.2504         11.5004
  13735469.23846  10814827.12646  23302514.9164   23302520.9514
     -3374.5784      -2629.5414         13.5004         12.2504
  -4621206.11245  -3484174.37145  24072344.1894   24072354.2134
      2030.4384       1582.1594          9.5004          9.5004
 01  7  2  0 47 30.0020000  0  8G14G20G30G25G11G 1G29G22
  21248737.28245  16676222.88045  24652866.0104   24652872.7254
     -3853.0474      -3002.3744          8.2504          7.7504
 -10351640.59347  -7636547.08646  21866989.5724   21866994.9164
       849.2664        661.7654         26.2504         23.0004
   6214430.53544                  25461591.9944
     -2725.2664                          6.2504
  -3025186.42648  -2257152.91147  21706288.1504   21706293.2134
     -2720.8754      -2120.1624         29.2504         27.0004
   -258977.15247   -100021.94746  22526265.8074   22526271.6784
     -3121.9064      -2432.6544         22.2504         17.7504
  -4860397.31746  -3698568.90345  23280649.4084   23280656.0644
       668.9224        521.2384         13.2504         11.7504
  13836735.76146  10893736.05546  23321785.2214   23321791.1974
     -3376.4374      -2630.9904         13.2504         12.0004
  -4682082.76745  -3531610.53345  24060759.1664   24060768.8504
      2028.0634       1580.3084          9.0004          8.7504
 01  7  2  0 48  0.0020000  0  8G14G20G30G25G11G 1G29G22
  21364343.29845  16766305.36845  24674864.7834   24674871.5104
     -3854.6564      -3003.6284          7.5004          7.5004
 -10376963.98547  -7656279.56846  21862170.6504   21862176.1004
       838.3284        653.2434         26.5004         23.2504
   6296444.85343                  25477198.0884
     -2743.0164                          6.0004
  -2943347.81948  -2193382.58247  21721861.2994   21721866.2794
     -2735.6414      -2131.6684         28.7504         26.5004
   -165093.09047    -26865.58646  22544131.3074   22544137.0614
     -3137.6414      -2444.9154         22.2504         17.5004
  -4880384.49046  -3714143.23545  23276846.2524   23276852.7564
       662.9384        516.5754         13.0004         11.7504
  13938070.92746  10972698.48345  23341068.5414   23341074.2714
     -3379.8754      -2633.6694         12.5004         11.7504
  -4742874.38745  -3578980.51445  24049189.3774   24049197.3614
      2024.0634       1577.1924          8.7504          8.2504
 01  7  2  0 48 30.0020000  0  8G14G20G30G25G11G 1G29G22
  21479979.58444  16856411.46445  24696868.8304   24696874.9474
     -3854.5784      -3003.5674          7.0004          7.5004
 -10401977.51347  -7675770.59846  21857410.6824   21857416.1434
       829.0634        646.0234         26.5004         23.2504
   6378971.96844                  25492903.1274
     -2758.9374                          6.5004
  -2861086.01448  -2129282.48747  21737515.4394   21737520.2914
     -2748.6094      -2141.7744         29.2504         26.5004
    -70757.04147     46642.97246  22562082.9084   22562088.5104
     -3151.5624      -2455.7634         22.2504         17.5004
  -4900210.42546  -3729591.94946  23273073.2364   23273080.4824
       658.6564        513.2394         13.2504         12.0004
  14039489.32846  11051725.76146  23360367.6114   23360373.6004
     -3381.5164      -2634.9474         12.5004         12.0004
  -4803563.19745  -3626270.32745  24037640.7134   24037649.4944
      2021.6884       1575.3414          8.7504          8.7504
 01  7  2  0 49  0.0020000  0  8G14G20G30G25G11G 1G29G22
  21595647.85245  16946542.54645  24718881.1114   24718887.8734
     -3855.3444      -3004.1644          7.5004          7.7504
 -10426676.73347  -7695016.71346  21852710.2604   21852715.5574
       818.8284        638.0484         26.0004         23.0004
   6462012.87743     41024.12055  25508705.3774   25508711.8464
     -2775.7974      -2162.9594          6.0004          5.0004
  -2778400.93548  -2064852.56647  21753249.6114   21753254.3114
     -2762.4064      -2152.5244         29.2504         26.7504
     24030.57347    120503.39146  22580120.5884   22580126.2014
     -3166.2974      -2467.2444         22.2504         17.5004
  -4919873.27846  -3744913.58446  23269331.3934   23269338.8614
       653.4844        509.2094         13.5004         12.2504
  14140992.87746  11130819.36146  23379683.1354   23379689.2404
     -3384.0944      -2636.9564         12.7504         12.0004
  -4864143.71545  -3673475.76245  24026113.7054   24026121.4084
      2018.2974       1572.6994         10.0004          9.0004
 01  7  2  0 49 30.0020000  0  8G14G20G30G25G11G 1G29G22
  21711339.85845  17036692.07045  24740897.5334   24740904.1314
     -3856.2504      -3004.8704          8.7504          7.5004
 -10451067.44647  -7714022.42446  21848068.7994   21848074.4244
       808.3914        629.9154         26.2504         23.2504
   6545558.51144    106124.69745  25524603.9794   25524609.1234
     -2792.7034      -2176.1324          6.5004          6.2504
  -2695302.12648  -2000100.25847  21769062.9944   21769067.8574
     -2776.2974      -2163.3484         29.0004         26.5004
    119259.46147    194707.67946  22598242.0414   22598248.0294
     -3181.0944      -2478.7744         22.2504         17.2504
  -4939381.22846  -3760114.50946  23265618.8304   23265625.2874
       648.2194        505.1064         14.0004         12.7504
  14242573.20546  11209972.81945  23399014.0184   23399020.1704
     -3386.7504      -2639.0264         13.2504         11.7504
  -4924620.10745  -3720600.06545  24014604.0104   24014613.9514
      2014.6564       1569.8624          9.0004          8.7504
 01  7  2  0 50  0.0020000  0  8G14G20G30G25G11G 1G29G22
  21827058.31945  17126862.22145  24762917.8854   24762923.6744
     -3857.5474      -3005.8814          8.5004          8.2504
 -10475144.76847  -7732783.94146  21843487.2834   21843492.6274
       797.5164        621.4414         26.5004         23.5004
   6629610.41445    171619.58245  25540598.1434   25540608.1784
     -2809.9534      -2189.5744          8.0004          7.5004
  -2611788.89848  -1935025.01947  21784954.9794   21784959.9714
     -2790.4694      -2174.3914         28.7504         26.5004
    214930.21447    269256.26246  22616447.7294   22616453.6934
     -3196.1564      -2490.5114         21.7504         17.0004
  -4958731.52946  -3775192.60146  23261937.2134   23261944.1664
       642.5784        500.7104         14.7504         13.5004
  14344233.24246  11289188.37546  23418359.4244   23418365.4244
     -3389.7974      -2641.4004         13.5004         12.0004
  -4984986.34845  -3767638.55245  24003117.1824   24003125.3654
      2010.5314       1566.6484          8.2504          9.0004
 01  7  2  0 50 30.0020000  0  8G14G20G30G25G11G 1G29G22
  21942826.79045  17217071.36645  24784947.6274   24784954.8964
     -3859.9224      -3007.7314          8.5004          8.2504
 -10498882.41747  -7751280.77946  21838970.0644   21838975.3964
       785.4224        612.0174         26.7504         23.5004
   6714191.35544    237526.82945  25556694.0024   25556700.7174
     -2828.3124      -2203.8804          6.7504          5.0004
  -2527838.80848  -1869609.38147  21800930.1434   21800935.0064
     -2805.7194      -2186.2744         28.7504         26.2504
    311064.23247    344165.84246  22634741.2134   22634747.0494
     -3212.2814      -2503.0764         21.7504         17.0004
  -4977900.36846  -3790129.29046  23258289.2754   23258296.0144
       635.8134        495.4384         15.5004         14.0004
  14445996.60246  11368484.45246  23437723.0644   23437729.5104
     -3393.9534      -2644.6394         12.2504         12.0004
  -5045215.71145  -3814570.36745  23991656.4474   23991664.0804
      2005.1884       1562.4844          9.7504          9.0004
 01  7  2  0 51  0.0020000  0  8G14G20G30G25G11G 1G29G22
  22058635.01145  17307311.46145  24806984.6744   24806991.8034
     -3860.8754      -3008.4744          7.7504          7.5004
 -10522288.01247  -7769518.87246  21834516.1974   21834521.6824
       774.7034        603.6654         26.5004         24.0004
   6799290.15144    303837.53545  25572887.1664   25572897.1664
     -2845.1724      -2217.0174          6.2504          6.0004
  -2443463.97848  -1803862.77047  21816985.9944   21816990.9164
     -2819.4844      -2197.0014         28.7504         26.2504
    407649.30447    419426.87946  22653120.6504   22653126.6154
     -3226.9374      -2514.4974         21.5004         17.0004
  -4996897.90446  -3804932.51046  23254673.9084   23254680.2134
       630.4694        491.2744         15.7504         14.5004
  14547853.04946  11447853.05445  23457106.2994   23457112.1234
     -3396.6874      -2646.7694         12.5004         11.5004
  -5105314.95645  -3861400.81345  23980219.5104   23980225.8614
      2001.1724       1559.3554         10.0004          9.0004
 01  7  2  0 51 30.0020000  0  8G14G20G30G25G11G 1G29G22
  22174453.51445  17397559.52945  24829025.6354   24829034.7564
     -3860.7194      -3008.3524          8.0004          7.5004
 -10545389.10647  -7787519.69146  21830120.4554   21830125.8934
       765.0474        596.1404         27.5004         24.0004
   6884876.08343    370527.81045  25589173.6664   25589181.9084
     -2860.8594      -2229.2414          5.7504          5.5004
  -2358695.45548  -1737809.38847  21833117.1584   21833121.9514
     -2832.0474      -2206.7904         28.7504         26.2504
    504653.74547    495014.71146  22671580.1504   22671586.1154
     -3240.3444      -2524.9434         21.5004         17.0004
  -5015753.69946  -3819625.28846  23251086.0574   23251092.3734
       626.2814        488.0114         16.5004         14.0004
  14649773.06146  11527271.18645  23476500.7754   23476507.2444
     -3398.2814      -2648.0114         12.5004         11.2504
  -5165309.82445  -3908149.90345  23968803.3774   23968812.8264
      1998.1564       1557.0054         10.0004          9.0004
 01  7  2  0 52  0.0020000  0  8G14G20G30G25G11G 1G29G22
  22290292.08345  17487823.23345  24851068.4084   24851074.2914
     -3861.9064      -3009.2784          8.2504          7.7504
 -10568173.17247  -7805273.48146  21825784.5494   21825789.6234
       753.8754        587.4354         27.2504         24.0004
   6970957.98043    437604.56245  25605554.5494   25605566.9634
     -2877.9534      -2242.5614          5.0004          6.0004
  -2273525.25548  -1671443.00147  21849324.4554   21849329.5064
     -2845.9694      -2217.6384         28.2504         26.0004
    602084.82447    570934.97346  22690120.8774   22690126.7484
     -3255.0784      -2536.4254         21.7504         16.7504
  -5034457.94146  -3834199.96846  23247526.4794   23247532.8544
       620.6564        483.6284         16.7504         14.7504
  14751766.32746  11606746.39846  23495910.6114   23495916.2834
     -3401.2814      -2650.3494         13.2504         12.0004
  -5225186.63245  -3954807.03745  23957407.7364   23957415.8504
      1993.6094       1553.4624          9.2504          9.2504
 01  7  2  0 52 30.0020000  0  8G14G20G30G25G11G 1G29G22
  22406165.93645  17578114.46845  24873117.2364   24873125.3854
     -3863.7194      -3010.6904          7.7504          7.7504
 -10590622.88947  -7822766.73346  21821512.2834   21821517.5924
       742.0634        578.2314         27.0004         24.5004
   7057549.72742    505078.60144  25622031.1664   25622039.5844
     -2895.5474      -2256.2704          4.7504          3.7504
  -2187940.03648  -1604753.22247  21865610.6274   21865615.6784
     -2860.4064      -2228.8884         28.2504         26.0004
    699955.59447    647197.87046  22708744.9164   22708750.7404
     -3270.3284      -2548.3084         21.2504         16.7504
  -5052995.28346  -3848644.60246  23243998.9864   23244005.1154
       614.4694        478.8074         17.0004         15.5004
  14853848.07546  11686290.55545  23515335.9794   23515342.0024
     -3404.8444      -2653.1254         12.7504         11.5004
  -5284927.15145  -4001357.90945  23946039.7684   23946047.4364
      1988.3754       1549.3834          9.7504          9.7504
 01  7  2  0 53  0.0020000  0  8G14G20G30G25G11G 1G29G22
  22522077.97445  17668435.47045  24895175.7364   24895183.1004
     -3863.5314      -3010.5444          8.2504          7.5004
 -10612732.86347  -7839995.25946  21817304.9164   21817310.3544
       732.1564        570.5114         26.5004         24.2504
   7144653.15042    572951.32644  25638607.3614   25638615.2054
     -2911.1564      -2268.4334          4.7504          3.7504
  -2101938.20548  -1537738.82147  21881976.1354   21881981.1624
     -2872.7814      -2238.5314         28.2504         25.7504
    798266.88747    723804.00946  22727452.8144   22727458.8614
     -3283.5004      -2558.5714         20.5004         16.7504
  -5071362.69846  -3862956.80946  23240503.5414   23240509.2954
       610.2664        475.5324         17.0004         14.7504
  14956021.30746  11765906.01245  23534778.6584   23534785.1504
     -3406.4374      -2654.3674         12.7504         11.7504
  -5344525.30945  -4047797.87045  23934698.6974   23934707.5144
      1985.0474       1546.7904         10.0004          9.2504
 01  7  2  0 53 30.0020000  0  8G14G20G30G25G11G 1G29G22
  22637969.41945  17758740.35845  24917230.2834   24917237.0684
     -3862.9694      -3010.1064          9.7504          8.7504
 -10634559.28547  -7857002.82946  21813151.5104   21813156.8654
       722.5164        562.9994         26.7504         24.2504
   7232208.62943    641176.42545  25655268.7134   25655278.3734
     -2926.3284      -2280.2564          5.5004          6.0004
  -2015580.46448  -1470447.07847  21898409.6194   21898414.8464
     -2884.7814      -2247.8814         28.2504         25.7504
    896957.81547    800705.98446  22746233.2294   22746239.3114
     -3296.2814      -2568.5314         20.5004         16.5004
  -5089618.66746  -3877182.18346  23237030.0884   23237036.4284
       606.4064        472.5244         17.0004         15.2504
  15058227.45746  11845547.10845  23554227.1974   23554233.2684
     -3407.6874      -2655.3414         12.0004         11.0004
  -5404035.96045  -4094169.65345  23923373.7834   23923381.7214
      1981.9224       1544.3554         10.2504          9.5004
 01  7  2  0 54  0.0020000  0  8G14G20G30G25G11G 1G29G22
  22753886.74445  17849065.51645  24939287.7294   24939292.6974
     -3863.9224      -3010.8484          8.7504          7.5004
 -10656053.27847  -7873751.36346  21809060.9944   21809066.5494
       711.3134        554.2694         26.5004         24.5004
   7320261.05443    709788.59545  25672025.1824   25672029.2714
     -2942.9374      -2293.1984          5.7504          5.5004
  -1928821.61248  -1402842.78746  21914919.3614   21914924.4004
     -2898.2034      -2258.3404         28.2504         25.5004
    996072.51747    877938.16246  22765094.0334   22765100.2214
     -3310.4374      -2579.5624         20.5004         16.5004
  -5107716.93046  -3891284.67246  23233585.7134   23233591.7134
       601.0634        468.3604         16.5004         14.7504
  15160512.81746  11925249.93145  23573691.6664   23573697.5494
     -3410.4224      -2657.4724         12.2504         11.0004
  -5463408.82545  -4140434.04745  23912075.4474   23912083.2214
      1977.1724       1540.6534          9.7504          9.2504
 01  7  2  0 54 30.0020000  0  7G14G20G25G11G 1G29G22
  22869820.32044  17939403.28145  24961348.8774   24961356.2054
     -3866.1724      -3012.6014          7.2504          7.2504
 -10677222.21147  -7890246.60946  21805032.8144   21805038.2874
       698.7344        544.4684         27.0004         24.5004
  -1841673.46048  -1334935.14447  21931502.9004   21931507.9984
     -2912.8444      -2269.7484         28.2504         25.7504
   1095599.02147    955491.23246  22784033.3934   22784039.4984
     -3325.8284      -2591.5544         21.0004         16.2504
  -5125667.10946  -3905271.75946  23230169.8774   23230175.7834
       594.4224        463.1864         16.0004         14.7504
  15262867.89346  12005007.08645  23593169.5494   23593175.4434
     -3414.4374      -2660.6014         12.2504         11.0004
  -5522649.97045  -4186595.87245  23900801.4944   23900809.1504
      1971.0164       1535.8564          9.2504         10.0004
 01  7  2  0 55  0.0020000  0  7G14G20G25G11G 1G29G22
  22985805.00945  18029780.82545  24983420.2364   24983427.0214
     -3867.5164      -3013.6494          7.5004          7.7504
 -10698028.58947  -7906459.34646  21801073.6584   21801078.8614
       686.9694        535.3004         27.2504         24.7504
  -1754102.87448  -1266698.32946  21948166.9944   21948172.2094
     -2926.5624      -2280.4384         28.2504         25.5004
   1195570.09847   1033390.71746  22803057.4634   22803063.2294
     -3340.2664      -2602.8044         20.7504         16.5004
  -5143434.07646  -3919116.07846  23226788.5414   23226794.4004
       588.6564        458.6934         14.7504         14.0004
  15365327.61645  12084845.77045  23612667.0804   23612672.0724
     -3417.5944      -2663.0604         11.7504         11.0004
  -5581721.36445  -4232625.37045  23889561.2134   23889569.1044
      1965.6724       1531.6924         10.0004          9.7504
 01  7  2  0 55 30.0020000  0  7G14G20G25G11G 1G29G22
  23101816.63945  18120179.38345  25005497.0574   25005502.0844
     -3867.3124      -3013.4904          7.7504          7.5004
 -10718494.41747  -7922406.72046  21797179.4864   21797184.8304
       676.7034        527.3014         27.7504         25.0004
  -1666135.24148  -1198152.13047  21964906.9244   21964911.8114
     -2938.6414      -2289.8504         28.2504         25.7504
   1295959.08247   1111615.84546  22822161.2054   22822167.0534
     -3353.0474      -2612.7644         20.7504         16.0004
  -5161041.99346  -3932836.47446  23223438.3614   23223444.4204
       584.4694        455.4304         14.5004         13.5004
  15467867.86545  12164747.19245  23632179.3304   23632185.6464
     -3419.1414      -2664.2654         11.7504         11.2504
  -5640644.02445  -4278539.01945  23878348.9474   23878357.9754
      1961.7664       1528.6494         10.7504          9.7504
 01  7  2  0 56  0.0020000  0  7G14G20G25G11G 1G29G22
  23217835.37345  18210583.54445  25027574.8614   25027583.7134
     -3867.2814      -3013.4664          7.7504          7.5004
 -10738637.30148  -7938102.44146  21793346.0574   21793351.3774
       666.1414        519.0714         28.0004         25.2504
  -1577792.41448  -1129313.56946  21981717.9004   21981723.1154
     -2950.8594      -2299.3714         28.0004         25.2504
   1396743.75047   1190149.30846  22841339.6274   22841345.5214
     -3365.9374      -2622.8084         20.2504         16.0004
  -5178510.86046  -3946448.52146  23220114.0494   23220120.1894
       580.0944        452.0214         14.2504         13.0004
  15570468.80645  12244695.93245  23651704.1114   23651710.5454
     -3420.9064      -2665.6414         11.7504         11.5004
  -5699433.86845  -4324349.14145  23867160.5414   23867169.0884
      1957.5314       1525.3494          9.7504          9.7504
 01  7  2  0 56 30.0020000  0  7G14G20G25G11G 1G29G22
  23333863.09845  18300994.66245  25049653.4324   25049659.5844
     -3867.7034      -3013.7954          7.7504          7.7504
 -10758452.74847  -7953543.02546  21789575.3074   21789580.5574
       655.0784        510.4504         27.2504         25.0004
  -1489074.95248  -1060183.08646  21998600.4084   21998605.3074
     -2963.4534      -2309.1844         28.2504         25.5004
   1497923.49447   1268990.61346  22860593.7914   22860599.9674
     -3379.1874      -2633.1334         20.2504         16.0004
  -5195838.66046  -3959950.62346  23216816.3774   23216822.6114
       575.2814        448.2714         13.5004         13.2504
  15673132.00646  12324693.17445  23671240.5804   23671246.6974
     -3423.1254      -2667.3704         12.0004         10.7504
  -5758085.33845  -4370051.44345  23855999.4324   23856008.0614
      1952.7194       1521.5994         10.0004          9.5004
 01  7  2  0 57  0.0020000  0  7G14G20G25G11G 1G29G22
  23449895.14845  18391409.11945  25071733.8614   25071739.7094
     -3867.6254      -3013.7344          7.5004          8.0004
 -10777943.11747  -7968730.29346  21785866.4554   21785871.7054
       644.4224        502.1474         27.7504         25.2504
  -1399988.49948   -990765.08646  22015552.9714   22015558.0574
     -2975.5004      -2318.5714         28.0004         25.2504
   1599491.74147   1348134.64746  22879921.2294   22879926.9944
     -3391.8754      -2643.0194         20.0004         16.0004
  -5213029.93946  -3973346.36046  23213544.3854   23213550.7134
       570.9384        444.8864         13.2504         13.0004
  15775853.34846  12404735.72345  23690787.7914   23690793.5334
     -3424.8124      -2668.6854         12.0004         11.0004
  -5816599.35745  -4415646.64445  23844865.1044   23844872.7954
      1948.3134       1518.1664         10.5004         10.2504
 01  7  2  0 57 30.0020000  0  7G14G20G25G11G 1G29G22
  23565943.02045  18481835.92945  25093817.5884   25093823.0614
     -3868.4534      -3014.3794          8.2504          7.5004
 -10797094.64647  -7983653.53546  21782221.9244   21782227.3034
       632.7664        493.0644         27.5004         25.2504
  -1310523.82748   -921052.36246  22032577.4794   22032582.4474
     -2988.3914      -2328.6164         28.0004         25.2504
   1701457.30646   1427588.27146  22899324.4394   22899330.4864
     -3405.3914      -2653.5514         19.7504         15.7504
  -5230073.40046  -3986626.92146  23210301.5254   23210307.8304
       565.7194        440.8204         14.2504         12.5004
  15878644.10845  12484832.37845  23710347.9864   23710353.6354
     -3427.4694      -2670.7554         11.7504         10.7504
  -5874961.89345  -4461123.84045  23833758.9394   23833767.8264
      1942.9224       1513.9654         10.7504         10.5004
 01  7  2  0 58  0.0020000  0  7G14G20G25G11G 1G29G22
  23682032.68144  18572295.37845  25115907.7994   25115916.1354
     -3870.2814      -3015.8044          6.7504          6.5004
 -10815879.15147  -7998290.77846  21778647.1504   21778652.3774
       620.0944        483.1904         27.5004         25.5004
  -1220656.75348   -851026.07846  22049678.6584   22049683.5104
     -3002.1724      -2339.3554         28.0004         25.5004
   1803843.63246   1507369.78346  22918808.2994   22918814.4634
     -3419.7814      -2664.7654         19.5004         16.0004
  -5246942.98146  -3999772.00046  23207091.5804   23207097.6864
       559.5004        435.9744         15.0004         13.0004
  15981530.10445  12565003.23345  23729925.9474   23729932.2524
     -3431.0314      -2673.5314         11.2504         10.7504
  -5933143.19445  -4506459.76745  23822688.0104   23822695.4324
      1936.3914       1508.8764         11.5004         10.7504
 01  7  2  0 58 30.0020000  0  7G14G20G25G11G 1G29G22
  23798147.77845  18662774.55445  25138005.0724   25138009.9004
     -3871.0944      -3016.4374          8.2504          6.5004
 -10834310.54147  -8012652.86546  21775139.8144   21775145.2174
       608.2974        473.9984         27.2504         25.5004
  -1130405.42248   -780700.37546  22066852.9084   22066858.0294
     -3014.9534      -2349.3144         28.0004         25.0004
   1906631.80646   1587464.42746  22938368.4474   22938374.3774
     -3433.1254      -2675.1624         19.5004         16.2504
  -5263655.09346  -4012794.36746  23203911.3854   23203917.3384
       554.2664        431.8954         16.0004         13.7504
  16084494.97945  12645235.52546  23749519.6114   23749527.6074
     -3433.6724      -2675.5884         11.2504         12.2504
  -5991155.73445  -4551664.22645  23811647.7604   23811655.6624
      1930.7344       1504.4684         11.0004          9.7504
 01  7  2  0 59  0.0020000  0  7G14G20G25G11G 1G29G22
  23914290.61345  18753275.32245  25160105.7524   25160111.1784
     -3871.7664      -3016.9604          7.5004          7.5004
 -10852383.96047  -8026736.02546  21771700.5804   21771705.5844
       596.5944        464.8784         27.7504         25.5004
  -1039768.94847   -710074.57146  22084100.4324   22084105.4364
     -3027.4694      -2359.0674         27.5004         24.7504
   2009822.02946   1667872.34746  22958005.1044   22958010.9164
     -3446.2034      -2685.3534         19.7504         16.0004
  -5280207.15946  -4025692.03346  23200761.4164   23200767.2994
       549.2194        427.9634         16.7504         13.7504
  16187541.44145  12725531.45245  23769128.9634   23769135.0454
     -3436.0944      -2677.4764         11.0004         10.7504
  -6048993.42945  -4596732.41045  23800641.8934   23800649.6544
      1925.1254       1500.0974         11.5004         10.7504
 01  7  2  0 59 30.0020000  0  7G14G20G25G11G 1G29G22
  24030454.20744  18843792.37945  25182210.1504   25182218.3814
     -3872.4694      -3017.5084          7.2504          7.5004
 -10870104.28347  -8040544.03947  21768328.5414   21768333.7324
       584.7664        455.6624         27.7504         25.7504
   -948756.08947   -639155.47346  22101419.7834   22101424.6824
     -3040.0164      -2368.8434         27.7504         25.0004
   2113404.81946   1748586.15746  22977716.0254   22977722.2254
     -3459.2664      -2695.5324         19.5004         15.7504
  -5296606.23646  -4038470.48246  23197640.6044   23197646.8504
       544.0784        423.9574         17.5004         14.7504
  16290662.35445  12805885.37545  23788752.4164   23788757.7254
     -3438.6094      -2679.4364         11.0004         10.7504
  -6106660.24645  -4641667.48045  23789668.1504   23789677.1314
      1919.3594       1495.6054         11.0004         10.5004
 01  7  2  1  0  0.0020000  0  7G14G20G25G11G 1G29G22
  24146631.83345  18934320.32645  25204319.6584   25204326.3854
     -3872.9534      -3017.8864          8.2504          7.5004
 -10887475.67247  -8054080.15747  21765022.6664   21765028.0804
       573.0634        446.5424         27.7504         25.7504
   -857375.75047   -567950.02646  22118808.5494   22118813.7294
     -3052.2504      -2378.3774         27.2504         24.7504
   2217370.92046   1829598.65146  22997500.1584   22997505.9124
     -3472.0314      -2705.4794         19.5004         15.2504
  -5312858.99846  -4051134.93046  23194548.0184   23194553.9824
       539.1724        420.1344         18.2504         14.7504
  16393851.01445  12886292.06345  23808389.0644   23808394.9944
     -3440.9064      -2681.2264         11.2504         10.7504
  -6164159.72945  -4686472.15545  23778726.1114   23778733.6274
      1913.6724       1491.1734         10.7504         10.0004
 01  7  2  1  0 30.0020000  0  7G14G20G25G11G 1G29G22
  24262836.52545  19024869.30745  25226431.7444   25226439.2134
     -3873.9694      -3018.6774          7.7504          6.7504
 -10904482.86648  -8067332.49247  21761786.3774   21761791.8144
       560.7814        436.9724         28.0004         25.7504
   -765616.97448   -496449.68646  22136270.1354   22136275.2564
     -3064.9374      -2388.2634         28.0004         24.5004
   2321730.77646   1910917.96046  23017359.0184   23017364.9714
     -3485.2194      -2715.7554         19.0004         15.2504
  -5328952.31946  -4063675.12346  23191485.5414   23191491.6934
       533.7664        415.9214         18.7504         15.5004
  16497120.65545  12966761.90145  23828040.3774   23828046.6354
     -3443.6874      -2683.3934         11.2504         10.2504
  -6221474.93245  -4731133.25045  23767818.4474   23767824.9864
      1907.3594       1486.2544         10.5004          9.7504
 01  7  2  1  1  0.0020000  0  7G14G20G25G11G 1G29G22
  24379043.30944  19115419.96345  25248545.4864   25248554.0684
     -3873.5784      -3018.3734          7.2504          7.0004
 -10921148.47848  -8080318.65347  21758614.9244   21758620.1504
       549.8134        428.4254         28.0004         26.0004
   -673506.14947   -424675.02846  22153797.9714   22153802.9164
     -3076.2034      -2397.0414         27.2504         24.7504
   2426457.05146   1992522.79946  23037287.6584   23037293.7524
     -3496.9374      -2724.8864         18.5004         15.2504
  -5344911.30046  -4076110.64346  23188448.4474   23188454.3424
       529.7344        412.7804         18.7504         15.7504
  16600446.10645  13047275.18745  23847703.1744   23847709.1504
     -3445.1094      -2684.5014         11.2504         10.2504
  -6278626.93745  -4775667.13745  23756944.0184   23756951.8504
      1902.3284       1482.3344         11.5004         10.7504
 01  7  2  1  1 30.0030000  0  7G14G20G25G11G 1G29G22
  24495261.06145  19205979.14445  25270661.6474   25270668.2574
     -3875.0944      -3019.5544          7.5004          7.5004
 -10937465.76148  -8093033.40047  21755510.0854   21755515.3004
       536.8754        418.3444         28.2504         26.2504
   -581036.82547   -352621.01446  22171394.6794   22171399.7294
     -3089.2974      -2407.2444         27.5004         24.5004
   2531555.60546   2074417.71946  23057287.6794   23057293.7614
     -3510.4844      -2735.4424         18.7504         15.7504
  -5360731.42046  -4088437.94946  23185437.7104   23185443.5934
       523.8134        408.1664         18.7504         16.2504
  16703836.01145  13127838.69145  23867377.1874   23867382.8234
     -3448.4224      -2687.0824         11.2504         10.2504
  -6335609.35645  -4820068.90445  23746099.8744   23746107.0854
      1895.2814       1476.8434         11.2504         10.7504
 01  7  2  1  2  0.0030000  0  7G14G20G25G11G 1G29G22
  24611513.84444  19296565.69945  25292783.8824   25292789.7414
     -3875.7194      -3020.0414          7.2504          7.2504
 -10953399.80248  -8105449.51047  21752477.9294   21752483.1674
       524.7504        408.8964         28.2504         26.2504
   -488185.96547   -280269.71046  22189063.3974   22189068.5894
     -3101.4064      -2416.6804         27.0004         24.5004
   2637048.61746   2156620.01846  23077362.2024   23077368.3194
     -3523.0164      -2745.2074         18.7504         15.2504
  -5376380.20546  -4100631.74946  23182460.1874   23182466.7844
       518.7974        404.2574         18.5004         16.2504
  16807314.89545  13208471.54945  23887068.6164   23887075.0384
     -3450.8124      -2688.9454         11.0004         10.2504
  -6392383.77745  -4864308.56945  23735295.7724   23735303.1944
      1889.0164       1471.9604         11.2504         10.2504
 01  7  2  1  2 30.0030000  0  7G14G20G25G11G 1G29G22
  24727775.90845  19387159.37045  25314906.8974   25314914.5194
     -3876.1254      -3020.3574          7.5004          7.2504
 -10968978.23448  -8117588.53447  21749513.2334   21749518.5894
       512.7344        399.5334         28.2504         26.7504
   -394981.54447   -207642.89846  22206799.3274   22206804.6364
     -3113.2664      -2425.9214         27.2504         24.5004
   2742907.65546   2239107.52546  23097506.4914   23097512.4094
     -3535.2814      -2754.7654         19.0004         14.7504
  -5391887.47346                  23179509.1324
       513.9694                         18.0004
  16910856.98245  13289153.63545  23906771.6714   23906777.8584
     -3453.0624      -2690.6984         10.7504         11.0004
  -6448977.96045  -4908407.81845  23724526.1474   23724533.1124
      1882.8444       1467.1514         11.2504         10.7504
 01  7  2  1  3  0.0030000  0  7G14G20G25G11G 1G29G22
  24844059.61944  19477769.99445  25337035.1794   25337044.0304
     -3876.4374      -3020.6014          7.2504          6.7504
 -10984186.12748  -8129438.81147  21746619.4134   21746624.6874
       500.7814        390.2194         28.2504         26.5004
   -301412.93147   -134732.30346  22224604.6554   22224609.8824
     -3124.9694      -2435.0414         27.0004         24.2504
   2849142.54246   2321887.90746  23117722.7024   23117728.5264
     -3547.3594      -2764.1764         18.7504         15.2504
  -5407240.71446                  23176587.4994
       509.2504                         17.5004
  17014474.91945  13369894.82545  23926490.4214   23926496.3744
     -3455.1414      -2692.3174         11.2504         11.0004
  -6505375.41645  -4952353.76945  23713794.7804   23713801.4374
      1876.6254       1462.3054         11.5004         11.0004
 01  7  2  1  3 30.0030000  0  7G14G20G25G11G 1G29G22
  24960345.50545  19568382.29545  25359164.7574   25359173.4794
     -3875.5314      -3019.8944          7.7504          7.2504
 -10999041.18048  -8141014.15947  21743792.6014   21743797.9214
       489.9694        381.7944         28.2504         26.5004
   -207502.23047    -61555.14746  22242475.9054   22242481.1084
     -3135.3284      -2443.1134         27.0004         24.2504
   2955730.94546   2404943.75746  23138005.8824   23138011.8474
     -3558.1094      -2772.5534         18.2504         15.0004
  -5422459.69946     -3549.67256  23173691.2964   23173697.2144
       505.7664        394.1034         17.2504         15.7504
  17118148.83445  13450679.65745  23946219.0624   23946226.0974
     -3456.0164      -2692.9994         10.7504         10.0004
  -6561592.35646  -4996159.05245  23703096.7724   23703104.2654
      1871.5784       1458.3734         12.0004         10.7504
 01  7  2  1  4  0.0030000  0  7G14G20G25G11G 1G29G22
  25076628.25745  19658992.08445  25381292.2574   25381299.3974
     -3877.3754      -3021.3314          7.7504          7.0004
 -11013546.15048  -8152316.71147  21741032.2494   21741037.4404
       476.2974        371.1404         28.5004         26.7504
   -113256.54247     11883.04046  22260410.1944   22260415.1404
     -3148.4374      -2453.3284         27.2504         24.2504
   3062665.13646   2488269.04746  23158354.3744   23158359.9644
     -3571.5474      -2783.0244         18.2504         14.7504
  -5437549.58546    -15307.96646  23170819.5154   23170826.1714
       499.5164        389.2334         16.5004         15.7504
  17221873.49945  13531504.03345  23965956.3354   23965962.3234
     -3459.6724      -2695.8484         11.0004         10.0004
  -6617630.86045  -5039825.28445  23692432.2804   23692439.0654
      1863.6094       1452.1634         11.5004         10.7504
 01  7  2  1  4 30.0030000  0  7G14G20G25G11G 1G29G22
  25192953.08645  19749634.78245  25403427.9294   25403431.9724
     -3877.7664      -3021.6364          8.0004          7.0004
 -11027653.68748  -8163309.58047  21738347.7494   21738352.9874
       464.0314        361.5834         28.5004         26.7504
    -18632.03747     85616.41046  22278416.5544   22278421.5934
     -3160.0164      -2462.3504         27.0004         24.2504
   3169987.66946   2571896.93446  23178777.2724   23178783.0624
     -3583.4224      -2792.2774         18.2504         15.0004
  -5452465.28246    -26930.51646  23167981.2884   23167987.0894
       494.7194        385.4954         16.5004         15.5004
  17325694.16345  13612403.16945  23985713.8514   23985719.8044
     -3461.8754      -2697.5654         11.5004         10.5004
  -6673442.62345  -5083314.82645  23681811.6324   23681819.5694
      1857.0004       1447.0134         11.5004         11.2504
 01  7  2  1  5  0.0030000  0  7G14G20G25G11G 1G29G22
  25309304.67445  19840298.26145  25425569.2804   25425575.8434
     -3878.6094      -3022.2934          7.5004          6.7504
 -11041376.60548  -8174002.74747  21735736.2804   21735741.3664
       451.2034        351.5874         28.5004         26.7504
     76354.12047    159631.58646  22296491.4134   22296496.4874
     -3172.0004      -2471.6884         26.5004         24.2504
   3277680.80646   2655813.60246  23199271.0934   23199277.0584
     -3595.7194      -2801.8594         18.2504         15.0004
  -5467222.15046    -38429.28946  23165173.1164   23165179.7264
       489.4534        381.3924         16.5004         15.2504
  17429595.65845  13693365.33645  24005485.6404   24005492.1084
     -3464.5164      -2699.6234         11.2504         10.2504
  -6729039.12245  -5126636.65045  23671232.0384   23671240.1044
      1849.7974       1441.4004         11.7504         11.5004
 01  7  2  1  5 30.0030000  0  7G14G20G25G11G 1G29G22
  25425676.04945  19930977.16545  25447714.2414   25447722.5774
     -3879.2034      -3022.7564          7.7504          7.5004
 -11054719.61548  -8184399.88047  21733197.2104   21733202.4134
       438.5784        341.7494         28.5004         26.7504
    171692.77847    233921.43346  22314634.0464   22314639.1084
     -3183.6414      -2480.7594         27.0004         24.0004
   3385735.08146   2740011.67146  23219832.7104   23219838.8974
     -3607.6254      -2811.1364         18.0004         14.5004
  -5481826.92846    -49809.56846  23162393.7724   23162399.8194
       484.4694        377.5084         17.0004         15.2504
  17533571.25845  13774385.22545  24025270.1944   24025276.1834
     -3466.9064      -2701.4854         10.5004         10.2504
  -6784423.12745  -5169792.92345  23660692.2104   23660699.5384
      1842.7344       1435.8974         11.5004         11.2504
 01  7  2  1  6  0.0030000  0  7G14G20G25G11G 1G29G22
  25542074.58144  20021677.22245  25469863.6014   25469872.1834
     -3880.9694      -3024.1314          7.2504          7.7504
 -11067673.25648  -8194493.61147  21730732.0934   21730737.1554
       424.7034        330.9384         28.5004         27.0004
    267388.95347    308489.86646  22332844.5224   22332849.5504
     -3196.3914      -2490.6944         26.7504         24.0004
   3494154.83846   2824494.53246  23240464.6874   23240470.3944
     -3620.6254      -2821.2664         18.0004         14.2504
  -5496272.61846    -61065.87346  23159644.7964   23159650.8904
       478.2974        372.6994         17.5004         15.0004
  17637627.90745  13855468.25245  24045071.4214   24045078.3044
     -3470.5004      -2704.2864         10.0004         10.2504
  -6839584.42946  -5212775.60345  23650196.0854   23650202.1904
      1834.3754       1429.3834         12.2504         10.7504
 01  7  2  1  6 30.0030000  0  7G14G20G25G11G 1G29G22
  25658513.51045  20112408.76645  25492021.0154   25492026.5344
     -3882.5784      -3025.3864          7.7504          6.7504
 -11080222.10048  -8204271.91647  21728344.1164   21728349.2614
       410.9224        320.1994         28.2504         26.7504
    363454.42747    383346.06146  22351125.0694   22351129.7224
     -3208.9224      -2500.4594         26.5004         23.7504
   3602950.75146   2909270.50246  23261167.9054   23261173.8824
     -3633.3754      -2831.2014         17.7504         14.5004
  -5510545.75746    -72187.74346  23156928.4444   23156934.4444
       472.2974        368.0244         18.5004         15.5004
  17741779.13145  13936624.97345  24064891.3354   24064897.2884
     -3473.8914      -2706.9284         10.2504         10.2504
  -6894506.49445  -5255571.88545  23639744.0154   23639750.8974
      1826.1094       1422.9424         11.5004         10.7504
 01  7  2  1  7  0.0030000  0  7G14G20G25G11G 1G29G22
  25774988.05145  20203168.04445  25514186.0624   25514191.2294
     -3881.8124      -3024.7894          7.7504          7.0004
 -11092368.89448  -8213736.93647  21726032.6794   21726037.8704
       399.4224        311.2384         28.2504         27.0004
    459882.49547    458484.80046  22369474.8044   22369479.8434
     -3219.0164      -2508.3244         26.2504         23.5004
   3712115.42146   2994333.82146  23281940.8354   23281946.7294
     -3643.6724      -2839.2254         17.5004         14.5004
  -5524651.29846    -83179.00146  23154244.4054   23154250.6984
       468.6564        365.1874         19.0004         15.7504
  17846020.11845  14017851.64445  24084728.2104   24084734.9954
     -3474.9224      -2707.7314         11.0004          9.7504
  -6949190.91146  -5298182.99445  23629338.0464   23629345.4444
      1820.0784       1418.2434         12.2504         11.7504
 01  7  2  1  7 30.0030000  0  7G14G20G25G11G 1G29G22
  25891445.09845  20293913.71545  25536347.0304   25536355.0264
     -3882.1564      -3025.0574          8.0004          7.5004
 -11104164.24848  -8222928.10447  21723788.1404   21723793.4834
       386.7344        301.3514         28.0004         27.0004
    556618.06347    533863.15146  22387882.9444   22387887.9954
     -3230.1724      -2517.0174         26.5004         23.7504
   3821593.03246   3079640.97346  23302774.2884   23302780.2414
     -3655.0004      -2848.0524         17.7504         14.2504
  -5538642.09846    -94080.88146  23151582.0774   23151588.1474
       463.8914        361.4734         19.7504         15.5004
  17950297.89845  14099106.99045  24104571.4604   24104577.5424
     -3477.0944      -2709.4244         10.7504         10.2504
  -7003686.62945  -5340647.06945  23618967.3124   23618974.6164
      1812.7814       1412.5574         11.7504         11.7504
 01  7  2  1  8  0.0030000  0  7G14G20G25G11G 1G29G22
  26007946.53345  20384693.94645  25558516.8514   25558523.6364
     -3884.3594      -3026.7744          8.0004          6.7504
 -11115543.93048  -8231795.37847  21721622.5544   21721627.6754
       372.1254        289.9684         28.2504         27.2504
    653720.66347    609527.50246  22406360.9374   22406366.0694
     -3243.0944      -2527.0864         26.2504         23.2504
   3931442.94346   3165238.25046  23323678.1554   23323683.9214
     -3668.0784      -2858.2434         17.5004         14.0004
  -5552456.36646   -104845.18846  23148953.3744   23148959.3864
       457.2974        356.3354         19.7504         15.7504
  18054674.36245  14180439.24345  24124433.4294   24124440.3704
     -3481.0784      -2712.5284          9.7504         10.0004
  -7057928.13246  -5382913.03245  23608645.5544   23608652.7414
      1803.5314       1405.3494         12.2504         11.2504
 01  7  2  1  8 30.0030000  0  7G14G20G25G11G 1G29G22
  26124480.55244  20475499.64345  25580692.4524   25580700.7294
     -3884.5314      -3026.9074          7.2504          7.2504
 -11126517.88648  -8240346.49647  21719534.1874   21719539.3314
       359.4844        280.1184         28.0004         27.2504
    751176.36647    685466.99346  22424906.0384   22424911.1124
     -3253.9224      -2535.5244         26.2504         23.2504
   4041650.37146   3251114.09346  23344649.5224   23344655.5464
     -3679.0474      -2866.7904         17.0004         13.7504
  -5566106.45147   -115481.56146  23146355.6634   23146361.3354
       452.7344        352.7804         20.0004         15.5004
  18159137.42745  14261838.96945  24144311.8194   24144318.0424
     -3483.0624      -2714.0754          9.5004          9.0004
  -7111924.32646  -5424987.87945  23598371.0384   23598378.2024
      1796.2194       1399.6514         12.5004         11.5004
 01  7  2  1  9  0.0030000  0  7G14G20G25G11G 1G29G22
  26241019.63244  20566309.21445  25602868.5224   25602876.3664
     -3883.3594      -3025.9944          7.2504          6.2504
 -11137111.18448  -8248600.99847  21717518.4214   21717523.3904
       348.0944        271.2424         28.2504         27.2504
    848956.16247    761659.02846  22443513.1404   22443518.1904
     -3263.3594      -2542.8774         26.5004         23.5004
   4152185.41346   3337245.23446  23365683.7804   23365689.2534
     -3688.5784      -2874.2174         17.0004         14.0004
  -5579619.62146   -126011.25946  23143784.3434   23143790.2264
       449.5004        350.2604         19.7504         15.7504
  18263660.04345  14343285.08945  24164202.8584   24164208.6834
     -3483.7344      -2714.5984         10.7504         10.2504
  -7165699.40545  -5466890.40545  23588137.1164   23588144.4914
      1790.1414       1394.9154         11.7504         11.2504
 01  7  2  1  9 30.0030000  0  7G14G20G25G11G 1G29G22
  26357562.30444  20657121.53845  25625046.3904   25625053.2724
     -3885.1874      -3027.4194          7.2504          6.0004
 -11147323.25048  -8256558.43647  21715575.1634   21715580.3904
       333.6414        259.9804         28.0004         27.5004
    947056.57347    838100.89046  22462181.0544   22462185.9764
     -3275.7034      -2552.4964         26.0004         23.2504
   4263043.68746   3423628.23646  23386779.5544   23386785.7884
     -3701.0004      -2883.8964         17.0004         13.7504
  -5592997.23246   -136435.30746  23141238.6164   23141244.7104
       443.2814        345.4144         19.5004         16.0004
  18368240.53945  14424776.32745  24184103.5074   24184110.6364
     -3487.3444      -2717.4114         10.5004         10.2504
  -7219251.25546  -5508619.00145  23577946.8354   23577953.8824
      1780.9224       1387.7314         12.2504         11.5004
 01  7  2  1 10  0.0030000  0  7G14G20G25G11G 1G29G22
  26474117.33644  20747943.53045  25647226.9134   25647235.2494
     -3886.0624      -3028.1014          7.2504          5.7504
 -11157142.68948  -8264209.93447  21713706.6084   21713711.6834
       320.0784        249.4124         28.2504         27.2504
   1045484.55247    914798.00146  22480911.2024   22480916.2064
     -3287.0314      -2561.3234         25.7504         23.5004
   4374231.45746   3510267.99346  23407937.7884   23407943.8944
     -3712.3914      -2892.7724         17.0004         14.0004
  -5606230.48046   -146746.88046  23138720.0934   23138725.9764
       438.0314        341.3234         18.7504         16.0004
  18472887.96245  14506319.69145  24204017.1014   24204023.6514
     -3490.0474      -2719.5174         10.2504         10.0004
  -7272566.87646  -5550163.51546  23567801.4214   23567807.5624
      1772.5314       1381.1934         12.7504         12.2504
 01  7  2  1 10 30.0030000  0  7G14G20G25G11G 1G29G22
  26590681.23444  20838772.46245  25669406.7334   25669414.8004
     -3885.9064      -3027.9794          6.2504          5.5004
 -11166571.38747  -8271556.95247  21711911.9604   21711917.2334
       307.4534        239.5744         27.7504         27.2504
   1144234.07647    991745.66446  22499702.7184   22499708.0154
     -3297.2814      -2569.3104         25.7504         22.7504
   4485741.97046   3597159.22946  23429157.7884   23429163.9994
     -3722.6724      -2900.7834         16.7504         13.5004
  -5619323.29946   -156949.01246  23136228.7264   23136234.7844
       433.7814        338.0114         18.2504         16.2504
  18577598.33745  14587912.11745  24223943.3354   24223948.1284
     -3491.6874      -2720.7954         10.5004          9.7504
  -7325646.99946  -5591524.52346  23557700.3434   23557707.1284
      1765.0634       1375.3734         13.0004         12.2504
 01  7  2  1 11  0.0030000  0  7G14G20G25G11G 1G29G22
  26707265.75045  20929617.46045  25691592.9994   25691599.3624
     -3886.8124      -3028.6854          7.5004          6.2504
 -11175595.27248  -8278588.53047  21710195.2024   21710200.4054
       293.7034        228.8604         28.0004         27.5004
   1243314.93747   1068951.51346  22518557.1554   22518562.2294
     -3308.5164      -2578.0644         26.0004         22.7504
   4597584.41646   3684309.11646  23450440.5934   23450447.1904
     -3733.9224      -2909.5504         16.5004         13.2504
  -5632263.89946   -167032.52446  23133765.8194   23133771.8784
       428.4844        333.8844         17.7504         16.0004
  18682383.92145  14669563.16745  24243883.4914   24243889.0814
     -3494.4374      -2722.9384         10.7504          9.5004
  -7378476.67346  -5632690.38645  23547646.7334   23547653.7334
      1756.4534       1368.6654         12.2504         11.7504
 01  7  2  1 11 30.0030000  0  7G14G20G25G11G 1G29G22
  26823868.87045  21020477.01945  25713782.2024   25713788.1904
     -3886.4064      -3028.3694          8.0004          7.2504
 -11184214.21748  -8285304.56847  21708555.0384   21708560.3584
       281.1884        219.1074         28.2504         27.5004
   1342723.06447   1146412.37246  22537473.7654   22537479.2374
     -3318.3594      -2585.7354         25.5004         22.7504
   4709754.05746   3771713.98146  23471786.0154   23471792.1904
     -3743.7504      -2917.2084         16.5004         13.2504
  -5645054.39546   -176999.07446  23131332.1324   23131338.0734
       424.5164        330.7914         17.5004         16.0004
  18787242.43745  14751271.00845  24263837.4054   24263844.0264
     -3495.8284      -2724.0224         10.0004          9.5004
  -7431054.56246  -5673660.05745  23537641.3904   23537648.1404
      1749.0164       1362.8694         12.2504         11.5004
 01  7  2  1 12  0.0030000  0  7G14G20G25G11G 1G29G22
  26940490.12344  21111350.69345  25735973.6634   25735980.2264
     -3887.8914      -3029.5254          7.0004          6.7504
 -11192426.22748  -8291703.51847  21706992.3434   21706997.4764
       266.7194        207.8334         28.0004         27.7504
   1442456.21847   1224126.50846  22556452.2804   22556457.4254
     -3330.0474      -2594.8424         25.0004         23.0004
   4822247.74946   3859371.33746  23493193.0854   23493198.6984
     -3755.3594      -2926.2544         16.7504         13.2504
  -5657695.11446   -186848.92046  23128926.5074   23128932.5194
       418.6564        326.2264         17.5004         16.0004
  18892173.65345  14833035.52745  24283804.8354   24283813.1124
     -3499.1414      -2726.6034          9.7504          9.7504
  -7483377.11946  -5714430.75146  23527684.6794   23527691.8904
      1739.5784       1355.5154         13.0004         12.0004
 01  7  2  1 12 30.0030000  0  7G14G20G25G11G 1G29G22
  27057118.58044  21202229.87945  25758167.5854   25758171.5814
     -3888.0004      -3029.6104          6.7504          6.0004
 -11200240.22848  -8297792.32547  21705505.4524   21705510.3744
       253.5314        197.5574         28.2504         27.5004
   1542501.89147   1302084.15246  22575490.7104   22575496.1014
     -3340.3124      -2602.8414         25.5004         22.7504
   4935051.85946   3947270.58446  23514658.7104   23514665.1444
     -3765.5474      -2934.1924         16.5004         13.2504
  -5670196.81746   -196590.44846  23126547.5384   23126553.5504
       414.1414        322.7074         17.7504         16.5004
  18997166.86445  14914848.33245  24303784.5074   24303789.8744
     -3501.0784      -2728.1134          9.5004          9.2504
  -7535451.62846  -5755008.18746  23517775.7494   23517783.0074
      1731.3594       1349.1114         13.2504         12.2504
 01  7  2  1 13  0.0030000  0  7G14G20G25G11G 1G29G22
  27173776.24945  21293131.88045  25780367.7724   25780373.2224
     -3889.2344      -3030.5724          7.5004          6.0004
 -11207632.19248  -8303552.27347  21704098.5224   21704103.6904
       239.2034        186.3924         28.0004         27.7504
   1642879.40547   1380300.37546  22594591.8274   22594596.7844
     -3351.5624      -2611.6074         25.2504         22.7504
   5048185.63646   4035426.69846  23536187.4604   23536193.9404
     -3776.7344      -2942.9104         16.2504         13.2504
  -5682537.62846   -206206.59246  23124199.0774   23124205.2294
       408.5474        318.3484         18.0004         16.2504
  19102243.95245  14996726.52545  24323780.3124   24323786.1834
     -3504.1094      -2730.4754          9.7504          9.5004
  -7587252.84546  -5795372.66746  23507918.0304   23507925.1244
      1722.0004       1341.8184         13.0004         12.2504
 01  7  2  1 13 30.0030000  0  7G14G20G25G11G 1G29G22
  27290451.38245  21384047.38745  25802569.5544   25802574.3474
     -3889.6414      -3030.8894          7.5004          5.2504
 -11214611.88848  -8308990.97647  21702770.5074   21702775.4174
       225.5784        175.7754         28.2504         27.7504
   1743575.18447   1458764.60046  22613753.5544   22613758.7924
     -3361.9844      -2619.7284         25.5004         22.5004
   5161634.15246   4123828.07846  23557776.3514   23557781.9644
     -3787.0164      -2950.9214         16.2504         13.0004
  -5694729.59946   -215706.76346  23121879.1634   23121885.3514
       403.7344        314.5984         18.7504         17.0004
  19207393.14145  15078660.89945  24343789.4214   24343795.6674
     -3506.3444      -2732.2164          9.5004          9.2504
  -7638789.82246  -5835531.22946  23498110.7334   23498116.7924
      1713.2664       1335.0124         13.5004         12.5004
 01  7  2  1 14  0.0030000  0  7G14G20G25G11G 1G29G22
  27407134.00845  21474968.79745  25824774.0544   25824780.0424
     -3890.6094      -3031.6444          7.5004          7.0004
 -11221187.12348  -8314114.51347  21701519.3044   21701524.3664
       211.3444        164.6834         28.2504         28.0004
   1844577.25047   1537467.49246  22632973.6944   22632978.6634
     -3372.8754      -2628.2144         25.2504         22.2504
   5275384.58046   4212464.71546  23579422.1324   23579428.6714
     -3797.7504      -2959.2864         15.7504         13.2504
  -5706782.55946   -225098.62146  23119585.4764   23119591.6404
       398.3914        310.4344         19.2504         17.2504
  19312604.30945  15160643.57245  24363810.5304   24363817.2804
     -3509.1414      -2734.3954          9.2504          8.7504
  -7690068.89146  -5875488.82946  23488352.3124   23488359.6634
      1703.8914       1327.7074         13.0004         12.5004
 01  7  2  1 14 30.0030000  0  7G14G20G25G11G 1G29G22
  27523856.22344  21565921.11145  25846984.7104   25846994.9094
     -3890.4844      -3031.5464          6.2504          7.0004
 -11227323.41847  -8318896.02147  21700351.2804   21700356.6474
       198.1254        154.3834         27.7504         28.0004
   1945915.69147   1616432.49446  22652257.8824   22652263.1444
     -3382.6094      -2635.8004         25.0004         22.2504
   5389466.57946   4301359.68646  23601131.0074   23601137.0424
     -3807.2974      -2966.7254         15.7504         12.7504
  -5718664.46046   -234357.18546  23117324.3824   23117330.2884
       394.1414        307.1234         19.7504         17.2504
  19417909.83745  15242699.74645  24383849.1944   24383855.3824
     -3510.8284      -2735.7104          9.2504          9.2504
  -7741053.83046  -5915217.24746  23478650.4604   23478657.4724
      1695.4844       1321.1574         13.5004         12.7504
 01  7  2  1 15  0.0030000  0  7G14G20G25G11G 1G29G22
  27640613.02643  21656900.29445  25869202.4994   25869209.4174
     -3892.3444      -3032.9954          5.7504          6.7504
 -11233024.21948  -8323338.18247  21699266.5854   21699271.7294
       182.8444        142.4764         28.0004         28.0004
   2047583.17247   1695653.88546  22671604.5624   22671609.7764
     -3394.2814      -2644.8944         25.2504         22.2504
   5503871.93546   4390506.62946  23622901.6404   23622907.4644
     -3818.7504      -2975.6494         15.5004         12.5004
  -5730380.71047   -243486.66946  23115094.5774   23115100.2964
       387.8914        302.2524         20.0004         16.7504
  19523304.53845  15324825.42945  24403905.2494   24403910.8514
     -3514.5474      -2738.6084          9.5004          9.5004
  -7791746.62546  -5954718.01646  23469004.3044   23469009.9874
      1684.9694       1312.9634         14.0004         12.0004
 01  7  2  1 15 30.0030000  0  7G14G20G25G11G 1G29G22
  27757389.51844  21747894.97445  25891425.2964   25891431.3664
     -3893.2814      -3033.7264          6.5004          6.7504
 -11238301.93048  -8327450.66447  21698262.3354   21698267.4914
       168.4534        131.2624         28.0004         28.0004
   2149562.92547   1775118.61146  22691010.5934   22691015.8904
     -3404.9064      -2653.1744         25.0004         22.2504
   5618583.32146   4479892.06746  23644730.4994   23644736.3944
     -3829.2034      -2983.7954         16.0004         12.7504
  -5741945.89347   -252498.45146  23112893.9764   23112899.8704
       382.5784        298.1134         20.0004         17.2504
  19628773.68045  15407009.09645  24423976.1164   24423982.3274
     -3517.2974      -2740.7514          9.5004          9.5004
  -7842158.90846  -5994000.21646  23459410.9054   23459417.1284
      1675.2974       1305.4264         13.5004         12.2504
 01  7  2  1 16  0.0030000  0  7G14G20G25G11G 1G29G22
  27874194.84044  21838912.02045  25913653.0854   25913658.6284
     -3894.0624      -3034.3344          6.7504          6.0004
 -11243145.39948  -8331224.78147  21697340.6404   21697345.8784
       154.1254        120.0974         28.0004         28.0004
   2251862.03447   1854832.18346  22710477.1634   22710482.3904
     -3415.3444      -2661.3074         24.2504         22.0004
   5733606.64546   4569520.57946  23666618.6714   23666624.7184
     -3839.3444      -2991.6964         15.7504         13.0004
  -5753350.93647   -261385.43746  23110723.7104   23110729.5934
       377.4384        294.1074         20.0004         16.7504
  19734326.41745  15489257.93045  24444061.8904   24444067.9014
     -3519.8914      -2742.7724          9.5004          8.7504
  -7892278.45846  -6033054.30646  23449872.9834   23449879.6984
      1665.6564       1297.9144         13.2504         12.5004
 01  7  2  1 16 30.0030000  0  7G14G20G25G11G 1G29G22
  27991024.51944  21929948.05645  25935884.7264   25935896.0734
     -3894.3284      -3034.5414          7.0004          6.5004
 -11247556.78347  -8334662.20647  21696501.0854   21696506.4994
       140.2344        109.2744         27.7504         28.2504
   2354474.13847   1934789.64746  22730003.9294   22730009.1444
     -3425.1724      -2668.9654         24.7504         21.7504
   5848935.07946   4659386.80846  23688565.1714   23688571.6404
     -3848.9224      -2999.1604         15.2504         12.7504
  -5764600.05946   -270150.94546  23108582.6164   23108588.5934
       372.7814        290.4794         19.5004         16.7504
  19839958.78245  15571568.81245  24464163.1634   24464170.4334
     -3521.9844      -2744.4034          9.5004          9.2504
  -7942105.65046  -6071880.59546  23440391.2964   23440396.6634
      1656.3914       1290.6944         13.5004         12.5004
 01  7  2  1 17  0.0030000  0  7G14G20G25G11G 1G29G22
  28107855.67644  22020985.18645  25958117.5854   25958123.1044
     -3894.8284      -3034.9314          7.2504          5.7504
 -11251557.11248  -8337779.33147  21695739.9294   21695744.7924
       126.0474         98.2184         28.0004         28.5004
   2457374.14347   2014971.44846  22749585.0464   22749590.0854
     -3435.2034      -2676.7824         24.5004         22.0004
   5964542.66546   4749470.59146  23710564.6874   23710570.8974
     -3858.6414      -3006.7334         15.2504         12.2504
  -5775716.39546   -278812.97146  23106467.2494   23106473.2374
       367.9064        286.6804         19.2504         16.7504
  19945647.36145  15653923.47545  24484274.7724   24484280.8434
     -3524.3284      -2746.2304          9.0004          8.7504
  -7991659.78946  -6110494.11446  23430961.1244   23430968.2184
      1646.7814       1283.2064         13.7504         13.2504
 01  7  2  1 17 30.0030000  0  7G14G20G25G11G 1G29G22
  28224712.27544  22112042.24545  25980353.3974   25980361.0074
     -3895.5314      -3035.4794          6.5004          6.2504
 -11255120.42347  -8340555.92247  21695061.8974   21695066.9134
       111.5784         86.9444         27.7504         28.2504
   2560584.31347   2095394.93946  22769225.3044   22769230.5194
     -3445.3594      -2684.6964         24.5004         21.7504
   6080450.25946   4839788.10346  23732621.0624   23732626.9444
     -3868.4374      -3014.3674         15.2504         12.2504
  -5786676.21546   -287353.02646  23104381.7574   23104387.8154
       362.8284        282.7234         19.0004         17.0004
  20051416.46545  15736340.89745  24504401.9374   24504409.1244
     -3526.8754      -2748.2144          9.0004          9.5004
  -8040913.85646  -6148873.78946  23421587.8904   23421594.4874
      1636.8914       1275.4994         13.5004         12.7504
 01  7  2  1 18  0.0030000  0  7G14G20G25G11G 1G29G22
  28341571.28344  22203101.16245  26002592.5624   26002597.8474
     -3894.2974      -3034.5174          7.2504          6.5004
 -11258267.83947  -8343008.43947  21694463.0074   21694468.1514
        98.9844         77.1314         27.7504         28.2504
   2664079.00147   2176040.13246  22788919.8514   22788925.1944
     -3453.5164      -2691.0514         24.5004         21.5004
   6196631.81346   4930319.12346  23754730.2494   23754736.8474
     -3876.2344      -3020.4424         15.0004         12.5004
  -5797502.70246   -295789.19646  23102321.4524   23102327.3584
       359.6724        280.2644         18.7504         17.0004
  20157242.72245  15818802.85245  24524540.2104   24524545.9764
     -3527.4374      -2748.6534          9.2504          9.0004
  -8089888.13746  -6187035.46746  23412269.1794   23412275.9294
      1628.7974       1269.1924         14.5004         13.0004
 01  7  2  1 18 30.0030000  0  7G14G20G25G11G 1G29G22
  28458425.52744  22294156.37745  26024828.4374   26024834.7884
     -3895.6724      -3035.5884          6.5004          6.0004
 -11261004.26847  -8345140.70347  21693942.1874   21693947.1674
        83.7344         65.2484         27.7504         28.2504
   2767848.90547   2256899.77846  22808666.8194   22808671.9054
     -3464.1724      -2699.3554         24.5004         21.7504
   6313077.48146   5021055.93446  23776888.5774   23776894.5074
     -3886.5004      -3028.4424         15.2504         12.2504
  -5808202.76846   -304126.85346  23100285.1634   23100291.2224
       353.9534        275.8084         19.0004         17.2504
  20263119.36845  15901304.05845  24544687.4994   24544692.6554
     -3530.6564      -2751.1614          8.7504          8.5004
  -8138586.20046  -6224981.90546  23403001.7494   23403008.2534
      1618.0164       1260.7914         14.0004         13.0004
 01  7  2  1 19  0.0030000  0  7G14G20G25G11G 1G29G22
  28575307.05843  22385232.76745  26047070.1244   26047076.4054
     -3896.2664      -3036.0514          6.0004          7.2504
 -11263295.74147  -8346926.25247  21693506.0694   21693511.1204
        69.2034         53.9254         27.7504         28.5004
   2871924.33147   2337997.49746  22828471.4444   22828476.6834
     -3474.0004      -2707.0134         24.2504         21.5004
   6429816.52646   5112021.35046  23799103.8194   23799109.9254
     -3895.8914      -3035.7594         15.0004         12.5004
  -5818744.51746   -312341.14846  23098279.1164   23098285.0584
       349.0004        271.9484         19.2504         17.7504
  20369078.28945  15983869.39445  24564851.2104   24564856.8824
     -3533.0784      -2753.0484          9.0004          9.0004
  -8186972.11646  -6262685.11846  23393794.0464   23393800.1164
      1607.8754       1252.8904         14.0004         13.2504
 01  7  2  1 19 30.0030000  0  7G14G20G25G11G 1G29G22
  28692189.84044  22476310.22445  26069312.8354   26069318.9764
     -3896.9694      -3036.5994          6.5004          6.0004
 -11265166.44547  -8348383.92647  21693150.1324   21693155.3944
        54.4534         42.4314         27.7504         28.7504
   2976277.18547   2419311.38446  22848328.9994   22848334.4484
     -3483.8914      -2714.7204         23.7504         21.5004
   6546819.81646   5203192.65446  23821368.8274   23821375.1444
     -3905.3594      -3043.1374         14.7504         12.0004
  -5829154.09246   -320452.45446  23096298.2184   23096304.2064
       343.9064        267.9794         19.7504         18.2504
  20475093.44545  16066478.52745  24585025.2884   24585031.2294
     -3535.6414      -2755.0454          9.2504          8.7504
  -8235068.53746  -6300162.76146  23384641.3744   23384648.4334
      1597.4844       1244.7934         13.7504         13.5004
 01  7  2  1 20  0.0030000  0  7G14G20G25G11G 1G29G22
  28809102.19244  22567410.64345  26091559.9684   26091569.7104
     -3897.4224      -3036.9524          6.2504          6.2504
 -11266585.88847  -8349489.97147  21692880.0224   21692884.9334
        39.9224         31.1084         27.7504         28.7504
   3080933.54647   2500861.77146  22868244.3904   22868249.7454
     -3493.4374      -2722.1594         24.0004         21.2504
   6664112.70846   5294589.64545  23843688.6794   23843695.0194
     -3914.4064      -3050.1874         14.7504         11.5004
  -5839403.20047   -328438.71946  23094348.2334   23094354.2574
       339.1094        264.2414         20.5004         18.2504
  20581193.43345  16149153.79645  24605215.7334   24605223.2614
     -3537.9224      -2756.8224          9.7504          9.0004
  -8282844.07146  -6337390.32046  23375549.8354   23375556.0694
      1587.2814       1236.8434         14.2504         13.0004
 01  7  2  1 20 30.0030000  0  7G14G20G25G11G 1G29G22
  28926021.38644  22658516.40645  26113807.9994   26113813.9404
     -3897.8124      -3037.2564          6.2504          5.7504
 -11267574.91947  -8350260.62947  21692691.5624   21692696.6944
        25.3754         19.7734         27.5004         28.7504
   3185868.86047   2582629.52446  22888212.9834   22888218.1284
     -3502.8594      -2729.5014         23.7504         21.2504
   6781669.71046   5386192.42646  23866058.8974   23866065.2724
     -3923.3284      -3057.1394         14.5004         12.0004
  -5849514.64547   -336317.71846  23092423.6944   23092429.6364
       334.3444        260.5284         21.2504         18.7504
  20687355.50745  16231877.40845  24625418.0624   24625423.7334
     -3540.1724      -2758.5754          9.7504          8.7504
  -8330318.59346  -6374383.37046  23366515.9604   23366522.2654
      1577.0314       1228.8564         14.2504         13.5004
 01  7  2  1 21  0.0030000  0  7G14G20G25G11G 1G29G22
  29042951.80844  22749630.95945  26136060.7334   26136068.8124
     -3898.4694      -3037.7684          6.5004          6.0004
 -11268126.90247  -8350690.72847  21692586.4604   21692591.6404
        10.4844          8.1704         27.2504         28.7504
   3291085.37847   2664616.39646  22908235.1944   22908240.5974
     -3512.5004      -2737.0134         24.0004         21.0004
   6899492.34746   5478002.18645  23888480.2104   23888486.5034
     -3932.4224      -3064.2254         14.7504         11.7504
  -5859483.96847   -344085.98146  23090526.7654   23090532.6834
       329.3284        256.6194         21.5004         19.0004
  20793584.10345  16314652.89045  24645633.6714   24645639.9764
     -3542.6724      -2760.5244          9.5004          8.5004
  -8377483.77546  -6411135.35746  23357540.4444   23357547.7144
      1566.3594       1220.5404         13.7504         13.5004
 01  7  2  1 21 30.0030000  0  7G14G20G25G11G 1G29G22
  29159930.61044  22840783.27545  26158320.9684   26158328.8704
     -3900.0474      -3038.9984          6.5004          5.7504
 -11268203.17747  -8350750.14547  21692572.1324   21692577.1594
        -5.3594         -4.1764         27.5004         28.7504
   3396617.82147   2746849.44746  22928317.2964   22928322.3004
     -3522.9534      -2745.1584         24.0004         21.2504
   7017614.54646   5570045.39546  23910958.5224   23910964.4764
     -3942.3284      -3071.9444         14.7504         12.0004
  -5869274.12347   -351714.62146  23088663.7184   23088669.7884
       323.3914        251.9934         21.5004         19.0004
  20899916.23745  16397509.05045  24665866.8744   24665873.2264
     -3546.0944      -2763.1904          8.2504          9.2504
  -8424298.91846  -6447614.58346  23348631.8584   23348638.2924
      1554.6724       1211.4334         14.5004         13.5004
 01  7  2  1 22  0.0040000  0  7G14G20G25G11G 1G29G22
  29276948.52344  22931965.95445  26180588.2304   26180594.2074
     -3901.0624      -3039.7894          6.2504          6.2504
 -11267814.87447  -8350447.55047  21692645.9024   21692651.0704
       -20.7504        -16.1694         27.2504         28.7504
   3502454.45547   2829319.52646  22948457.2934   22948462.4844
     -3532.7974      -2752.8294         23.5004         21.0004
   7136024.16646   5662312.56045  23933491.1214   23933497.7544
     -3951.5944      -3079.1644         14.5004         11.5004
  -5878898.67347   -359214.22646  23086832.1444   23086838.0274
       318.0164        247.8044         21.5004         18.7504
  21006342.40145  16480438.41745  24686119.1134   24686126.2074
     -3548.9374      -2765.4064          9.0004          8.5004
  -8470775.58246  -6483830.07546  23339787.5434   23339794.6254
      1543.4384       1202.6794         14.7504         13.2504
 01  7  2  1 22 30.0040000  0  7G14G20G25G11G 1G29G22
  29393996.50844  23023172.06245  26202861.9024   26202868.4884
     -3902.3914      -3040.8244          6.2504          6.2504
 -11266960.81247  -8349782.02547  21692808.3014   21692813.5514
       -36.4694        -28.4174         27.2504         28.7504
   3608585.44347   2912018.97846  22968653.3094   22968658.5824
     -3542.8444      -2760.6574         23.2504         20.7504
   7254709.70346   5754794.71745  23956075.7234   23956082.0274
     -3961.0314      -3086.5184         14.2504         11.5004
  -5888358.02447   -366585.10246  23085031.7304   23085037.6604
       312.3594        243.3974         21.0004         18.5004
  21112854.61845  16563434.90245  24706388.1914   24706394.7894
     -3552.0944      -2767.8654          8.7504          8.5004
  -8516908.79546  -6519777.93746  23331008.7854   23331015.1724
      1531.8284       1193.6324         15.0004         13.7504
 01  7  2  1 23  0.0040000  0  7G14G20G25G11G 1G29G22
  29511033.63144  23114369.66045  26225132.9344   26225141.9734
     -3901.2814      -3039.9594          6.2504          5.0004
 -11265684.05847  -8348787.13247  21693051.3944   21693056.5274
       -49.8594        -38.8514         27.0004         28.7504
   3714967.13747   2994913.77046  22988897.2384   22988902.3594
     -3550.4534      -2766.5874         23.5004         21.0004
   7373627.24046   5847457.65645  23978705.0664   23978711.4184
     -3967.9844      -3091.9364         14.0004         11.5004
  -5897697.36447   -373862.46746  23083254.8404   23083260.8054
       309.0634        240.8284         21.2504         18.5004
  21219411.50545  16646466.22645  24726665.1524   24726675.8554
     -3552.8754      -2768.4744          8.7504          9.2504
  -8562741.61846  -6555491.71546  23322287.1294   23322293.0004
      1522.4694       1186.3394         14.7504         14.0004
 01  7  2  1 23 30.0040000  0  7G14G20G25G11G 1G29G22
  29628088.25844  23205580.99745  26247409.1604   26247413.1804
     -3902.2504      -3040.7144          6.2504          4.7504
 -11263954.76647  -8347439.60847  21693380.4104   21693385.3444
       -65.3594        -50.9294         27.5004         28.7504
   3821625.34847   3078024.02546  23009193.9184   23009199.1804
     -3560.0004      -2774.0264         23.7504         20.7504
   7492801.48546   5940320.61845  24001383.4024   24001390.2114
     -3976.8594      -3098.8514         14.2504         11.7504
  -5906888.81147   -381024.58746  23081505.9884   23081511.9884
       303.7814        236.7134         21.0004         18.2504
  21326041.22445                  24746955.7934
     -3555.6724                          9.0004
  -8608242.31846  -6590946.71746  23313628.0984   23313634.3794
      1510.9694       1177.3784         14.5004         13.0004
 01  7  2  1 24  0.0040000  0  7G14G20G25G11G 1G29G22
  29745153.16744  23296800.38245  26269685.9884   26269696.6094
     -3901.8444      -3040.3984          6.5004          5.0004
 -11261778.05747  -8345743.44747  21693794.7464   21693799.5394
       -79.5474        -61.9854         27.5004         29.0004
   3928550.90347   3161342.61146  23029540.9494   23029546.0474
     -3568.1254      -2780.3574         23.2504         20.5004
   7612222.36846   6033375.75745  24024108.6374   24024114.2974
     -3984.2814      -3104.6354         14.2504         11.5004
  -5915939.41147   -388076.95446  23079783.6054   23079789.5004
       299.8444        233.6444         20.7504         18.0004
  21432736.61145     36030.38855  24767259.5124   24767265.4534
     -3557.1094      -2771.7744          9.0004          8.7504
  -8653414.63346  -6626145.83546  23305031.9414   23305038.4574
      1500.7344       1169.4034         14.7504         14.0004
 01  7  2  1 24 30.0040000  0  7G14G20G25G11G 1G29G22
  29862225.32744  23388025.46545  26291964.4654   26291979.9844
     -3902.9224      -3041.2384          6.2504          5.0004
 -11259154.86347  -8343699.37247  21694293.7304   21694298.7694
       -95.2974        -74.2574         27.2504         29.0004
   4035738.71347   3244865.55446  23049938.3554   23049943.7234
     -3577.6724      -2787.7964         23.2504         20.2504
   7731884.23846   6126618.71345  24046878.8944   24046884.8484
     -3993.0944      -3111.5024         14.2504         11.5004
  -5924852.21447   -395021.95846  23078087.3634   23078093.2234
       294.4064        229.4074         20.5004         18.0004
  21539494.76345    119218.46145  24787575.5124   24787581.1724
     -3560.0624      -2774.0754          9.2504          8.2504
  -8698258.36746  -6661088.92246  23296498.8484   23296505.4224
      1488.8914       1160.1754         15.0004         14.0004
 01  7  2  1 25  0.0040000  0  7G14G20G25G11G 1G29G22
  29979331.11344  23479276.65245  26314247.6844   26314255.4574
     -3904.2814      -3042.2974          6.5004          5.0004
 -11256057.08347  -8341285.49447  21694883.3554   21694888.2894
      -111.3754        -86.7864         27.0004         29.0004
   4143213.59647   3328612.18246  23070390.1444   23070395.4654
     -3587.4534      -2795.4184         23.2504         20.5004
   7851810.43046   6220067.61745  24069701.0044   24069706.8404
     -4002.0944      -3118.5154         14.2504         11.7504
  -5933600.84047   -401839.02946  23076422.1914   23076428.2154
       288.7034        224.9634         20.5004         17.7504
  21646342.25645    202476.19045  24807906.9574   24807912.6294
     -3563.2664      -2776.5714          7.7504          8.0004
  -8742744.30146  -6695753.19546  23288033.3714   23288039.7814
      1476.6724       1150.6534         15.7504         14.2504
 01  7  2  1 25 30.0040000  0  7G14G20G25G11G 1G29G22
  30096451.78544  23570539.26545  26336535.4654   26336545.7584
     -3903.6564      -3041.8104          6.5004          5.7504
 -11252501.56447  -8338514.93847  21695559.8874   21695564.9494
      -125.5784        -97.8534         27.0004         29.0004
   4250954.62447   3412566.21146  23090892.0514   23090897.3364
     -3595.1874      -2801.4454         22.5004         20.5004
   7971979.21846   6313705.53945  24092568.0514   24092574.9924
     -4009.0474      -3123.9334         13.5004         11.5004
  -5942203.99247   -408542.73446  23074785.3714   23074791.1484
       284.9384        222.0294         21.0004         18.2504
  21753260.25945    285788.87745  24828252.5594   24828259.4304
     -3564.5314      -2777.5574          8.0004          8.5004
  -8786887.56046  -6730150.45246  23279632.6294   23279638.8874
      1466.2814       1142.5574         15.2504         14.2504
 01  7  2  1 26  0.0040000  0  7G14G20G25G11G 1G29G22
  30213587.42444  23661813.75345  26358825.8404   26358830.0704
     -3904.0624      -3042.1274          7.2504          5.5004
 -11248486.33847  -8335386.17347  21696323.8714   21696329.0394
      -140.7974       -109.7124         26.7504         29.0004
   4358959.53847   3496725.84746  23111444.7694   23111450.1724
     -3603.8124      -2808.1664         22.2504         20.2504
   8092387.63246   6407530.18645  24115480.9494   24115487.7934
     -4016.8444      -3130.0084         13.2504         10.7504
  -5950661.74647   -415133.14446  23073175.5664   23073181.6954
       280.2344        218.3644         21.5004         18.7504
  21860249.11645    369156.75945  24848612.5904   24848617.3124
     -3566.7504      -2779.2864          9.0004          8.0004
  -8830684.41146  -6764277.76446  23271299.1134   23271305.3244
      1454.8134       1133.6204         15.7504         14.2504
 01  7  2  1 26 30.0040000  0  7G14G20G25G11G 1G29G22
  30330747.21244  23753107.11845  26381119.6764   26381126.2034
     -3904.8284      -3042.7234          6.5004          6.2504
 -11244000.63647  -8331890.80247  21697177.4024   21697182.5704
      -156.4844       -121.9364         26.7504         29.0004
   4467235.38447   3581096.60246  23132049.1914   23132054.8164
     -3612.7974      -2815.1664         22.2504         20.0004
   8213041.65746   6501546.21845  24138441.1054   24138447.7274
     -4024.9694      -3136.3394         13.2504         11.0004
  -5958964.89547   -421603.08346  23071595.8404   23071601.7934
       275.0944        214.3594         22.0004         19.0004
  21967317.67945    452586.73745  24868987.6214   24868993.7734
     -3569.3754      -2781.3314          9.0004          8.2504
  -8874122.58246  -6798125.62146  23263032.8484   23263039.2934
      1442.8284       1124.2824         15.2504         14.0004
 01  7  2  1 27  0.0040000  0  7G14G20G25G11G 1G29G22
  30447898.88644  23844394.01145  26403413.8324   26403421.6764
     -3904.5784      -3042.5284          6.2504          5.0004
 -11239074.80347  -8328052.47847  21698114.7774   21698119.8164
      -171.2194       -133.4174         27.0004         29.0004
   4575747.41647   3665651.38746  23152698.5434   23152703.7234
     -3620.6414      -2821.2784         22.5004         20.0004
   8333906.13846   6595726.27445  24161440.2304   24161446.5004
     -4031.9534      -3141.7824         13.2504         10.7504
  -5967145.76547   -427977.74446  23070039.0194   23070044.8204
       271.0004        211.1694         22.0004         19.2504
  22074433.68645    536053.71545  24889369.3324   24889377.0474
     -3570.9844      -2782.5854          7.7504          8.5004
  -8917231.63346  -6831716.99946  23254828.8244   23254835.0354
      1431.7814       1115.6744         15.5004         14.2504
 01  7  2  1 27 30.0040000  0  7G14G20G25G11G 1G29G22
  30565067.01443  23935693.63345  26425709.8244   26425717.4924
     -3906.1874      -3043.7824          6.0004          5.7504
 -11233681.87247  -8323850.17547  21699140.9654   21699146.1444
      -187.8754       -146.3964         27.0004         29.2504
   4684519.18047   3750408.57346  23173397.3634   23173402.6954
     -3630.3284      -2828.8274         22.7504         20.0004
   8455003.08346   6690087.44045  24184484.9104   24184491.0984
     -4040.7194      -3148.6124         14.0004         11.0004
  -5975179.41047   -434237.68046  23068509.9804   23068516.1564
       265.0314        206.5184         22.2504         19.7504
  22181622.45045    619577.30645  24909767.4804   24909775.4304
     -3574.4694      -2785.3004          7.7504          7.7504
  -8959983.38646  -6865029.97346  23246693.4654   23246699.8754
      1418.7664       1105.5324         15.2504         14.5004
 01  7  2  1 28  0.0040000  0  6G20G25G11G 1G29G22
 -11227819.16047  -8319281.81647  21700256.8014   21700261.8874
      -202.7974       -158.0244         27.0004         29.2504
   4793549.39447   3835367.14246  23194144.9414   23194150.3674
     -3638.1564      -2834.9274         22.5004         20.0004
   8576330.84046   6784628.46345  24207573.0194   24207579.2194
     -4047.5944      -3153.9694         13.7504         11.2504
  -5983064.70647   -440382.03946  23067009.8094   23067015.5514
       260.8444        203.2554         22.2504         19.7504
  22288884.97045    703158.40945  24930179.7934   24930186.1334
     -3576.1874      -2786.6404          7.7504          7.5004
  -9002372.83246  -6898060.61546  23238627.3014   23238633.2194
      1407.3754       1096.6564         16.0004         14.2504
 01  7  2  1 28 30.0040000  0  6G20G25G11G 1G29G22
 -11221491.97647  -8314351.52647  21701460.8484   21701465.7234
      -218.9694       -170.6254         27.2504         29.5004
   4902828.96947   3920520.02546  23214940.0194   23214945.9264
     -3647.0784      -2841.8794         21.7504         19.5004
   8697879.07946   6879341.30045  24230702.2774   24230709.3124
     -4055.5474      -3160.1664         13.2504         11.0004
  -5990808.89047   -446416.42846  23065535.6844   23065541.5554
       255.5004        199.0914         22.0004         19.5004
  22396214.20845    786791.52645  24950602.6444   24950609.5744
     -3579.0624      -2788.8804          7.7504          8.2504
  -9044403.77146  -6930811.91046  23230628.8094   23230635.0434
      1394.7194       1086.7944         16.0004         14.7504
 01  7  2  1 29  0.0040000  0  6G20G25G11G 1G29G22
 -11214680.22447  -8309043.65447  21702756.9574   21702761.8674
      -234.4374       -182.6794         27.2504         29.5004
   5012373.84747   4005879.63646  23235785.6054   23235790.9494
     -3655.1724      -2848.1864         22.0004         19.7504
   8819662.85646   6974237.69445  24253877.4964   24253884.1174
     -4062.6414      -3165.6944         13.2504         11.0004
  -5998393.68047   -452326.61146  23064092.3014   23064098.2304
       250.8914        195.4994         21.5004         19.2504
  22503628.56645    870490.93645  24971043.6444   24971050.7624
     -3581.1874      -2790.5364          8.0004          8.2504
  -9086055.05246  -6963267.39346  23222703.1134   23222709.2074
      1382.7344       1077.4554         16.2504         14.7504
 01  7  2  1 29 30.0040000  0  6G20G25G11G 1G29G22
 -11207390.04147  -8303362.98047  21704144.2154   21704149.1844
      -251.2664       -195.7914         27.0004         29.5004
   5122174.10347   4091438.23746  23256680.4414   23256685.5864
     -3664.5004      -2855.4554         22.5004         19.5004
   8941671.53846   7069309.31145  24277095.4024   24277102.1764
     -4070.9224      -3172.1474         13.0004         10.7504
  -6005827.07547   -458118.82446  23062677.9344   23062683.7584
       244.9844        190.8974         21.2504         19.0004
  22611119.96845    954250.42045  24991498.3164   24991505.1134
     -3584.5944      -2793.1904          7.5004          8.0004
  -9127331.82546  -6995431.01146  23214848.7624   23214854.9374
      1369.3444       1067.0214         17.0004         14.7504
 01  7  2  1 30  0.0040000  0  6G20G25G11G 1G29G22
 -11199613.76047  -8297303.53447  21705623.9884   21705628.8984
      -267.0784       -208.1134         26.7504         29.5004
   5232233.63447   4177198.87846  23277624.1524   23277629.5784
     -3672.7034      -2861.8474         22.0004         19.5004
   9063907.78446   7164558.23745  24300355.5744   24300361.9024
     -4078.0624      -3177.7114         12.7504         11.0004
  -6013103.10947   -463788.42046  23061293.5194   23061299.4964
       240.1564        187.1354         21.2504         18.7504
  22718694.57045   1038074.69645  25011969.7934   25011976.3444
     -3586.9694      -2795.0414          8.0004          7.5004
  -9168224.60446  -7027295.43746  23207066.0744   23207072.4494
      1356.9064       1057.3304         16.2504         15.2504
 01  7  2  1 30 30.0040000  0  6G20G25G11G 1G29G22
 -11191353.27647  -8290866.78747  21707195.8014   21707200.7814
      -282.8444       -220.3984         26.7504         29.5004
   5342546.48447   4263156.91246  23298615.6684   23298621.3284
     -3680.7034      -2868.0804         22.0004         19.5004
   9186364.82646   7259979.24945  24323659.0274   24323665.5194
     -4084.9534      -3183.0804         13.0004         10.5004
  -6020225.70247   -469338.45246  23059937.6054   23059943.5354
       235.4534        183.4704         20.7504         18.7504
  22826348.54745   1121960.80145  25032454.3634   25032461.0314
     -3589.1874      -2796.7694          7.5004          8.5004
  -9208733.63846  -7058860.84746  23199357.7544   23199363.5084
      1344.4694       1047.6384         16.7504         15.2504
 01  7  2  1 31  0.0040000  0  6G20G25G11G 1G29G22
 -11182636.46647  -8284074.46247  21708854.4734   21708859.5004
      -298.5474       -232.6344         26.7504         29.7504
   5453081.44847   4349288.01746  23319649.7304   23319655.4844
     -3688.5314      -2874.1804         21.5004         19.2504
   9309010.53246   7355547.26545  24346997.5354   24347003.1954
     -4091.6564      -3188.3044         12.7504         10.2504
  -6027224.09847   -474791.71146  23058606.2544   23058612.1604
       230.8444        179.8784         21.5004         19.0004
  22934052.68945   1205886.11045  25052950.9414   25052958.0354
     -3591.3444      -2798.4504          8.0004          8.0004
  -9248885.11146  -7090147.61746  23191717.0744   23191723.4144
      1332.0164       1037.9344         16.5004         15.2504
 01  7  2  1 31 30.0040000  0  6G20G25G11G 1G29G22
 -11173440.86347  -8276909.05047  21710604.4804   21710609.5664
      -314.7814       -245.2844         26.7504         29.7504
   5563856.14247   4435605.92946  23340729.7544   23340734.9104
     -3696.7344      -2880.5724         21.7504         19.2504
   9431862.31946   7451275.85045  24370375.0744   24370381.1564
     -4098.7344      -3193.8194         12.5004         10.2504
  -6034077.80547   -480132.23046  23057302.0434   23057308.1724
       225.7814        175.9334         21.7504         19.0004
  23041827.49145   1289866.38845  25073460.2234   25073467.3984
     -3593.9534      -2800.4834          7.7504          8.5004
  -9288655.62746  -7121137.56746  23184149.2624   23184155.5434
      1319.0474       1027.8294         16.7504         15.5004
 01  7  2  1 32  0.0040000  0  6G20G25G11G 1G29G22
 -11163759.41247  -8269365.05647  21712446.7234   21712451.6564
      -330.5004       -257.5324         26.7504         29.7504
   5674874.70447   4522113.86146  23361855.5514   23361861.1174
     -3704.3444      -2886.5024         21.2504         19.0004
   9554922.51046   7547166.86745  24393793.1054   24393799.2934
     -4105.1254      -3198.7994         12.2504         10.0004
  -6040781.23547   -485355.64546  23056026.3094   23056032.2274
       221.2664        172.4154         22.2504         19.2504
  23149678.66645   1373906.13345  25093983.7074   25093989.9654
     -3595.9844      -2802.0664          8.0004          7.7504
  -9328036.87446  -7151824.16646  23176654.8164   23176660.5944
      1306.5004       1018.0524         16.7504         15.2504
 01  7  2  1 32 30.0040000  0  6G20G25G11G 1G29G22
 -11153606.92847  -8261454.02247  21714378.8714   21714383.7234
      -346.8754       -270.2924         27.0004         29.7504
   5786118.56147   4608797.35946  23383024.4414   23383029.8324
     -3712.4534      -2892.8214         21.2504         19.0004
   9678171.59446   7643205.02145  24417246.7854   24417252.4104
     -4112.0164      -3204.1684         12.7504          9.7504
  -6047350.93247   -490474.85446  23054776.0124   23054782.2234
       216.1724        168.4464         22.5004         19.5004
  23257589.57745   1457992.52745  25114518.4884   25114524.7934
     -3598.6094      -2804.1114          8.2504          8.2504
  -9367041.52946  -7182217.32946  23169232.4104   23169238.5864
      1293.2664       1007.7394         16.7504         15.2504
 01  7  2  1 33  0.0040000  0  6G20G25G11G 1G29G22
 -11142955.24747  -8253154.00547  21716405.7234   21716410.6334
      -363.0314       -282.8814         27.0004         29.7504
   5897611.93647   4695675.27846  23404241.3164   23404246.9654
     -3720.2034      -2898.8604         21.0004         18.7504
   9801632.97746   7739408.63145  24440740.4104   24440746.4454
     -4118.5164      -3209.2334         12.2504          9.7504
  -6053760.58847   -495469.35246  23053556.3014   23053562.1604
       211.3594        164.6964         23.0004         19.2504
  23365586.63445   1542145.95545  25135068.8944   25135075.2234
     -3600.9844      -2805.9624          8.0004          7.5004
  -9405640.06746  -7212294.03946  23161887.7544   23161893.8714
      1280.1724        997.5374         17.0004         15.2504
 01  7  2  1 33 30.0040000  0  7G20G25G11G13G 1G29G22
 -11131826.78747  -8244482.46847  21718523.4414   21718528.4224
      -378.8444       -295.2034         26.7504         30.0004
   6009328.37347   4782727.01546  23425500.1844   23425505.5514
     -3727.5004      -2904.5454         21.2504         19.2504
   9925279.74145   7835756.67845  24464269.6134   24464275.9774
     -4124.5474      -3213.9334         11.5004         10.0004
    -13800.63251                  25971262.3164
      1254.6254                          2.7504
  -6060034.24647   -500357.88046  23052362.3404   23052368.3054
       206.9224        161.2384         22.7504         20.0004
  23473645.89245   1626347.92145  25155632.0514   25155639.8124
     -3602.9534      -2807.4964          7.5004          7.5004
  -9443853.46746  -7242070.63146  23154615.7154   23154622.0904
      1267.4064        987.5894         17.5004         15.5004
 01  7  2  1 34  0.0040000  0  7G20G25G11G13G 1G29G22
 -11120203.89547  -8235425.65747  21720735.1134   21720740.0474
      -395.0314       -307.8174         26.7504         29.7504
   6121282.21847   4869963.74746  23446804.2544   23446809.8324
     -3735.0784      -2910.4504         21.2504         19.0004
  10049124.95645   7932259.36945  24487836.9494   24487843.2664
     -4130.7814      -3218.7914         11.2504          9.2504
     -6264.98551                  25964105.5984
      1253.3754                          2.7504
  -6066155.63947   -505127.75746  23051197.3554   23051203.1804
       202.1564        157.5244         22.5004         20.0004
  23581783.68245   1710611.04445  25176210.0744   25176219.2194
     -3605.2504      -2809.2864          7.7504          8.2504
  -9481662.87646  -7271532.43146  23147420.5664   23147426.9774
      1254.2034        977.3014         17.0004         15.2504
 01  7  2  1 34 30.0040000  0  6G20G25G11G 1G29G22
 -11108094.93347  -8225990.09647  21723039.3244   21723044.4454
      -411.8124       -320.8934         26.5004         30.0004
   6233461.35347   4957376.02346  23468151.3554   23468156.6294
     -3743.0944      -2916.6964         20.7504         18.5004
  10173155.33946   8028906.32145  24511439.5904   24511445.0984
     -4137.4534      -3223.9894         12.2504          9.5004
  -6072134.85447   -509786.83446  23050059.5984   23050065.6094
       196.8754        153.4094         22.0004         20.0004
  23689989.68544   1794927.36545  25196800.0664   25196806.0554
     -3608.0944      -2811.5024          7.2504          8.0004
  -9519075.26446  -7300684.86446  23140301.3164   23140307.3874
      1240.3594        966.5144         17.5004         15.7504
 01  7  2  1 35  0.0040000  0  7G20G25G11G13G 1G29G22
 -11095489.98347  -8216168.04747  21725437.9654   21725442.8284
      -428.4844       -333.8844         26.7504         30.0004
   6345871.88147   5044968.61346  23489542.1294   23489547.6954
     -3750.8754      -2922.7604         20.5004         18.5004
  10297376.22946   8125701.75045  24535077.4964   24535084.8484
     -4143.8754      -3228.9944         12.0004         10.2504
     -6250.89851                  25949815.1604
      1250.0314                          2.7504
  -6077963.52447   -514328.61246  23048950.0984   23048956.1334
       191.7504        149.4164         21.7504         19.7504
  23798272.71045   1879303.62745  25217406.9734   25217413.8444
     -3610.7194      -2813.5474          7.7504          7.5004
  -9556078.53646  -7329518.51946  23133259.6294   23133265.7464
      1226.5474        955.7514         17.7504         16.0004
 01  7  2  1 35 30.0040000  0  7G20G25G11G13G 1G29G22
 -11082385.28347  -8205956.58847  21727931.7854   21727936.8594
      -444.8124       -346.6074         26.5004         30.0004
   6458513.73447   5132741.46246  23510977.2234   23510982.2384
     -3758.2034      -2928.4704         20.2504         18.5004
  10421786.71245   8222644.89545  24558752.2774   24558757.8444
     -4149.7814      -3233.5964         11.7504          9.5004
    -43729.23341                  25942685.3094
      1248.9224                          2.7504
  -6083639.55747   -518751.44946  23047870.3484   23047876.5124
       187.0164        145.7264         22.2504         20.0004
  23906634.62645   1963741.40445  25238027.2934   25238035.1134
     -3613.0314      -2815.3494          7.5004          8.5004
  -9592667.62846  -7358029.42346  23126296.9414   23126303.1294
      1213.0474        945.2314         17.5004         16.0004
 01  7  2  1 36  0.0040000  0  6G20G25G11G 1G29G22
 -11068778.68447  -8195354.03147  21730521.0514   21730525.9844
      -462.5164       -360.4024         26.7504         30.2504
   6571385.58847   5220693.52446  23532456.6524   23532462.1484
     -3766.7664      -2935.1424         21.2504         18.5004
  10546384.10145   8319733.68345  24582462.4104   24582468.9734
     -4156.8914      -3239.1364         11.5004         10.0004
  -6089162.50047   -523054.99046  23046819.1914   23046825.0744
       180.9694        141.0154         22.2504         20.0004
  24015076.00545   2048241.12545  25258662.8484   25258669.7304
     -3616.5944      -2818.1254          7.7504          8.2504
  -9628839.13846  -7386214.92646  23119413.8244   23119419.9064
      1198.1724        933.6404         18.0004         16.0004
 01  7  2  1 36 30.0040000  0  7G20G25G11G13G 1G29G22
 -11054682.42947  -8184369.92447  21733203.4494   21733208.3014
      -477.8754       -372.3704         26.7504         30.2504
   6684471.44047   5308812.33746  23553975.5434   23553981.0624
     -3772.9064      -2939.9274         20.0004         18.0004
  10671151.85145   8416955.22645  24606205.4024   24606211.5084
     -4161.5314      -3242.7524         11.2504          9.5004
    -36150.37941                  25928445.3874
      1246.2344                          3.2504
  -6094545.88447   -527249.79246  23045794.7304   23045800.5664
       177.3134        138.1664         22.2504         19.7504
  24123583.25145   2132792.14645  25279311.5594   25279318.4304
     -3617.8284      -2819.0874          8.0004          8.0004
  -9664604.08846  -7414083.65146  23112607.5664   23112613.5664
      1185.5314        923.7914         17.7504         16.2504
 01  7  2  1 37  0.0040000  0  7G20G25G11G13G 1G29G22
 -11040084.64447  -8172995.01747  21735981.2304   21735986.0704
      -494.8594       -385.6054         26.5004         30.2504
   6797780.24347   5397104.88446  23575537.6914   23575543.2234
     -3780.5164      -2945.8564         20.2504         18.0004
  10796097.22945   8514315.17945  24629981.3324   24629986.5124
     -4167.6414      -3247.5124         11.0004          9.0004
    -21160.83751                  25921335.9964
      1244.5474                          3.5004
  -6099779.32847   -531327.77346  23044798.6134   23044804.6134
       172.0784        134.0874         22.2504         20.0004
  24232166.75945   2217402.63445  25299974.4024   25299980.7424
     -3620.6094      -2821.2544          8.0004          7.7504
  -9699948.55146  -7441624.72046  23105881.7304   23105887.7424
      1171.2344        912.6504         17.7504         16.2504
 01  7  2  1 37 30.0040000  0  7G20G25G11G13G 1G29G22
 -11024988.49847  -8161231.77247  21738853.7384   21738858.6604
      -511.8444       -398.8394         26.5004         30.2504
   6911304.38546   5485565.23646  23597140.5904   23597145.7344
     -3788.0314      -2951.7134         19.7504         17.5004
  10921212.28645   8611807.32545  24653789.5194   24653796.6254
     -4173.6094      -3252.1634         10.7504          9.7504
    -58476.70241                  25914234.9264
      1242.9064                          3.5004
  -6104867.93947   -535292.88046  23043830.5354   23043836.4304
       166.8914        130.0454         23.2504         20.5004
  24340821.94445   2302068.89745  25320650.4884   25320657.8754
     -3623.3444      -2823.3854          7.7504          7.2504
  -9734874.06646  -7468839.32246  23099235.8554   23099241.9144
      1156.8444        901.4374         18.5004         16.7504
 01  7  2  1 38  0.0040000  0  7G20G25G11G13G 1G29G22
 -11009375.95147  -8149066.14647  21741824.8014   21741829.6644
      -528.7034       -411.9764         26.5004         30.2504
   7025058.73647   5574204.95146  23618787.5274   23618793.0234
     -3795.2814      -2957.3624         20.0004         17.5004
  11046510.61145   8709442.27945  24677633.8094   24677639.8794
     -4179.2974      -3256.5954         11.0004          9.0004
    -95737.14841                  25907145.4104
      1241.4064                          3.5004
  -6109794.78647   -539131.94646  23042892.9964   23042898.7504
       161.8594        126.1244         23.5004         20.7504
  24449565.35845   2386803.95745  25341343.9024   25341350.1484
     -3625.9064      -2825.3814          7.7504          8.2504
  -9769361.10146  -7495712.25846  23092673.0194   23092679.2304
      1142.5634        890.3084         18.2504         16.5004
 01  7  2  1 38 30.0040000  0  7G20G25G11G13G 1G29G22
 -10993256.36947  -8136505.43347  21744892.5194   21744897.4534
      -545.6094       -425.1504         26.5004         30.2504
   7139030.23746   5663013.89246  23640475.5044   23640481.3404
     -3802.4694      -2962.9634         19.7504         17.5004
  11171978.36345   8807209.27445  24701509.2854   24701516.1294
     -4184.8594      -3260.9294         10.7504          9.2504
   -132953.16642                  25900061.9344
      1239.9534                          3.7504
  -6114570.66947   -542853.37746  23041984.0904   23041989.8674
       156.8594        122.2284         23.7504         20.5004
  24558386.13345   2471599.22445  25362052.9804   25362058.1604
     -3628.4534      -2827.3664          8.0004          7.0004
  -9803418.02046  -7522250.05646  23086192.2544   23086198.3014
      1128.2034        879.1194         18.5004         16.2504
 01  7  2  1 39  0.0040000  0  7G20G25G11G13G 1G29G22
 -10976630.07847  -8123549.87147  21748056.2774   21748061.1524
      -562.7814       -438.5314         26.5004         30.2504
   7253214.64946   5751988.73046  23662203.9414   23662209.4024
     -3809.7814      -2968.6614         19.7504         17.5004
  11297610.55645   8905104.36945  24725416.0434   24725421.6804
     -4190.5314      -3265.3494         10.7504          9.2504
   -170126.75342                  25892988.0664
      1238.3134                          4.0004
  -6119197.40747   -546458.59546  23041103.7694   23041109.6874
       151.6414        118.1624         24.0004         20.7504
  24667282.35845   2556453.42245  25382774.4264   25382780.8714
     -3631.2344      -2829.5334          7.5004          8.2504
  -9837043.62246  -7548451.75346  23079793.2384   23079799.2504
      1113.5164        867.6754         18.5004         16.5004
 01  7  2  1 39 30.0040000  0  7G20G25G11G13G 1G29G22
 -10959492.80947  -8110196.14547  21751317.4734   21751322.3484
      -579.2034       -451.3274         26.2504         30.2504
   7367612.67646   5841130.01946  23683973.2074   23683978.6094
     -3816.2504      -2973.7014         19.5004         17.5004
  11423406.82145   9003127.35145  24749354.6684   24749360.8094
     -4195.3444      -3269.0994         10.7504          9.7504
   -207255.56642                  25885923.5824
      1237.4224                          4.0004
  -6123672.45047   -549945.60846  23040251.9804   23040257.8524
       147.2034        114.7044         23.5004         21.2504
  24776256.84245   2641368.50545  25403512.0594   25403519.9374
     -3633.2034      -2831.0674          7.7504          8.0004
  -9870231.76546  -7574312.57246  23073477.9024   23073484.0904
      1099.5004        856.7534         18.5004         17.0004
 01  7  2  1 40  0.0040000  0  7G20G25G11G13G 1G29G22
 -10941864.32747  -8096459.66147  21754672.0354   21754677.0164
      -596.3124       -464.6594         26.2504         30.2504
   7482201.84146   5930420.24646  23705778.7694   23705784.5824
     -3823.2974      -2979.1924         19.2504         17.0004
  11549343.03545   9101259.34645  24773319.8484   24773325.6954
     -4200.6564      -3273.2394         10.7504          8.7504
   -244360.32342                  25878860.4414
      1235.9694                          4.0004
  -6128016.66647   -553330.67246  23039425.6374   23039431.3794
       142.1414        110.7594         23.7504         21.0004
  24885288.63945   2726328.29445  25424260.2304   25424267.3834
     -3635.8444      -2833.1254          8.0004          7.7504
  -9903000.30646  -7599846.43546  23067242.2074   23067248.4774
      1084.7664        845.2724         18.7504         16.7504
 01  7  2  1 40 30.0040000  0  7G20G25G11G13G 1G29G22
 -10923715.64747  -8082317.82147  21758125.6054   21758130.5514
      -614.6564       -478.9534         26.2504         30.2504
   7597007.28146   6019879.00446  23727625.3324   23727631.1914
     -3831.4534      -2985.5484         19.2504         17.5004
  11675443.87945   9199519.65545  24797315.5984   24797323.1024
     -4207.0944      -3278.2554         10.0004          9.0004
   -281413.52242                  25871810.6994
      1233.2194                          4.2504
  -6132202.38647   -556592.23546  23038628.8094   23038634.5864
       135.8754        105.8774         23.2504         21.0004
  24994405.29444   2811354.20945  25445023.9884   25445030.3874
     -3639.6414      -2836.0844          7.2504          7.7504
  -9935319.22146  -7625029.93746  23061091.7384   23061098.0554
      1068.7664        832.8044         18.5004         17.0004
 01  7  2  1 41  0.0040000  0  7G20G25G11G13G 1G29G22
 -10905043.62147  -8067768.17947  21761678.7154   21761683.6604
      -631.5314       -492.1024         26.2504         30.2504
   7712028.61346   6109505.98246  23749513.4184   23749519.2894
     -3838.0004      -2990.6494         19.2504         17.0004
  11801707.82245   9297907.02245  24821342.8944   24821348.4844
     -4211.8754      -3281.9814          9.7504          8.7504
   -318413.33442                  25864768.8944
      1232.0474                          4.5004
  -6136227.89847   -559728.96046  23037862.6994   23037868.7114
       131.1254        102.1754         23.2504         20.7504
  25103608.67445   2896447.65845  25465805.3164   25465811.4804
     -3641.9844      -2837.9104          8.0004          7.7504
  -9967184.03046  -7649859.58946  23055028.6134   23055034.6604
      1054.1564        821.4204         19.2504         17.0004
 01  7  2  1 41 30.0040000  0  7G20G25G11G13G 1G29G22
 -10885858.90347  -8052819.03347  21765329.4654   21765334.5044
      -646.8444       -504.0344         26.2504         30.5004
   7827251.36246   6199289.91446  23771439.7074   23771445.3914
     -3842.8914      -2994.4604         19.2504         17.0004
  11928119.45945   9396409.49245  24845397.9884   24845405.0474
     -4214.9694      -3284.3914          9.7504          9.0004
   -355372.41942                  25857736.6214
      1232.4844                          4.7504
  -6140105.65747   -562750.56346  23037124.8944   23037130.9414
       127.9844         99.7284         23.5004         20.7504
  25212886.33745   2981599.01145  25486600.0434   25486605.7154
     -3642.6094      -2838.3974          7.7504          8.0004
  -9998603.77146  -7674342.43746  23049049.5194   23049055.6844
      1041.0634        811.2184         19.2504         17.2504
 01  7  2  1 42  0.0050000  0  7G20G25G11G13G 1G29G22
 -10866186.29747  -8037489.71947  21769073.1494   21769078.0364
      -664.7814       -518.0114         26.2504         30.5004
   7942650.86046   6289211.57546  23793399.4234   23793405.0954
     -3850.2814      -3000.2194         18.7504         17.0004
  12054653.59145   9495007.45145  24869477.5564   24869485.4354
     -4220.5004      -3288.7014         10.2504          9.2504
   -392318.52043                  25850705.6654
      1230.3594                          5.0004
  -6143862.20047   -565677.71046  23036409.9784   23036415.8724
       122.2814         95.2844         24.5004         21.2504
  25322215.52144   3066790.49845  25507404.1184   25507412.2784
     -3645.8914      -2840.9544          7.2504          7.5004
 -10029602.82646  -7698497.48346  23043150.1814   23043156.1104
      1025.2814        798.9204         19.2504         17.0004
 01  7  2  1 42 30.0050000  0  7G20G25G11G13G 1G29G22
 -10846011.55347  -8021769.14047  21772911.8214   21772916.6964
      -680.7504       -530.4554         26.0004         30.5004
   8058231.58646   6379274.44646  23815394.0174   23815399.5604
     -3855.6094      -3004.3714         19.2504         16.5004
  12181312.90245   9593702.91145  24893580.2354   24893587.7284
     -4223.9534      -3291.3924         10.5004          8.7504
   -429235.30743                  25843680.4464
      1230.2194                          5.0004
  -6147482.99047   -568499.08046  23035720.9544   23035726.8134
       118.5634         92.3864         24.7504         21.5004
  25431603.02345   3152027.44645  25528219.2434   25528225.4784
     -3647.1564      -2841.9404          7.5004          7.5004
 -10060162.11246  -7722309.85446  23037334.8134   23037340.7204
      1011.4384        788.1334         19.0004         17.0004
 01  7  2  1 43  0.0050000  0  7G20G25G11G13G 1G29G22
 -10825323.60247  -8005648.64747  21776848.9704   21776853.8804
      -698.6874       -544.4324         26.0004         30.2504
   8174004.27446   6469486.89946  23837424.3764   23837429.9894
     -3862.7814      -3009.9594         18.7504         16.7504
  12308107.23845   9692503.58445  24917708.1654   24917715.0094
     -4229.2194      -3295.4954         10.0004          8.7504
   -466114.78543                  25836663.2284
      1228.1884                          5.2504
  -6150959.04647   -571207.67646  23035059.5484   23035065.4314
       112.9384         88.0034         25.0004         21.7504
  25541061.75645   3237319.86145  25549049.5404   25549057.8534
     -3650.3284      -2844.4124          7.5004          7.2504
 -10090271.21546  -7745771.42246  23031605.3764   23031611.5634
       995.5784        775.7754         19.5004         17.2504
 01  7  2  1 43 30.0050000  0  7G20G25G11G13G 1G29G22
 -10804105.15547  -7989114.77147  21780886.5874   21780891.3924
      -715.2974       -557.3744         26.0004         30.5004
   8289983.06946   6559859.95546  23859494.7044   23859500.5994
     -3868.5474      -3014.4524         18.7504         16.7504
  12435049.76845   9791419.73645  24941865.3214   24941872.8134
     -4233.0164      -3298.4544         10.2504          8.5004
   -502940.74743     -3823.97254  25829654.7514   25829666.9074
      1227.5004        956.4944          5.7504          4.0004
  -6154274.19347   -573790.87746  23034428.6344   23034434.4234
       108.6564         84.6674         25.0004         21.7504
  25650607.65744   3322680.24745  25569895.2984   25569902.3804
     -3652.1414      -2845.8244          7.2504          7.2504
 -10119911.21646  -7768867.46046  23025964.7674   23025970.7204
       981.0004        764.4164         19.2504         17.5004
 01  7  2  1 44  0.0050000  0  7G20G25G11G13G 1G29G22
 -10782392.96047  -7972196.17647  21785018.1964   21785023.0364
      -732.1874       -570.5364         25.5004         30.5004
   8406127.71846   6650362.24246  23881596.6344   23881602.2354
     -3874.4374      -3019.0424         18.7504         16.2504
  12562099.39145   9890419.34845  24966041.6494   24966047.6144
     -4236.9534      -3301.5224          9.7504          8.7504
   -539751.76043    -32507.72045  25822649.7284   25822654.7674
      1226.5784        955.7754          5.7504          4.7504
  -6157466.66047   -576278.49746  23033821.1264   23033826.8454
       104.1564         81.1614         24.5004         21.5004
  25760202.73944   3408078.90045  25590750.4544   25590757.6534
     -3654.1874      -2847.4194          6.7504          7.2504
 -10149116.94246  -7791625.10946  23020407.3064   23020413.4814
       966.0474        752.7644         19.5004         17.5004
 01  7  2  1 44 30.0050000  0  7G20G25G11G13G 1G29G22
 -10760165.23347  -7954875.86547  21789248.0874   21789252.8924
      -750.0474       -584.4524         25.7504         30.5004
   8522456.72046   6741008.18246  23903732.8454   23903738.4234
     -3881.2034      -3024.3144         18.7504         16.5004
  12689273.66945   9989516.10445  24990241.6574   24990249.0204
     -4241.7034      -3305.2234          9.7504          9.2504
   -576527.00543    -61163.65645  25815650.9704   25815661.7904
      1224.7034        954.3144          6.0004          4.7504
  -6160515.75147   -578654.39646  23033240.7904   23033246.7434
        98.7344         76.9364         24.2504         21.5004
  25869867.47444   3493531.88345  25611619.4934   25611625.6924
     -3657.2034      -2849.7694          7.2504          8.0004
 -10177864.78246  -7814025.96846  23014936.5404   23014942.4934
       950.0784        740.3214         19.7504         17.5004
 01  7  2  1 45  0.0050000  0  7G20G25G11G13G 1G29G22
 -10737407.42547  -7937142.50047  21793578.6734   21793583.5604
      -767.1724       -597.7964         26.0004         30.5004
   8638980.99146   6831806.27446  23925906.9934   23925912.6184
     -3887.0944      -3028.9044         18.7504         16.5004
  12816582.47045  10088717.66045  25014468.7514   25014475.9154
     -4245.5474      -3308.2184          9.7504          9.0004
   -613253.50744    -89781.50745  25808662.9784   25808665.9664
      1223.6884        953.5234          6.2504          4.7504
  -6163408.39847   -580908.38446  23032690.2984   23032696.2284
        94.0944         73.3204         24.0004         21.2504
  25979615.00544   3579049.33745  25632503.4854   25632509.8254
     -3659.3444      -2851.4374          7.0004          6.7504
 -10206139.14346  -7836057.88546  23009556.1494   23009562.1144
       934.8284        728.4384         19.7504         17.7504
 01  7  2  1 45 30.0050000  0  7G20G25G11G13G 1G29G22
 -10714112.79347  -7918990.83547  21798011.4464   21798016.1924
      -785.4534       -612.0414         25.7504         30.5004
   8755703.94946   6922759.19746  23948118.5484   23948124.4314
     -3894.0784      -3034.3474         18.2504         16.0004
  12944028.15245  10188025.85945  25038720.1264   25038725.7164
     -4250.4534      -3312.0414          9.0004          8.5004
   -649925.84044   -118357.19545  25801683.7514   25801689.0244
      1221.5004        951.8184          6.2504          6.0004
  -6166138.84947   -583035.98846  23032170.6494   23032176.5204
        88.3134         68.8154         24.0004         21.5004
  26089450.91845   3664635.69745  25653404.9464   25653412.0524
     -3662.6874      -2854.0424          7.5004          8.0004
 -10233932.09047  -7857714.67146  23004267.4154   23004273.2164
       918.3594        715.6054         20.0004         17.7504
 01  7  2  1 46  0.0050000  0  7G20G25G11G13G 1G29G22
 -10690274.82547  -7900415.78047  21802547.5954   21802552.6224
      -803.5314       -626.1284         25.7504         30.5004
   8872629.58046   7013870.03146  23970369.2284   23970375.3104
     -3900.7194      -3039.5214         18.2504         16.0004
  13071613.21945  10287442.71945  25062998.8064   25063004.3954
     -4255.0004      -3315.5844          9.2504          8.7504
   -686538.56344   -146886.48945  25794716.9624   25794723.4424
      1219.5634        950.3084          6.5004          6.0004
  -6168701.63347   -585032.94646  23031682.9464   23031688.9814
        82.7664         64.4934         24.2504         21.5004
  26199380.78645   3750295.23045  25674324.0564   25674329.4584
     -3665.7504      -2856.4294          8.0004          7.0004
 -10261235.13646  -7878989.71046  22999071.5094   22999077.6384
       902.0314        702.8814         19.5004         17.5004
 01  7  2  1 46 30.0050000  0  7G20G25G11G13G 1G29G22
 -10665901.87647  -7881423.85447  21807185.8214   21807190.6144
      -821.7664       -640.3374         25.7504         30.5004
   8989745.97146   7105129.52646  23992655.4234   23992660.7434
     -3907.4224      -3044.7444         18.5004         16.0004
  13199325.25045  10386958.47145  25087302.3684   25087308.1224
     -4259.5474      -3319.1274          9.7504          8.2504
   -723101.19044   -175376.68245  25787758.8764   25787764.5484
      1217.5164        948.7134          6.7504          5.7504
  -6171106.14947   -586906.58346  23031225.5484   23031231.5364
        77.1094         60.0854         24.7504         21.7504
  26309394.94545   3836020.50845  25695259.3064   25695265.7744
     -3668.9374      -2858.9124          8.2504          8.0004
 -10288054.51347  -7899887.86846  22993968.2824   22993974.1424
       885.4844        689.9884         20.2504         17.7504
 01  7  2  1 47  0.0050000  0  7G20G25G11G13G 1G29G22
 -10640992.54147  -7862013.97547  21811925.9934   21811930.8924
      -839.1564       -653.8884         25.7504         30.7504
   9107051.14046   7196536.11946  24014977.8534   24014983.6424
     -3913.1874      -3049.2374         18.0004         16.0004
  13327161.10345  10486570.74145  25111628.6424   25111636.1574
     -4263.1254      -3321.9164          9.5004          8.5004
   -759613.81844   -203828.01245  25780810.5174   25780816.5054
      1216.3754        947.8254          7.2504          5.7504
  -6173352.44247   -588656.92346  23030798.0954   23030803.7434
        72.3444         56.3724         25.2504         22.0004
  26419493.47345   3921811.47645  25716210.5404   25716218.0444
     -3671.2664      -2860.7264          8.0004          7.5004
 -10314387.39447  -7920406.92846  22988957.0794   22988963.0444
       869.7344        677.7154         20.0004         17.7504
